     2              OBSERVATION DATA    GPS                 RINEX VERSION / TYPE
teqc 2000Feb29 Duncan Agnew 20000428 21:00:34UTC            PGM / RUN BY / DATE
                                                            COMMENT
L2: 1 -> 1; 150 -> 5; 250 -> 9                              COMMENT
L2: 1 -> 1; 150 -> 5; 250 -> 9                              COMMENT
L2: 1 -> 1; 150 -> 5; 250 -> 9                              COMMENT
L2: 1 -> 1; 150 -> 5; 250 -> 9                              COMMENT
L2: 1 -> 1; 150 -> 5; 250 -> 9                              COMMENT
Original Marker Name: LUDL                                  COMMENT
Campaign Name: Hector Postseismic                           COMMENT
4-Character Station Name: LUDL                              COMMENT
6-Character Antenna Code: DMRCHT                            COMMENT
Vertical Measurement Point: BCR                             COMMENT
Vertical Offset to Rinex Ref. Point: 0.0348                 COMMENT
Radial Measurement Point: ECF                               COMMENT
Radial Offset to Rinex Ref. Point: 0.1897                   COMMENT
Antenna Height from Field Measurement: 0.8160 m             COMMENT
Additional Antenna Identification Info.:                    COMMENT
Turborogue and Ashtech Choke Ring                           COMMENT
Original XYZ: -2332038.6577 -4720866.6225 3588759.6820      COMMENT
New XYZ position is based on association with SCEC monument COMMENT
E1F2L1D3+0011. Position of that monument is believed to be  COMMENT
valid to within 1 m horizontally; vertical accuracy         COMMENT
should be no worse than 3-times this value.                 COMMENT
                                                            COMMENT
Revised Rinex header created by UCSD GPS archive for        COMMENT
GSAC on 31-Jul-2000 (2000:213) 22:08:58 GMT                 COMMENT
For assistance contact dagnew@ucsd.edu                      COMMENT
or anderson@python.ucsd.edu                                 COMMENT
                                                            COMMENT
LUDLOW 1957                                                 MARKER NAME
SEO UNIV SOUTHERN CALIFORNIA                                OBSERVER / AGENCY
192 ASHTECH Z-XII3 CD00                                     REC # / TYPE / VERS
379 DORNE-MARGOL. TYPE T                                    ANT # / TYPE
 -2315200.5187 -4710150.1868  3612962.0211                  APPROX POSITION XYZ
        0.7588        0.0000        0.0000                  ANTENNA: DELTA H/E/N
     1     1     0                                          WAVELENGTH FACT L1/2
     7    C1    L1    L2    P1    P2    S1    S2            # / TYPES OF OBSERV
     0                                                      INTERVAL
  2000     4    20    21    10   30.000000                  TIME OF FIRST OBS
  2000     4    20    23    52   30.000000                  TIME OF LAST OBS
                                                            END OF HEADER
 00  4 20 21 10 30.0000000  0  6G17G30G 5G 6G24G10
  23322707.653     -268498.77949   -190272.94746  23322707.096    23322725.574
       219.000         165.000
  20821837.188      -42514.36149    -30606.92747  20821837.542    20821849.071
       242.000         208.000
  21669720.930      142406.16949    104335.88447  21669720.285    21669735.361
       235.000         191.000
                   -218325.73549   -156105.55943
       236.000          74.000
  22778600.934      125263.88249     90391.46246  22778600.483    22778614.143
       227.000         175.000
  21055918.769      -35373.51649    -24688.98947  21055918.101    21055930.313
       241.000         204.000
 00  4 20 21 10 59.9990000  0  6G17G30G 5G 6G24G10
  23004287.289     -366389.03649   -266550.76946  23004286.704    23004304.071
       221.000         167.000
  20519278.809      -57050.31349    -41933.65747  20519278.839    20519290.271
       241.000         207.000
  21379685.330      193676.70949    144286.77347  21379684.842    21379699.767
       235.000         191.000
                   -305455.41549    -14209.73445                  21481590.725
       236.000         149.000
  22487785.432      172441.21249    127152.96346  22487785.820    22487800.359
       226.000         175.000
  20754134.544      -45839.55849    -32844.30247  20754133.972    20754146.308
       241.000         205.000
 00  4 20 21 11 30.0000000  0  6G17G30G 5G 6G24G10
  23081586.601    -1535596.15249  -1177620.94546  23081586.240    23081603.132
       215.000         168.000
  20612507.042    -1142551.83149   -887779.01847  20612507.338    20612518.822
       241.000         208.000
  21485399.308     -826212.51949   -650432.26647  21485398.708    21485413.979
       234.000         191.000
  21560906.394    -1463995.53649   -916968.19347  21560906.445    21560918.838
       237.000         191.000
  22592647.141     -851927.97949   -671056.86946  22592647.226    22592661.301
       226.000         175.000
  20848141.666    -1127249.44649   -875501.33747  20848141.242    20848153.371
       240.000         205.000
 00  4 20 21 12  0.0000000  0  6G17G30G 5G 6G24G10
  23068179.551    -1606049.22549  -1232519.13646  23068178.892    23068196.322
       221.000         170.000
  20615093.509    -1128959.84249   -877187.87247  20615094.007    20615105.517
       242.000         208.000
  21500436.619     -747190.90749   -588857.14847  21500436.208    21500451.535
       234.000         191.000
  21549510.666    -1523881.04949   -963632.14347  21549510.704    21549522.988
       236.000         196.000
  22606758.303     -777774.18349   -613274.75246  22606758.906    22606772.698
       225.000         174.000
  20851511.278    -1109542.16249   -861703.41147  20851510.640    20851522.873
       241.000         205.000
 00  4 20 21 12 30.0000000  0  6G17G30G 5G 6G24G10
  23054814.136    -1676284.53049  -1287247.65146  23054813.155    23054831.034
       223.000         170.000
  20617792.164    -1114778.44949   -866137.45447  20617792.529    20617804.024
       242.000         208.000
  21515547.526     -667782.93849   -526980.97147  21515546.887    21515562.559
       233.000         191.000
  21538142.211    -1583622.69949  -1010183.98547  21538142.005    21538154.213
       236.000         197.000
  22620874.027     -703595.75349   -555473.44446  22620874.574    22620888.252
       225.000         174.000
  20854995.433    -1091232.97349   -847436.46347  20854994.558    20855006.920
       241.000         205.000
 00  4 20 21 13  0.0000000  0  6G17G30G 5G 6G24G10
  23041486.960    -1746318.56949  -1341819.29946  23041485.791    23041502.350
       205.000         164.000
  20620603.906    -1100002.76949   -854623.96747  20620604.073    20620615.701
       244.000         208.000
  21530732.990     -587982.80749   -464799.22347  21530732.724    21530748.202
       232.000         190.000
  21526801.629    -1643217.67649  -1056621.54447  21526801.455    21526813.516
       234.000         197.000
  22634998.896     -629369.31349   -497634.73646  22634998.816    22635013.033
       226.000         174.000
  20858595.133    -1072316.42649   -832696.25547  20858594.555    20858606.818
       240.000         205.000
 00  4 20 21 13 30.0000000  0  6G17G30G 5G 6G24G10
  23028194.214    -1816170.93949  -1396249.47245  23028192.904    23028210.914
       222.000         162.000
  20623528.362    -1084634.47649   -842648.69347  20623528.818    20623540.259
       242.000         208.000
  21545992.082     -507796.00649   -402316.17247  21545992.100    21546007.638
       233.000         190.000
  21515490.511    -1702657.74849  -1102938.39347  21515490.436    21515502.228
       236.000         197.000
  22649136.533     -555075.84049   -439743.78246  22649137.029    22649150.834
       224.000         174.000
  20862309.099    -1052799.37549   -817488.12147  20862308.534    20862320.743
       241.000         205.000
 00  4 20 21 14  0.0000000  0  6G17G30G 5G 6G24G10
  23014935.272    -1885846.18949  -1450541.58946  23014934.283    23014952.261
       222.000         169.000
  20626567.267    -1068664.87949   -830204.87347  20626567.814    20626579.436
       242.000         208.000
  21561321.909     -427237.42049   -339543.42647  21561322.137    21561337.689
       233.000         190.000
  21504207.213    -1761951.67349  -1149141.36847  21504207.027    21504218.986
       236.000         197.000
  22663288.652     -480706.39649   -381793.62646  22663288.792    22663303.238
       225.000         173.000
  20866138.024    -1032678.18849   -801809.22647  20866137.514    20866149.970
       240.000         205.000
 00  4 20 21 14 30.0000000  0  6G17G30G 5G 6G24G10
  23001713.390    -1955326.61249  -1504681.90946  23001712.146    23001730.482
       222.000         171.000
  20629725.105    -1052070.49649   -817274.20747  20629725.768    20629737.263
       242.000         208.000
  21576723.255     -346303.62649   -276478.31147  21576722.746    21576738.782
       232.000         190.000
  21492953.001    -1821092.71549  -1195225.21747  21492952.639    21492965.142
       236.000         197.000
  22677455.268     -406260.42049   -323783.85146  22677455.304    22677469.497
       225.000         173.000
  20870084.407    -1011939.68149   -785649.30547  20870083.742    20870096.109
       241.000         205.000
 00  4 20 21 15  0.0000000  0  6G17G30G 5G 6G24G10
  22988535.051    -2024578.19449  -1558643.91746  22988533.899    22988551.911
       222.000         171.000
  20633000.161    -1034860.14449   -803863.57647  20633000.851    20633012.209
       242.000         208.000
  21592196.117     -264993.72649   -213120.13147  21592196.174    21592211.971
       232.000         190.000
  21481726.039    -1880090.50249  -1241197.43947  21481725.981    21481738.008
       237.000         198.000
  22691633.856     -331751.67749   -265725.14846  22691634.288    22691648.720
       225.000         172.000
  20874148.862     -990580.79349   -769005.97547  20874148.028    20874160.414
       240.000         205.000
 00  4 20 21 15 30.0000000  0  6G17G30G 5G 6G24G10
  22975403.517    -2093583.80749  -1612414.25446  22975402.270    22975420.699
       222.000         172.000
  20636390.656    -1017043.22549   -789980.29247  20636391.114    20636402.735
       242.000         208.000
  21607736.800     -183327.87849   -149484.58947  21607736.515    21607752.343
       233.000         190.000
  21470524.616    -1938954.34949  -1287065.28947  21470524.475    21470536.336
       237.000         198.000
  22705820.837     -257198.91449   -207632.15946  22705821.937    22705834.491
       224.000         172.000
  20878326.783     -968625.54849   -751897.95447  20878326.056    20878338.203
       241.000         205.000
 00  4 20 21 16  0.0000000  0  6G17G30G 5G 6G24G10
  22962317.939    -2162348.04749  -1665996.50946  22962316.989    22962334.859
       222.000         172.000
  20639891.612     -998645.78849   -775644.66147  20639892.120    20639903.717
       242.000         208.000
  21623339.836     -101334.15049    -85593.55547  21623340.023    21623355.962
       233.000         189.000
  21459344.073    -1997708.31049  -1332847.51447  21459343.805    21459356.071
       236.000         198.000
  22720012.294     -182622.79849   -149520.97046  22720013.182    22720026.753
       225.000         172.000
  20882613.804     -946097.22549   -734343.38047  20882613.298    20882625.309
       241.000         205.000
 00  4 20 21 16 30.0000000  0  6G17G30G 5G 6G24G10
  22949274.277    -2230891.98849  -1719407.12246  22949274.098    22949290.710
       223.000         172.000
  20643497.686     -979695.79449   -760878.47147  20643498.174    20643509.982
       242.000         208.000
  21639003.163      -19023.59549    -21455.64947  21639003.190    21639018.948
       233.000         189.000
  21448183.915    -2056355.16349  -1378546.27847  21448184.001    21448195.794
       237.000         199.000
  22734204.717     -108041.61449    -91405.83846  22734204.967    22734218.637
       224.000         171.000
  20887006.217     -923014.94649   -716357.15447  20887005.587    20887017.784
       241.000         205.000
 00  4 20 21 17  0.0000000  0  6G17G30G 5G 6G24G10
  22936268.122    -2299238.94849  -1772664.23946  22936267.452    22936284.645
       222.000         173.000
  20647204.995     -960214.10049   -745697.97047  20647205.557    20647217.129
       242.000         208.000
  21654725.234       63595.68149     42922.81947  21654725.116    21654741.105
       232.000         188.000
  21437043.449    -2114898.37949  -1424164.28847  21437043.534    21437055.130
       237.000         199.000
  22748394.869      -33472.52749    -33300.12346  22748395.553    22748410.174
       224.000         170.000
  20891501.520     -899392.10049   -697949.71247  20891500.945    20891512.967
       241.000         205.000
 00  4 20 21 17 30.0000000  0  6G17G30G 5G 6G24G10
  22923296.062    -2367406.78549  -1825781.77246  22923294.384    22923313.005
       223.000         173.000
  20651013.866     -940198.69649   -730101.59147  20651014.480    20651026.180
       242.000         208.000
  21670506.783      146527.56449    107544.87547  21670506.820    21670523.078
       231.000         188.000
  21425926.053    -2173320.38649  -1469687.84947  21425926.030    21425937.728
       237.000         199.000
  22762583.114       41086.95049     24798.09146  22762583.591    22762596.357
       223.000         170.000
  20896100.875     -875222.15549   -679115.95547  20896100.211    20896112.408
       241.000         205.000
 00  4 20 21 18  0.0000000  0  6G17G30G 5G 6G24G10
  22910357.392    -2435398.88449  -1878762.36946  22910356.630    22910374.162
       223.000         173.000
  20654929.017     -919624.65549   -714069.91347  20654929.440    20654941.525
       242.000         208.000
  21686349.774      229782.19849    172418.42847  21686349.832    21686365.563
       231.000         188.000
  21414834.534    -2231606.50849  -1515105.52947  21414834.309    21414846.436
       237.000         199.000
  22776770.816      115643.32849     82893.89646  22776770.670    22776784.600
       223.000         170.000
  20900810.524     -850472.79049   -659830.70747  20900809.890    20900822.056
       241.000         205.000
 00  4 20 21 18 30.0000000  0  6G17G30G 5G 6G24G10
  22897458.326    -2503183.02649  -1931580.92746  22897458.000    22897474.572
       222.000         173.000
  20658958.536     -898449.62749   -697569.94147  20658959.160    20658970.806
       242.000         208.000
  21702260.333      313392.06849    237568.77246  21702260.358    21702276.315
       232.000         187.000
  21403774.229    -2289728.72049  -1560395.48747  21403774.096    21403785.940
       237.000         199.000
  22790961.546      190215.92449    141002.32846  22790962.545    22790975.735
       223.000         170.000
  20905637.532     -825106.60549   -640064.82747  20905637.149    20905649.006
       240.000         204.000
 00  4 20 21 19  0.0000000  0  6G17G30G 5G 6G24G10
  22884604.669    -2570728.53249  -1984213.53246  22884603.589    22884620.884
       224.000         174.000
  20663108.382     -876642.24749   -680577.22047  20663108.977    20663120.689
       242.000         208.000
  21718240.439      397367.15049    303003.70446  21718240.285    21718256.501
       231.000         187.000
  21392749.223    -2347665.30649  -1605540.79847  21392749.228    21392761.068
       237.000         200.000
  22805158.766      264821.99049    199136.84246  22805158.467    22805172.970
       223.000         170.000
  20910586.173     -799101.20349   -619800.85447  20910585.493    20910597.697
       240.000         204.000
 00  4 20 21 19 30.0000000  0  6G17G30G 5G 6G24G10
  22871799.319    -2638020.17349  -2036648.32346  22871798.403    22871815.212
       224.000         174.000
  20667382.668     -854181.09249   -663075.06547  20667383.448    20667394.979
       242.000         208.000
  21734291.243      481713.84249    368728.20246  21734291.533    21734307.502
       232.000         187.000
  21381761.991    -2405403.40049  -1650531.44647  21381761.924    21381773.652
       237.000         200.000
  22819367.441      339488.68149    257318.59246  22819367.401    22819382.047
       223.000         170.000
  20915658.469     -772446.17649   -599030.68647  20915657.831    20915669.975
       241.000         204.000
 00  4 20 21 20  0.0000000  0  6G17G30G 5G 6G24G10
  22859043.538    -2705051.25949  -2088880.09246  22859041.425    22859059.898
       225.000         174.000
  20671783.074     -831057.02949   -645056.36347  20671783.622    20671795.085
       242.000         208.000
  21750415.316      566445.59549    434752.74246  21750415.421    21750431.872
       231.000         186.000
  21370812.573    -2462942.50049  -1695367.03047  21370812.394    21370824.177
       237.000         200.000
  22833588.267      414219.37249    315550.21546  22833588.326    22833602.281
       223.000         169.000
  20920854.938     -745138.50149   -577751.96347  20920854.434    20920866.304
       241.000         204.000
 00  4 20 21 20 30.0000000  0  6G17G30G 5G 6G24G10
  22846335.760    -2771829.98449  -2140915.20446  22846334.452    22846352.650
       223.000         174.000
  20676304.137     -807298.93549   -626543.60447  20676304.582    20676316.303
       242.000         207.000
  21766612.865      651563.37549    501078.08346  21766612.818    21766629.044
       230.000         186.000
  21359901.041    -2520282.48249  -1740047.45847  21359900.668    21359912.607
       237.000         200.000
  22847822.701      489021.95649    373837.85546  22847822.532    22847837.239
       222.000         168.000
  20926172.720     -717193.40349   -555976.54547  20926172.182    20926184.117
       240.000         204.000
 00  4 20 21 21  0.0000000  0  6G17G30G 5G 6G24G10
  22833670.514    -2838385.46849  -2192776.37146  22833668.910    22833686.811
       225.000         175.000
  20680940.890     -782932.81449   -607557.05847  20680941.592    20680953.412
       242.000         207.000
  21782878.969      737041.54949    567684.24446  21782878.987    21782895.611
       231.000         186.000
  21349025.175    -2577435.32649  -1784582.06547  21349024.948    21349036.893
       237.000         200.000
  22862069.302      563887.91049    432174.87246  22862069.119    22862083.749
       222.000         167.000
  20931607.416     -688633.77849   -533722.27947  20931607.030    20931618.891
       241.000         204.000
 00  4 20 21 21 30.0000000  0  6G17G30G 5G 6G24G10
  22821044.799    -2904733.21349  -2244475.66446  22821043.720    22821060.732
       224.000         175.000
  20685691.372     -757969.26049   -588104.98247  20685692.073    20685703.594
       242.000         207.000
  21799211.968      822871.22949    634564.31046  21799211.740    21799227.611
       230.000         185.000
  21338182.824    -2634412.17349  -1828979.53347  21338182.684    21338194.480
       238.000         201.000
  22876326.300      638808.75849    490554.67246  22876326.469    22876340.478
       221.000         167.000
  20937157.799     -659466.43849   -510994.46847  20937156.848    20937169.176
       240.000         204.000
 00  4 20 21 22  0.0000000  0  6G17G30G 5G 6G24G10
  22808460.001    -2970865.95749  -2296007.42346  22808459.122    22808475.426
       224.000         175.000
  20690552.266     -732425.30449   -568200.64547  20690552.818    20690564.780
       242.000         207.000
  21815608.361      909033.99049    701703.91346  21815608.648    21815624.694
       230.000         185.000
  21327373.674    -2691214.44749  -1873240.97047  21327373.696    21327385.213
       238.000         201.000
  22890592.543      713777.94949    548972.13246  22890592.782    22890606.140
       221.000         167.000
  20942821.211     -629704.79749   -487803.56547  20942820.647    20942832.676
       240.000         204.000
 00  4 20 21 22 30.0000000  0  6G17G30G 5G 6G24G10
  22795914.221    -3036793.52249  -2347379.30946  22795913.168    22795929.666
       225.000         176.000
  20695519.413     -706323.10349   -547861.30947  20695519.690    20695531.665
       242.000         207.000
  21832061.420      995494.50049    769075.53946  21832061.408    21832077.544
       229.000         184.000
  21316595.181    -2747855.67149  -1917376.91147  21316595.018    21316606.955
       238.000         201.000
  22904866.534      788787.84549    607421.32146  22904867.011    22904880.380
       221.000         166.000
  20948593.495     -599371.39749   -464167.13447  20948592.731    20948604.709
       240.000         204.000
 00  4 20 21 23  0.0000000  0  6G17G30G 5G 6G24G10
  22783407.977    -3102513.36749  -2398589.33646  22783406.936    22783423.911
       224.000         176.000
  20700593.745     -679657.59349   -527083.03747  20700594.397    20700605.922
       242.000         207.000
  21848568.133     1082237.01049    836666.89546  21848568.191    21848584.421
       229.000         184.000
  21305846.575    -2804339.94949  -1961390.55647  21305846.589    21305858.179
       238.000         201.000
  22919144.087      863816.63149    665885.21046  22919143.787    22919158.500
       222.000         166.000
  20954471.116     -568484.23449   -440099.19747  20954470.432    20954482.674
       240.000         204.000
 00  4 20 21 23 30.0000000  0  6G17G30G 5G 6G24G10
  22770943.223    -3168015.34949  -2449629.60346  22770942.525    22770959.314
       225.000         177.000
  20705774.560     -652432.44249   -505868.68047  20705775.080    20705786.896
       242.000         207.000
  21865128.452     1169261.14449    904477.69646  21865128.576    21865144.823
       230.000         183.000
  21295127.346    -2860669.74349  -2005283.82647  21295127.180    21295139.175
       238.000         201.000
  22933422.719      938851.09549    724353.54746  22933423.861    22933436.955
       222.000         166.000
  20960452.306     -537052.87249   -415607.21147  20960451.411    20960463.647
       241.000         204.000
 00  4 20 21 24  0.0000000  0  6G17G30G 5G 6G24G10
  22758518.587    -3233306.43249  -2500505.53046  22758516.907    22758533.676
       225.000         177.000
  20711059.403     -624660.70849   -484228.41447  20711059.942    20711071.609
       242.000         207.000
  21881743.229     1256571.52849    972511.54446  21881743.434    21881759.278
       229.000         183.000
  21284436.680    -2916849.37349  -2049060.08447  21284436.701    21284448.025
       238.000         201.000
  22947699.607     1013875.65949    782814.15046  22947699.618    22947714.163
       222.000         166.000
  20966533.554     -505095.86649   -390705.63147  20966532.791    20966544.821
       240.000         204.000
 00  4 20 21 24 30.0000000  0  6G17G30G 5G 6G24G10
  22746131.858    -3298398.13649  -2551226.10046  22746130.801    22746147.556
       226.000         177.000
  20716450.798     -596328.98249   -462151.79147  20716451.469    20716463.059
       242.000         207.000
  21898414.819     1344180.42249   1040778.00946  21898414.713    21898431.333
       230.000         183.000
  21273775.348    -2972874.76649  -2092716.15647  21273775.182    21273786.644
       238.000         201.000
  22961970.976     1088872.15349    841252.88946  22961971.058    22961985.487
       220.000         165.000
  20972715.392     -472610.07849   -365392.00947  20972714.812    20972726.569
       241.000         204.000
 00  4 20 21 25  0.0000000  0  6G17G30G 5G 6G24G10
  22733785.848    -3363275.90849  -2601779.98646  22733785.168    22733800.878
       226.000         178.000
  20721954.148     -567408.88449   -439616.69647  20721954.669    20721966.307
       241.000         207.000
  21915147.427     1432109.76949   1109294.17046  21915147.929    21915164.064
       229.000         183.000
  21263147.824    -3028722.48649  -2136233.78847  21263147.749    21263159.192
       238.000         202.000
  22976238.566     1163848.60449    899676.01946  22976238.721    22976253.966
       220.000         165.000
  20979001.976     -439573.86849   -339649.48547  20979001.430    20979013.345
       240.000         204.000
 00  4 20 21 25 30.0000000  0  6G17G30G 5G 6G24G10
  22721481.879    -3427932.66349  -2652161.63946  22721480.906    22721497.160
       226.000         178.000
  20727570.689     -537893.92449   -416618.07247  20727571.011    20727583.058
       242.000         206.000
  21931945.262     1520381.93549   1178077.45746  21931945.480    21931962.432
       229.000         182.000
  21252555.899    -3084383.05349  -2179605.58947  21252555.872    21252567.212
       238.000         202.000
  22990505.661     1238822.41149    958097.07146  22990506.144    22990520.361
       221.000         165.000
  20985397.032     -405967.57049   -313462.74447  20985396.422    20985408.293
       240.000         204.000
 00  4 20 21 26  0.0000000  0  6G17G30G 5G 6G24G10
  22709218.331    -3492377.28049  -2702377.99146  22709217.356    22709233.003
       227.000         178.000
  20733299.502     -507789.11849   -393159.83147  20733299.895    20733311.795
       242.000         207.000
  21948809.176     1609001.51749   1247131.44946  21948808.956    21948825.884
       229.000         182.000
  21241999.851    -3139855.31949  -2222830.66147  21241999.760    21242011.674
       238.000         202.000
  23004775.426     1313809.80749   1016528.72146  23004775.995    23004790.186
       221.000         165.000
  20991902.499     -371781.05949   -286823.88847  20991902.039    20991913.916
       240.000         203.000
 00  4 20 21 26 30.0000000  0  6G17G30G 5G 6G24G10
  22696996.282    -3556603.78849  -2752424.39446  22696995.477    22697011.352
       227.000         178.000
  20739139.672     -477098.84849   -369245.38147  20739140.002    20739152.051
       242.000         206.000
  21965735.810     1697950.71849   1316442.30046  21965735.987    21965752.787
       229.000         182.000
  21231479.545    -3195139.70949  -2265909.33847  21231479.233    21231490.902
       238.000         202.000
  23019049.919     1388822.34049   1074979.96146  23019050.313    23019064.592
       220.000         165.000
  20998520.277     -337004.37449   -259725.15147  20998519.597    20998531.662
       240.000         203.000
 00  4 20 21 27  0.0000000  0  6G17G30G 5G 6G24G10
  22684814.704    -3620617.42549  -2802304.91746  22684813.141    22684830.482
       227.000         178.000
  20745086.079     -445850.41749   -344896.00447  20745086.565    20745098.453
       241.000         206.000
  21982724.138     1787224.11849   1386005.76146  21982723.967    21982740.866
       229.000         182.000
  21220992.255    -3250250.47249  -2308852.72147  21220992.073    21221003.735
       239.000         203.000
  23033329.423     1463861.40549   1133451.86846  23033329.818    23033343.876
       220.000         165.000
  21005249.499     -301641.91049   -232169.96447  21005248.649    21005260.873
       240.000         203.000
 00  4 20 21 27 30.0000000  0  6G17G30G 5G 6G24G10
  22672671.939    -3684427.09849  -2852026.50946  22672671.276    22672686.551
       228.000         178.000
  20751130.842     -414085.18349   -320143.92847  20751131.161    20751143.057
       241.000         206.000
  21999768.747     1876793.39649   1455799.77946  21999768.547    21999785.640
       229.000         181.000
  21210533.099    -3305213.51949  -2351681.00947  21210532.944    21210544.455
       240.000         203.000
  23047611.869     1538915.97749   1191935.86146  23047611.900    23047626.978
       221.000         164.000
  21012087.101     -265710.04949   -204171.09647  21012086.255    21012098.438
       240.000         203.000
 00  4 20 21 28  0.0000000  0  6G17G30G 5G 6G24G10
  22660564.790    -3748049.74649  -2901602.37346  22660563.918    22660580.709
       227.000         179.000
  20757272.857     -381808.78449   -294993.53547  20757273.609    20757285.333
       242.000         206.000
  22016861.650     1966616.42649   1525791.52146  22016861.994    22016878.621
       229.000         181.000
  21200101.269    -3360032.93649  -2394397.37747  21200101.035    21200112.933
       240.000         203.000
  23061893.069     1613963.52749   1250414.38846  23061893.144    23061907.705
       220.000         164.000
  21019031.254     -229218.30049   -175735.95047  21019030.738    21019042.498
       240.000         203.000
 00  4 20 21 28 30.0000000  0  6G17G30G 5G 6G24G10
  22648496.624    -3811467.38649  -2951018.49146  22648495.563    22648511.803
       227.000         179.000
  20763518.390     -348988.51349   -269419.35047  20763518.615    20763530.873
       242.000         206.000
  22034002.665     2056692.03349   1595980.08246  22034002.597    22034019.311
       227.000         181.000
  21189700.934    -3414686.84049  -2436984.78147  21189700.606    21189712.341
       240.000         203.000
  23076172.227     1689000.57149   1308884.72046  23076172.678    23076187.020
       220.000         164.000
  21026084.290     -192154.19649   -146854.81547  21026083.535    21026095.700
       240.000         203.000
 00  4 20 21 29  0.0000000  0  6G17G30G 5G 6G24G10
  22636469.692    -3874668.32049  -3000265.73346  22636468.849    22636485.375
       227.000         179.000
  20769873.851     -315590.39149   -243394.89647  20769874.245    20769886.295
       241.000         206.000
  22051195.309     2147039.33349   1666380.34246  22051195.635    22051212.081
       228.000         180.000
  21179337.064    -3469148.69049  -2479422.52747  21179336.690    21179348.458
       240.000         203.000
  23090452.863     1764045.61049   1367361.28546  23090453.592    23090468.010
       220.000         164.000
  21033250.221     -154496.83849   -117511.40447  21033249.474    21033261.922
       240.000         203.000
 00  4 20 21 29 30.0000000  0  6G17G30G 5G 6G24G10
  22624486.957    -3937636.85349  -3049331.88146  22624485.275    22624502.775
       227.000         179.000
  20776349.250     -281562.00549   -216879.32847  20776349.463    20776361.729
       242.000         206.000
  22068442.182     2237671.35549   1737002.46846  22068442.335    22068459.741
       227.000         180.000
  21169016.224    -3523384.58149  -2521684.20247  21169016.155    21169027.773
       240.000         203.000
  23104740.156     1839125.55049   1425865.03646  23104740.291    23104754.944
       220.000         164.000
  21040533.029     -116224.94549    -87689.13647  21040532.243    21040544.591
       240.000         203.000
 00  4 20 21 30  0.0000000  0  6G17G30G 5G 6G24G10
  22612552.037    -4000354.32749  -3098202.40946  22612551.227    22612566.956
       227.000         179.000
  20782953.807     -246854.78949   -189834.80447  20782954.280    20782966.244
       241.000         206.000
  22085750.921     2328628.54949   1807877.97446  22085751.392    22085768.992
       227.000         180.000
  21158744.920    -3577360.29149  -2563743.13747  21158744.666    21158756.807
       240.000         203.000
  23119038.801     1914265.57749   1484415.60646  23119038.473    23119053.206
       221.000         164.000
  21047936.696      -77318.27049    -57372.23147  21047936.067    21047948.311
       240.000         203.000
 00  4 20 21 30 30.0000000  0  6G17G30G 5G 6G24G10
  22600668.842    -4062799.68349  -3146860.89146  22600668.413    22600684.162
       227.000         180.000
  20789686.510     -211474.35949   -162265.69947  20789687.079    20789699.000
       241.000         206.000
  22103127.430     2419942.06249   1879031.12446  22103127.753    22103145.139
       227.000         180.000
  21148523.141    -3631075.78049  -2605599.30547  21148522.852    21148534.475
       240.000         204.000
  23133352.571     1989484.53149   1543027.69046  23133352.243    23133367.499
       220.000         165.000
  21055459.345      -37786.09849    -26567.93047  21055458.729    21055470.928
       239.000         203.000
 00  4 20 21 31  0.0000000  0  6G17G30G 5G 6G24G10
  22588833.755    -4124992.46049  -3195322.56146  22588832.547    22588849.101
       228.000         180.000
  20796539.552     -175461.29949   -134203.63547  20796540.095    20796552.334
       241.000         206.000
  22120569.093     2511597.70549   1950450.87346  22120569.918    22120587.112
       227.000         179.000
  21138346.776    -3684552.52249  -2647269.43447  21138346.607    21138358.459
       240.000         204.000
  23147679.497     2064772.83749   1601693.80246  23147679.895    23147694.698
       220.000         164.000
  21063096.463        2347.38549      4704.92247  21063095.972    21063108.171
       240.000         203.000
 00  4 20 21 31 30.0000000  0  6G17G30G 5G 6G24G10
  22577044.765    -4186943.11149  -3243595.56146  22577043.598    22577060.006
       226.000         180.000
  20803505.318     -138856.22949   -105680.27247  20803506.282    20803518.201
       241.000         206.000
  22138071.056     2603570.32949   2022117.60446  22138071.232    22138088.645
       227.000         179.000
  21128210.607    -3737818.08749  -2688775.00547  21128210.624    21128222.238
       240.000         204.000
  23162014.497     2140103.53349   1660392.95146  23162014.651    23162029.865
       220.000         165.000
  21070841.319       43046.74349     36418.71947  21070840.481    21070853.045
       240.000         203.000
 00  4 20 21 32  0.0000000  0  6G17G30G 5G 6G24G10
  22565299.818    -4248661.98249  -3291687.96146  22565298.659    22565315.210
       227.000         180.000
  20810572.265     -101719.30549    -76742.46847  20810572.720    20810584.951
       241.000         206.000
  22155626.736     2695825.22649   2094004.28846  22155627.019    22155644.342
       227.000         179.000
  21118109.229    -3790900.91949  -2730138.18647  21118109.177    21118120.803
       240.000         204.000
  23176349.424     2215433.49149   1719091.51646  23176350.157    23176364.388
       221.000         165.000
  21078687.657       84279.79049     68548.37447  21078687.069    21078699.295
       240.000         202.000
 00  4 20 21 32 30.0000000  0  6G17G30G 5G 6G24G10
  22553594.724    -4310171.95149  -3339617.58346  22553594.102    22553609.597
       227.000         181.000
  20817734.151      -64083.56249    -47415.98447  20817734.792    20817746.935
       241.000         206.000
  22173229.415     2788326.86249   2166083.23846  22173229.752    22173246.842
       227.000         179.000
  21108039.414    -3843817.76149  -2771372.02147  21108039.418    21108051.144
       240.000         204.000
  23190677.857     2290729.30449   1777763.47646  23190678.467    23190693.389
       221.000         165.000
  21086631.569      126025.45649    101077.47247  21086631.029    21086643.204
       240.000         202.000
 00  4 20 21 33  0.0000000  0  7G17G30G 5G 6G24G10G13
  22541927.401    -4371483.12849  -3387392.29746  22541926.419    22541943.030
       228.000         181.000
  20824991.383      -25946.62949    -17698.95647  20824992.078    20825004.015
       241.000         206.000
  22190874.884     2881053.61749   2238337.59046  22190874.757    22190892.539
       226.000         178.000
  21098000.965    -3896570.03449  -2812477.62147  21098000.868    21098012.483
       240.000         205.000
  23204997.122     2365976.82649   1836397.80846  23204997.904    23205012.392
       221.000         165.000
  21094674.929      168293.54249    134013.64447  21094674.401    21094686.675
       239.000         202.000
  24889592.068    -3888040.72249  -3015297.33545  24889590.395    24889609.359
       198.000         134.000
 00  4 20 21 33 30.0000000  0  7G17G30G 5G 6G24G10G13
  22530287.654    -4432649.59349  -3435054.26446  22530286.947    22530302.400
       228.000         181.000
  20832334.675       12642.22949     12370.21847  20832335.194    20832347.570
       241.000         206.000
  22208550.106     2973936.61049   2310713.69146  22208550.311    22208567.788
       225.000         178.000
  21087983.119    -3949214.05449  -2853498.86747  21087983.243    21087994.734
       240.000         205.000
  23219293.812     2441106.09749   1894939.99846  23219293.747    23219309.082
       219.000         164.000
  21102804.453      211014.49049    167302.70047  21102803.873    21102815.915
       239.000         202.000
  24886889.535    -3902240.33349  -3026361.78645  24886889.805    24886905.952
       196.000         133.000
 00  4 20 21 34  0.0000000  0  7G17G30G 5G 6G24G10G13
  22518697.594    -4493554.83449  -3482512.67846  22518696.551    22518712.047
       228.000         181.000
  20839788.246       51810.72949     42891.06247  20839789.174    20839801.177
       241.000         206.000
  22226278.754     3067100.26049   2383308.48846  22226278.627    22226296.256
       226.000         178.000
  21078009.003    -4001628.07949  -2894340.89747  21078008.968    21078020.549
       240.000         205.000
  23233591.233     2516239.27649   1953485.22646  23233591.719    23233607.033
       218.000         164.000
  21111042.731      254306.91749    201037.05947  21111042.110    21111054.270
       240.000         202.000
  24884276.533    -3915970.99349  -3037060.79245  24884276.364    24884293.348
       198.000         133.000
 00  4 20 21 34 30.0000000  0  7G17G30G 5G 6G24G10G13
  22507153.963    -4554216.34149  -3529781.17446  22507152.952    22507168.226
       228.000         181.000
  20847352.542       91560.86749     73865.13047  20847353.238    20847365.335
       241.000         205.000
  22244059.116     3160535.46149   2456114.87746  22244059.408    22244077.221
       226.000         178.000
  21068075.292    -4053829.84049  -2935017.52647  21068075.345    21068086.679
       241.000         205.000
  23247891.535     2591387.65049   2012042.28946  23247892.509    23247906.794
       220.000         164.000
  21119387.616      298159.47949    235207.89247  21119387.163    21119399.109
       240.000         202.000
  24881753.082    -3929231.11949  -3047393.17045  24881752.411    24881769.793
       198.000         133.000
 00  4 20 21 35  0.0000000  0  7G17G30G 5G 6G24G10G13
  22495654.311    -4614646.61549  -3576869.48846  22495653.693    22495668.677
       226.000         182.000
  20855023.308      131870.76449    105275.37447  20855023.967    20855036.067
       241.000         205.000
  22261887.759     3254224.63249   2529119.15146  22261888.096    22261906.433
       226.000         177.000
  21058178.850    -4105835.95149  -2975541.69647  21058178.656    21058190.261
       241.000         206.000
  23262195.170     2666553.03649   2070612.61446  23262195.577    23262211.039
       220.000         164.000
  21127833.988      342545.13949    269794.12547  21127833.455    21127845.525
       240.000         202.000
  24879320.474    -3942013.83349  -3057353.58145  24879321.964    24879337.314
       199.000         133.000
 00  4 20 21 35 30.0000000  0  7G17G30G 5G 6G24G10G13
  22484194.400    -4674868.14049  -3623795.14946  22484193.407    22484209.109
       226.000         182.000
  20862796.452      172718.40349    137104.63447  20862797.196    20862809.327
       241.000         205.000
  22279762.675     3348156.79149   2602312.77746  22279763.011    22279780.422
       225.000         177.000
  21048317.508    -4157657.53049  -3015922.08247  21048317.523    21048328.837
       241.000         206.000
  23276499.826     2741723.85449   2129187.17846  23276500.444    23276514.002
       220.000         163.000
  21136378.580      387447.19949    304782.74047  21136378.020    21136390.253
       240.000         202.000
  24876975.010    -3954339.10549  -3066957.50045  24876975.668    24876991.897
       200.000         133.000
 00  4 20 21 36  0.0000000  0  7G17G30G 5G 6G24G10G13
  22472770.808    -4734898.82249  -3670572.09846  22472769.066    22472785.329
       227.000         182.000
  20870670.426      214096.05749    169346.89647  20870671.215    20870683.231
       241.000         205.000
  22297684.329     3442334.49449   2675697.73146  22297684.784    22297702.427
       225.000         177.000
  21038490.943    -4209296.43749  -3056160.12247  21038490.986    21038502.328
       241.000         206.000
  23290804.653     2816895.79849   2187762.62246  23290804.382    23290819.381
       219.000         163.000
  21145023.383      432875.65149    340181.53647  21145022.565    21145034.700
       240.000         202.000
  24874715.654    -3966211.48449  -3076208.53545  24874716.402    24874733.817
       201.000         132.000
 00  4 20 21 36 30.0000000  0  7G17G30G 5G 6G24G10G13
  22461383.678    -4794737.90849  -3717199.75646  22461382.738    22461398.000
       227.000         182.000
  20878646.969      256012.67149    202009.13047  20878647.853    20878659.774
       241.000         205.000
  22315652.064     3536754.28649   2749271.32546  22315652.155    22315670.533
       225.000         176.000
  21028704.812    -4260722.84849  -3096232.58547  21028704.831    21028716.236
       241.000         206.000
  23305109.693     2892068.96249   2246339.00845  23305110.238    23305124.540
       219.000         161.000
  21153770.631      478842.89949    376000.17647  21153770.000    21153782.077
       239.000         201.000
  24872544.593    -3977619.86449  -3085098.03745  24872544.736    24872561.917
       199.000         132.000
 00  4 20 21 37  0.0000000  0  7G17G30G 5G 6G24G10G13
  22450035.438    -4854372.37749  -3763667.98646  22450034.664    22450050.128
       229.000         183.000
  20886728.023      298478.47149    235099.29747  20886728.669    20886740.590
       241.000         205.000
  22333666.805     3631421.45049   2823037.67546  22333667.254    22333685.338
       225.000         176.000
  21018964.190    -4311909.85149  -3136118.49247  21018964.094    21018975.382
       240.000         206.000
  23319413.982     2967238.03849   2304912.21945  23319414.086    23319429.037
       218.000         160.000
  21162622.974      525362.17349    412248.96147  21162622.571    21162634.453
       240.000         201.000
  24870464.741    -3988548.71549  -3093613.87245  24870464.476    24870481.100
       202.000         132.000
 00  4 20 21 37 30.0000000  0  7G17G30G 5G 6G24G10G13
  22438730.201    -4913781.12049  -3809960.34146  22438729.281    22438744.781
       229.000         183.000
  20894918.405      341518.94949    268637.26247  20894918.939    20894930.917
       241.000         205.000
  22351731.425     3726350.48749   2897008.07046  22351732.088    22351750.141
       224.000         176.000
  21009272.059    -4362841.92849  -3175805.76547  21009271.804    21009283.213
       240.000         206.000
  23333717.608     3042403.69049   2363482.75645  23333717.543    23333733.150
       216.000         160.000
  21171582.674      572445.77849    448937.48047  21171582.229    21171594.122
       239.000         201.000
  24868477.500    -3998992.14349  -3101751.42444  24868476.102    24868494.271
       198.000         131.000
 00  4 20 21 38  0.0000000  0  7G17G30G 5G 6G24G10G13
  22427470.579    -4972950.08849  -3856065.84646  22427469.706    22427484.969
       228.000         183.000
  20903218.276      385134.79849    302623.57347  20903219.053    20903230.959
       240.000         205.000
  22369846.456     3821544.62749   2971185.03546  22369847.017    22369865.172
       225.000         175.000
  20999629.166    -4413515.39849  -3215291.52347  20999629.159    20999640.362
       240.000         206.000
  23348023.704     3117582.47149   2422063.53245  23348023.670    23348039.126
       215.000         158.000
  21180647.536      620081.81549    486056.46847  21180647.293    21180659.048
       239.000         201.000
  24866584.031    -4008941.96849  -3109504.38044  24866583.303    24866599.581
       198.000         130.000
 00  4 20 21 38 30.0000000  0  7G17G30G 5G 6G24G10G13
  22416256.470    -5031879.88449  -3901985.00246  22416255.909    22416270.577
       229.000         184.000
  20911623.478      429303.98349    337041.05347  20911624.244    20911636.116
       241.000         205.000
  22388009.438     3916990.64349   3045558.28246  22388009.703    22388028.019
       225.000         175.000
  20990033.028    -4463943.29849  -3254585.93747  20990032.923    20990044.154
       240.000         206.000
  23362333.565     3192781.07749   2480659.74945  23362333.513    23362348.489
       216.000         158.000
  21189813.493      668249.21349    523589.49847  21189813.148    21189825.012
       240.000         201.000
  24864782.432    -4018407.71549  -3116880.16144  24864782.120    24864798.061
       197.000         131.000
 00  4 20 21 39  0.0000000  0  7G17G30G 5G 6G24G10G13
  22405084.868    -5090586.42549  -3947730.19446  22405084.053    22405099.432
       229.000         184.000
  20920129.266      474002.11849    371870.69747  20920129.955    20920142.414
       241.000         205.000
  22406219.040     4012681.47049   3120122.27646  22406219.427    22406238.226
       225.000         175.000
  20980475.490    -4514168.34149  -3293722.27747  20980475.269    20980486.773
       240.000         206.000
  23376644.775     3267986.66649   2539261.40745  23376645.305    23376660.509
       216.000         157.000
  21199076.952      716929.10149    561521.87247  21199076.375    21199088.034
       239.000         201.000
  24863070.744    -4027402.15149  -3123888.64745  24863070.814    24863087.142
       199.000         132.000
 00  4 20 21 39 30.0000000  0  7G17G30G 5G 6G24G10G13
  22393950.419    -5149097.78449  -3993323.29446  22393949.611    22393964.956
       229.000         184.000
  20928731.267      519205.45949    407094.00747  20928731.960    20928744.031
       240.000         205.000
  22424474.209     4108612.00749   3194873.05846  22424474.509    22424493.231
       224.000         174.000
  20970954.136    -4564203.16949  -3332710.40147  20970953.891    20970965.173
       240.000         206.000
  23390956.859     3343196.67349   2597866.51345  23390956.858    23390972.125
       215.000         156.000
  21208434.447      766103.10549    599839.27347  21208434.067    21208445.906
       239.000         201.000
  24861445.513    -4035942.99749  -3130543.69544  24861446.149    24861461.460
       197.000         131.000
 00  4 20 21 40  0.0000000  0  7G17G30G 5G 6G24G10G13
  22382849.723    -5207431.48749  -4038777.96846  22382849.406    22382863.676
       229.000         184.000
  20937425.092      564891.70149    442693.60847  20937425.552    20937437.970
       241.000         204.000
  22442773.688     4204775.39249   3269805.27846  22442773.841    22442793.077
       225.000         174.000
  20961468.989    -4614047.50449  -3371550.09347  20961468.997    20961480.223
       241.000         207.000
  23405268.514     3418404.56349   2656469.96045  23405268.800    23405284.833
       216.000         156.000
  21217885.959      815771.28349    638541.73847  21217885.414    21217897.339
       240.000         200.000
  24859904.943    -4044037.02649  -3136850.58645  24859905.246    24859919.299
       198.000         132.000
 00  4 20 21 40 30.0000000  0  7G17G30G 5G 6G24G10G13
  22371783.996    -5265581.80249  -4084089.73746  22371783.137    22371797.623
       229.000         184.000
  20946213.045      611072.34849    478678.45647  20946213.728    20946225.858
       240.000         204.000
  22461115.451     4301160.72749   3344910.44846  22461115.443    22461134.515
       223.000         173.000
  20952022.894    -4663687.03649  -3410230.19347  20952022.806    20952033.978
       241.000         207.000
  23419576.875     3493595.00449   2715059.82245  23419577.474    23419593.039
       215.000         156.000
  21227433.295      865942.66249    677636.31747  21227432.664    21227444.672
       239.000         200.000
  24858450.140    -4051682.03949  -3142807.61345  24858449.424    24858465.847
       198.000         132.000
 00  4 20 21 41  0.0000000  0  7G17G30G 5G 6G24G10G13
  22360756.303    -5323532.21749  -4129245.74546  22360756.081    22360770.396
       228.000         184.000
  20955097.631      657760.77849    515058.97547  20955098.257    20955110.535
       240.000         204.000
  22479500.192     4397772.18549   3420191.80946  22479500.546    22479519.230
       223.000         173.000
  20942619.076    -4713104.37949  -3448737.16247  20942619.037    20942630.282
       241.000         207.000
  23433880.128     3568759.10949   2773629.14945  23433880.722    23433895.412
       214.000         155.000
  21237078.454      916628.08349    717131.44947  21237078.097    21237089.823
       239.000         200.000
  24857083.578    -4058863.07549  -3148403.07545  24857083.719    24857098.982
       201.000         133.000
 00  4 20 21 41 30.0000000  0  8G17G30G26G 5G 6G24G10G13
  22349769.470    -5381267.81549  -4174234.35646  22349768.627    22349783.574
       229.000         185.000
  20964081.882      704972.98349    551847.62747  20964082.528    20964095.011
       240.000         204.000
  24302319.187    -6429109.29449  -4736024.36245  24302318.105    24302346.630
       212.000         143.000
  22497927.671     4494608.04349   3495648.01446  22497928.578    22497946.830
       223.000         173.000
  20933261.267    -4762279.77249  -3487055.59647  20933261.165    20933272.507
       241.000         207.000
  23448178.498     3643896.96749   2832178.02045  23448178.484    23448194.712
       214.000         154.000
  21246821.070      967825.85549    757025.81847  21246820.422    21246832.480
       239.000         200.000
  24855806.708    -4065573.35249  -3153631.70045  24855808.462    24855822.578
       200.000         132.000
 00  4 20 21 42  0.0000000  0  8G17G30G26G 5G 6G24G10G13
  22338824.847    -5438781.69449  -4219050.20846  22338824.014    22338838.717
       230.000         185.000
  20973169.400      752727.94249    589059.20447  20973170.076    20973182.208
       240.000         204.000
  24285733.807    -6516264.13049  -4803936.71245  24285732.507    24285760.683
       212.000         144.000
  22516394.494     4591650.52849   3571265.23746  22516395.524    22516413.140
       224.000         172.000
  20923948.041    -4811221.17949  -3525191.70247  20923948.022    20923959.161
       241.000         207.000
  23462469.075     3718994.07449   2890695.14045  23462468.661    23462484.106
       215.000         154.000
  21256661.020     1019535.06149    797318.70747  21256659.971    21256672.353
       239.000         200.000
  24854620.761    -4071804.71649  -3158487.16045  24854619.335    24854636.501
       199.000         132.000
 00  4 20 21 42 30.0000000  0  8G17G30G26G 5G 6G24G10G13
  22327925.425    -5496057.80349  -4263680.77446  22327924.100    22327939.554
       230.000         185.000
  20982363.854      801044.47949    626708.37047  20982364.411    20982376.874
       240.000         204.000
  24269152.583    -6603396.78249  -4871831.79345  24269151.046    24269179.313
       212.000         145.000
  22534902.983     4688911.91349   3647053.02346  22534902.672    22534922.586
       223.000         171.000
  20914681.488    -4859917.16749  -3563136.57347  20914681.437    20914692.715
       241.000         208.000
  23476756.022     3794071.86949   2949197.20245  23476755.960    23476771.808
       214.000         153.000
  21266600.540     1071767.52749    838019.33347  21266599.679    21266611.724
       239.000         200.000
  24853531.516    -4077527.77249  -3162946.53544  24853531.448    24853548.324
       198.000         131.000
 00  4 20 21 43  0.0000000  0  8G17G30G26G 5G 6G24G10G13
  22317069.215    -5553107.02349  -4308134.54046  22317068.375    22317083.573
       230.000         185.000
  20991665.098      849922.59549    664795.13247  20991666.042    20991678.173
       240.000         204.000
  24252574.306    -6690514.43749  -4939715.19045  24252572.973    24252601.335
       208.000         146.000
  22553454.386     4786398.79749   3723016.52146  22553454.548    22553473.216
       223.000         171.000
  20905459.267    -4908380.08449  -3600899.82847  20905459.042    20905470.338
       241.000         208.000
  23491038.864     3869128.12649   3007682.49745  23491039.482    23491054.693
       215.000         152.000
  21276638.919     1124519.57749    879124.83447  21276638.350    21276650.273
       238.000         200.000
  24852540.365    -4082735.90849  -3167004.69645  24852540.544    24852555.675
       204.000         132.000
 00  4 20 21 43 30.0000000  0  8G17G30G26G 5G 6G24G10G13
  22306254.304    -5609939.23649  -4352419.21446  22306253.722    22306268.464
       230.000         186.000
  21001075.941      899376.25549    703330.37047  21001076.497    21001088.819
       241.000         204.000
  24235997.358    -6777624.92149  -5007592.98845  24235996.759    24236023.620
       209.000         146.000
  22572048.020     4884107.72149   3799153.03546  22572048.276    22572066.771
       221.000         171.000
  20896281.574    -4956608.95949  -3638480.71347  20896281.465    20896292.510
       241.000         208.000
  23505320.626     3944178.60649   3066163.29045  23505321.505    23505335.154
       214.000         152.000
  21286775.574     1177787.96549    920632.67647  21286774.902    21286786.898
       239.000         199.000
  24851648.066    -4087424.64949  -3170658.13445  24851648.752    24851664.155
       197.000         132.000
 00  4 20 21 44  0.0000000  0  8G17G30G26G 5G 6G24G10G13
  22295481.135    -5666551.95949  -4396532.85646  22295480.470    22295495.025
       230.000         186.000
  21010594.193      949394.70949    742305.69947  21010594.698    21010607.367
       241.000         204.000
  24219421.571    -6864729.02849  -5075465.80645  24219420.454    24219448.283
       209.000         146.000
  22590683.914     4982038.65549   3875462.55746  22590684.275    22590703.473
       222.000         170.000
  20887150.999    -5004590.24449  -3675868.67247  20887150.746    20887162.205
       241.000         208.000
  23519603.382     4019234.60249   3124648.37445  23519602.658    23519618.655
       215.000         153.000
  21297011.203     1231576.54449    962545.86047  21297010.446    21297022.664
       239.000         199.000
  24850855.986    -4091585.84849  -3173900.48345  24850855.830    24850871.406
       202.000         132.000
 00  4 20 21 44 30.0000000  0  8G17G30G26G 5G 6G24G10G13
  22284750.958    -5722938.81349  -4440470.49646  22284750.418    22284764.615
       230.000         186.000
  21020215.494      999954.65649    781702.98547  21020215.997    21020228.406
       240.000         204.000
  24202844.718    -6951838.39149  -5143342.70845  24202843.580    24202871.462
       210.000         145.000
  22609362.335     5080193.16049   3951946.28046  22609361.795    22609381.915
       222.000         170.000
  20878068.088    -5052321.09049  -3713061.48047  20878068.084    20878078.965
       241.000         208.000
  23533886.604     4094292.83849   3183135.21145  23533887.109    23533901.944
       214.000         152.000
  21307344.092     1285876.25049   1004857.32747  21307343.453    21307355.454
       239.000         199.000
  24850161.586    -4095235.44849  -3176744.18344  24850161.841    24850177.195
       198.000         131.000
 00  4 20 21 45  0.0000000  0  8G17G30G26G 5G 6G24G10G13
  22274063.554    -5779100.90549  -4484233.00346  22274062.997    22274077.117
       230.000         186.000
  21029940.300     1051058.51949    821524.09947  21029940.725    21029953.291
       240.000         203.000
  24186268.688    -7038943.86149  -5211216.56945  24186267.425    24186294.718
       207.000         144.000
  22628081.614     5178562.39949   4028597.31146  22628081.315    22628100.828
       223.000         170.000
  20869033.004    -5099800.69749  -3750058.52147  20869032.639    20869043.791
       241.000         208.000
  23548167.825     4169340.73749   3241614.00345  23548168.112    23548183.488
       215.000         153.000
  21317773.789     1340684.56049   1047565.10047  21317773.323    21317785.266
       239.000         199.000
  24849561.274    -4098389.31249  -3179201.55245  24849559.528    24849577.510
       201.000         132.000
 00  4 20 21 45 30.0000000  0  8G17G30G26G 5G 6G24G10G13
  22263418.991    -5835037.83349  -4527820.05146  22263417.966    22263432.657
       231.000         186.000
  21039765.657     1102690.99449    861757.11447  21039766.243    21039778.666
       240.000         203.000
  24169693.355    -7126045.29249  -5279087.25345  24169692.050    24169719.009
       207.000         145.000
  22646841.277     5277143.97849   4105413.82446  22646841.608    22646861.376
       222.000         169.000
  20860048.556    -5147014.09549  -3786848.12547  20860048.429    20860059.564
       241.000         208.000
  23562449.270     4244390.05049   3300093.88945  23562449.176    23562464.008
       215.000         153.000
  21328299.649     1395998.25849   1090666.68047  21328298.976    21328310.886
       239.000         199.000
  24849053.794    -4101054.96949  -3181278.56045  24849054.258    24849068.720
       200.000         133.000
 00  4 20 21 46  0.0000000  0  8G17G30G26G 5G 6G24G10G13
  22252817.756    -5890747.31649  -4571229.86246  22252816.676    22252831.364
       231.000         187.000
  21049688.607     1154836.22449    902389.66547  21049689.103    21049701.766
       240.000         203.000
  24153121.710    -7213127.25849  -5346942.75645  24153120.483    24153147.720
       207.000         143.000
  22665640.285     5375932.31749   4182391.44546  22665639.914    22665660.747
       222.000         168.000
  20851114.738    -5193961.20449  -3823430.23147  20851114.824    20851125.748
       241.000         208.000
  23576729.763     4319434.35149   3358569.88245  23576729.340    23576745.032
       216.000         153.000
  21338923.759     1451828.29449   1134170.59847  21338923.051    21338935.038
       238.000         199.000
  24848638.243    -4103238.81049  -3182980.13145  24848638.805    24848653.056
       200.000         132.000
 00  4 20 21 46 30.0000000  0  8G17G30G26G 5G 6G24G10G13
  22242259.084    -5946232.60449  -4614464.97146  22242258.135    22242272.546
       231.000         187.000
  21059710.442     1207501.14049    943427.17147  21059711.165    21059723.432
       240.000         203.000
  24136555.605    -7300180.32449  -5414775.72145  24136555.001    24136581.154
       204.000         143.000
  22684478.497     5474926.47549   4259529.43346  22684479.052    22684498.887
       223.000         168.000
  20842229.796    -5240651.70549  -3859812.38447  20842229.635    20842240.654
       241.000         208.000
  23591009.335     4394473.49949   3417041.83945  23591009.594    23591025.320
       216.000         153.000
  21349648.328     1508186.16149   1178085.80747  21349647.826    21349659.496
       238.000         199.000
  24848315.127    -4104936.06849  -3184302.57444  24848313.441    24848331.316
       199.000         131.000
 00  4 20 21 47  0.0000000  0  8G17G30G26G 5G 6G24G10G13
  22231742.467    -6001496.88649  -4657527.87246  22231741.296    22231755.700
       231.000         187.000
  21069832.870     1260694.52849    984876.47147  21069833.448    21069845.895
       240.000         203.000
  24119999.535    -7387181.09349  -5482567.94845  24119999.082    24120024.876
       205.000         142.000
  22703356.335     5574129.11549   4336829.87646  22703356.563    22703375.761
       222.000         168.000
  20833394.944    -5287078.99249  -3895989.43647  20833394.571    20833405.939
       241.000         208.000
  23605290.447     4469520.84849   3475520.21145  23605291.227    23605307.004
       215.000         154.000
  21360475.450     1565083.07749   1222421.05747  21360474.831    21360487.020
       238.000         198.000
  24848087.753    -4106129.89249  -3185232.72344  24848087.337    24848104.257
       199.000         131.000
 00  4 20 21 47 30.0000000  0  9G17G30G26G 5G 6G24G23G10G13
  22221267.518    -6056542.39049  -4700420.30046  22221266.367    22221281.066
       231.000         187.000
  21080052.267     1314397.42249   1026722.79947  21080053.043    21080065.484
       240.000         203.000
  24103452.710    -7474133.56649  -5550322.53545  24103450.778    24103478.284
       204.000         143.000
  22722271.919     5673529.92149   4414284.73046  22722272.388    22722291.240
       221.000         168.000
  20824608.656    -5333250.80449  -3931967.42047  20824608.344    20824619.410
       242.000         208.000
  23619572.006     4544570.59549   3534000.44145  23619572.230    23619587.503
       217.000         154.000
  24577405.739    -5047025.85949  -3907349.76645  24577404.697    24577436.205
       208.000         136.000
  21371402.888     1622507.28449   1267167.17247  21371402.296    21371414.464
       238.000         198.000
  24847956.552    -4106818.84149  -3185769.44144  24847955.159    24847972.336
       198.000         131.000
 00  4 20 21 48  0.0000000  0  9G17G30G26G 5G 6G24G23G10G13
  22210832.677    -6111377.06349  -4743148.45747  22210831.881    22210846.121
       231.000         188.000
  21090366.431     1368598.27449   1068957.14647  21090366.983    21090379.653
       240.000         203.000
  24086911.757    -7561054.15949  -5618052.27645  24086910.659    24086936.587
       201.000         142.000
  22741221.058     5773107.22649   4491877.09946  22741221.520    22741240.414
       222.000         167.000
  20815866.450    -5379191.07949  -3967764.97947  20815866.306    20815877.332
       241.000         208.000
  23633847.719     4619589.43249   3592456.57445  23633848.587    23633862.590
       215.000         154.000
  24557196.309    -5153224.30949  -3990101.08145  24557194.188    24557226.976
       209.000         138.000
  21382426.968     1680439.32849   1312309.00547  21382426.414    21382438.305
       238.000         198.000
  24847919.757    -4107010.94049  -3185918.99844  24847917.924    24847935.985
       199.000         131.000
 00  4 20 21 48 30.0000000  0  9G17G30G26G 5G 6G24G23G10G13
  22200439.416    -6165993.45249  -4785706.50947  22200438.436    22200453.086
       232.000         188.000
  21100774.567     1423293.18949   1111576.48347  21100774.967    21100787.958
       240.000         203.000
  24070375.834    -7647948.91149  -5685761.86945  24070375.096    24070400.578
       202.000         141.000
  22760204.780     5872866.00649   4569610.89446  22760205.398    22760224.989
       220.000         167.000
  20807171.036    -5424885.78349  -4003371.18647  20807170.795    20807182.031
       242.000         209.000
  23648116.222     4694570.66749   3650883.40945  23648116.460    23648132.630
       214.000         154.000
  24537003.017    -5259337.99149  -4072786.33245  24537000.918    24537033.071
       207.000         139.000
  21393543.057     1738854.72749   1357827.47547  21393542.479    21393554.249
       237.000         198.000
  24847976.872    -4106710.61449  -3185684.86744  24847977.163    24847991.986
       201.000         130.000
 00  4 20 21 49  0.0000000  0  9G17G30G26G 5G 6G24G23G10G13
  22190088.660    -6220386.26949  -4828090.35947  22190087.982    22190101.892
       231.000         188.000
  21111275.355     1478475.12949   1154575.31247  21111275.798    21111288.403
       240.000         203.000
  24053845.884    -7734811.99249  -5753446.79945  24053843.401    24053871.474
       200.000         141.000
  22779223.172     5972806.99749   4647486.65646  22779223.692    22779242.561
       221.000         166.000
  20798526.282    -5470314.03549  -4038769.77447  20798526.340    20798537.266
       241.000         209.000
  23662379.092     4769522.38449   3709287.24745  23662379.476    23662395.590
       215.000         154.000
  24516817.448    -5365411.21349  -4155440.07045  24516815.502    24516847.912
       206.000         139.000
  21404747.444     1797734.07649   1403707.46547  21404746.802    21404759.099
       238.000         197.000
  24848127.756    -4105917.91949  -3185067.05544  24848127.659    24848142.095
       197.000         131.000
 00  4 20 21 49 30.0000000  0  9G17G30G26G 5G 6G24G23G10G13
  22179781.146    -6274551.86349  -4870297.15747  22179780.068    22179794.838
       232.000         188.000
  21121868.338     1534141.39149   1197951.53347  21121868.814    21121881.694
       240.000         203.000
  24037321.180    -7821646.84649  -5821109.72945  24037320.219    24037346.406
       200.000         139.000
  22798273.887     6072917.97149   4725494.87446  22798274.003    22798294.122
       221.000         166.000
  20789933.440    -5515469.48749  -4073955.78947  20789933.269    20789944.388
       242.000         209.000
  23676637.197     4844448.59449   3767671.20245  23676638.294    23676652.763
       215.000         154.000
  24496638.114    -5471451.15249  -4238067.86945  24496634.913    24496668.174
       204.000         140.000
  21416038.675     1857069.90049   1449943.14847  21416038.005    21416050.016
       238.000         197.000
  24848371.609    -4104635.40649  -3184067.59744  24848370.071    24848387.879
       199.000         130.000
 00  4 20 21 50  0.0000000  0  9G17G30G26G 5G 6G24G23G10G13
  22169515.537    -6328497.41749  -4912332.48947  22169514.604    22169528.613
       231.000         188.000
  21132553.677     1590292.95849   1241705.90847  21132554.287    21132567.313
       240.000         202.000
  24020803.826    -7908443.85949  -5888743.19045  24020802.285    24020827.692
       201.000         139.000
  22817355.781     6173192.37449   4803630.43246  22817356.393    22817376.333
       220.000         165.000
  20781393.468    -5560347.19149  -4108925.37347  20781393.411    20781404.255
       241.000         209.000
  23690894.628     4919371.32049   3826052.43745  23690895.524    23690911.027
       215.000         154.000
  24476466.547    -5577450.57549  -4320664.11545  24476464.156    24476495.914
       203.000         140.000
  21427416.211     1916859.13849   1496532.14747  21427415.549    21427427.383
       237.000         197.000
  24848708.119    -4102866.76949  -3182689.34444  24848708.207    24848722.532
       195.000         130.000
 00  4 20 21 50 30.0000000  0  9G17G30G26G 5G 6G24G23G10G13
  22159290.362    -6382230.61349  -4954202.34147  22159289.583    22159303.612
       232.000         188.000
  21143330.388     1646924.45249   1285834.25047  21143331.196    21143343.786
       239.000         202.000
  24004296.332    -7995189.51449  -5956336.62045  24004295.022    24004320.533
       201.000         139.000
  22836466.540     6273618.61849   4881884.30446  22836467.203    22836486.860
       221.000         165.000
  20772906.363    -5604947.03549  -4143678.44747  20772906.166    20772917.140
       242.000         209.000
  23705153.853     4994303.47649   3884441.01745  23705154.613    23705169.979
       216.000         154.000
  24456305.636    -5683393.62649  -4403216.43345  24456302.904    24456335.448
       203.000         140.000
  21438879.771     1977100.45249   1543473.41247  21438878.953    21438891.205
       238.000         197.000
  24849135.342    -4100621.48249  -3180939.66944  24849135.531    24849152.509
       200.000         130.000
 00  4 20 21 51  0.0000000  0  9G17G30G26G 5G 6G24G23G10G13
  22149104.341    -6435757.68549  -4995911.59247  22149103.415    22149117.240
       232.000         188.000
  21154198.867     1704038.16249   1330338.34447  21154199.482    21154212.152
       239.000         202.000
  23987799.784    -8081877.24949  -6023884.94245  23987798.762    23987824.361
       200.000         139.000
  22855604.101     6374185.98349   4960248.14646  22855604.484    22855624.864
       220.000         165.000
  20764467.055    -5649295.78949  -4178235.86747  20764466.799    20764477.819
       242.000         210.000
  23719414.074     5069241.07149   3942833.83145  23719414.151    23719429.228
       217.000         153.000
  24436163.794    -5789237.02349  -4485691.09445  24436161.767    24436193.295
       205.000         140.000
  21450430.676     2037800.92249   1590772.45747  21450429.956    21450442.202
       237.000         197.000
  24849654.204    -4097893.87449  -3178814.12544  24849653.393    24849668.621
       197.000         130.000
 00  4 20 21 51 30.0000000  0  9G17G30G26G 5G 6G24G23G10G13
  22138955.949    -6489087.28649  -5037466.97447  22138954.691    22138969.285
       232.000         189.000
  21165158.274     1761629.68149   1375214.75547  21165158.755    21165171.553
       240.000         202.000
  23971311.987    -8168519.14949  -6091397.55745  23971310.837    23971336.504
       203.000         139.000
  22874766.677     6474884.68749   5038714.32246  22874767.548    22874787.140
       220.000         165.000
  20756070.991    -5693417.29849  -4212616.21147  20756070.901    20756081.744
       242.000         210.000
  23733672.184     5144167.21349   4001217.72945  23733672.760    23733688.047
       217.000         154.000
  24416046.431    -5894952.07749  -4568065.75445  24416044.584    24416076.823
       204.000         140.000
  21462069.666     2098964.15249   1638432.09947  21462069.069    21462081.341
       237.000         196.000
  24850264.162    -4094688.53549  -3176316.34044  24850264.730    24850280.109
       201.000         131.000
 00  4 20 21 52  0.0000000  0  9G17G30G26G 5G 6G24G23G10G13
  22128845.140    -6542219.55049  -5078868.59247  22128844.070    22128858.561
       232.000         189.000
  21176208.203     1819697.24249   1420462.10947  21176208.836    21176221.736
       240.000         202.000
  23954831.190    -8255123.90449  -6158881.24445  23954830.406    23954855.264
       203.000         140.000
  22893958.348     6575736.21849   5117299.57646  22893959.212    22893979.593
       221.000         165.000
  20747716.749    -5737318.98149  -4246825.26447  20747716.525    20747727.578
       242.000         210.000
  23747922.677     5219053.50749   4059570.56245  23747923.065    23747938.181
       215.000         154.000
  24395953.342    -6000539.26649  -4650340.78445  24395951.085    24395982.378
       202.000         140.000
  21473794.115     2160576.26449   1686441.52047  21473793.802    21473805.419
       236.000         196.000
  24850965.793    -4091002.22549  -3173443.79445  24850965.614    24850981.856
       201.000         132.000
 00  4 20 21 52 30.0000000  0  9G17G30G26G 5G 6G24G23G10G13
  22118773.183    -6595147.54049  -5120111.03547  22118772.572    22118786.278
       232.000         189.000
  21187348.339     1878238.54049   1466078.60247  21187349.093    21187361.563
       240.000         202.000
  23938356.123    -8341698.32549  -6226341.29645  23938355.311    23938380.555
       205.000         142.000
  22913181.904     6676755.06149   5196015.20646  22913182.384    22913201.866
       221.000         165.000
  20739403.727    -5781003.86149  -4280865.39047  20739403.700    20739414.348
       242.000         210.000
  23762159.240     5293866.69549   4117866.42845  23762159.999    23762175.035
       217.000         155.000
  24375883.779    -6106002.43549  -4732519.14545  24375881.388    24375912.930
       203.000         139.000
  21485603.683     2222635.81949   1734799.59147  21485603.166    21485615.106
       236.000         196.000
  24851761.950    -4086818.44749  -3170183.60445  24851761.414    24851777.693
       204.000         133.000
 00  4 20 21 53  0.0000000  0  9G17G30G26G 5G 6G24G23G10G13
  22108738.975    -6647877.01149  -5161198.79047  22108738.129    22108751.664
       232.000         190.000
  21198577.294     1937246.84949   1512059.00847  21198577.940    21198590.569
       240.000         202.000
  23921886.155    -8428246.80249  -6293781.14945  23921885.763    23921909.942
       207.000         143.000
  22932439.142     6777951.05949   5274868.86946  22932439.612    22932459.779
       222.000         166.000
  20731133.911    -5824462.00449  -4314728.83147  20731133.865    20731144.701
       242.000         210.000
  23776381.923     5368606.65049   4176105.23245  23776382.513    23776397.747
       216.000         155.000
  24355833.980    -6211361.99149  -4814616.78245  24355832.318    24355862.932
       198.000         138.000
  21497497.525     2285138.41849   1783502.90847  21497496.953    21497509.051
       236.000         195.000
  24852656.005    -4082120.00749  -3166522.34745  24852655.545    24852670.828
       201.000         134.000
 00  4 20 21 53 30.0000000  0  9G17G30G26G 5G 6G24G23G10G13
  22098742.412    -6700408.72949  -5202132.45547  22098741.280    22098755.842
       233.000         190.000
  21209896.336     1996728.36949   1558408.14247  21209897.084    21209909.869
       240.000         201.000
  23905420.472    -8514772.82349  -6361203.49545  23905419.932    23905444.367
       209.000         144.000
  22951731.683     6879332.66149   5353867.16246  22951731.827    22951753.296
       220.000         166.000
  20722912.282    -5867666.83549  -4348394.89147  20722912.386    20722923.121
       242.000         210.000
  23790592.927     5443285.65249   4234296.55445  23790592.885    23790609.647
       214.000         154.000
  24335799.421    -6316641.01849  -4896651.65545  24335796.619    24335828.291
       199.000         136.000
  21509477.145     2348091.73149   1832557.42247  21509476.599    21509488.781
       236.000         195.000
  24853647.158    -4076910.80049  -3162463.10645  24853646.479    24853663.129
       202.000         134.000
 00  4 20 21 54  0.0000000  0  9G17G30G26G 5G 6G24G23G10G13
  22088785.543    -6752731.86549  -5242903.58747  22088784.962    22088798.699
       232.000         190.000
  21221308.329     2056698.30949   1605137.86447  21221308.983    21221321.682
       240.000         201.000
  23888963.284    -8601254.18649  -6428591.05445  23888961.956    23888987.294
       208.000         144.000
  22971061.189     6980908.54849   5433016.83946  22971061.545    22971082.369
       221.000         166.000
  20714744.648    -5910587.78049  -4381839.74047  20714744.541    20714755.375
       242.000         210.000
  23804795.815     5517921.74949   4292454.44045  23804795.463    23804812.465
       213.000         154.000
  24315779.529    -6421843.61049  -4978626.95745  24315776.418    24315807.841
       198.000         135.000
  21521544.418     2411505.58949   1881970.80847  21521543.755    21521555.951
       236.000         195.000
  24854737.671    -4071180.12149  -3157997.48745  24854738.143    24854752.492
       203.000         134.000
 00  4 20 21 54 30.0000000  0  9G17G30G26G 5G 6G24G23G10G13
  22078868.587    -6804845.00449  -5283511.09147  22078867.948    22078881.177
       232.000         190.000
  21232815.075     2117166.05949   1652255.48647  21232815.768    21232828.570
       239.000         201.000
  23872520.476    -8687659.47949  -6495919.33445  23872518.879    23872543.404
       210.000         145.000
  22990424.530     7082662.00249   5512304.87546  22990424.750    22990445.519
       219.000         165.000
  20706634.335    -5953207.44649  -4415049.82447  20706634.195    20706645.156
       242.000         210.000
  23818997.887     5592553.88549   4350609.23445  23818998.191    23819013.972
       213.000         153.000
  24295776.406    -6526957.79449  -5060533.35445  24295774.206    24295805.209
       199.000         135.000
  21533705.197     2475410.66349   1931766.95447  21533704.656    21533716.884
       235.000         195.000
  24855927.291    -4064927.29449  -3153125.00645  24855926.100    24855941.972
       200.000         135.000
 00  4 20 21 55  0.0000000  0  9G17G30G26G 5G 6G24G23G10G13
  22068992.565    -6856743.28249  -5323951.17547  22068991.705    22069005.953
       232.000         191.000
  21244419.386     2178146.66249   1699772.73347  21244420.044    21244432.874
       240.000         201.000
  23856096.546    -8773965.92649  -6563170.59845  23856096.098    23856119.696
       210.000         143.000
  23009820.119     7184585.34449   5591725.27446  23009821.202    23009841.299
       218.000         165.000
  20698584.800    -5995507.92649  -4448011.19047  20698584.648    20698595.498
       242.000         210.000
  23833204.407     5667209.21649   4408782.10145  23833204.786    23833221.171
       212.000         152.000
  24275793.445    -6631966.36749  -5142357.44645  24275790.520    24275821.385
       199.000         136.000
  21545962.660     2539823.89949   1981959.07047  21545962.061    21545973.829
       235.000         195.000
  24857213.192    -4058169.65749  -3147859.18345  24857211.790    24857227.707
       201.000         134.000
 00  4 20 21 55 30.0000000  0  9G17G30G26G 5G 6G24G23G10G13
  22059160.982    -6908408.07849  -5364209.32247  22059160.161    22059174.024
       233.000         191.000
  21256127.063     2239670.43649   1747713.22447  21256127.749    21256140.656
       240.000         201.000
  23839695.388    -8860152.51349  -6630328.47045  23839694.393    23839719.424
       210.000         142.000
  23029247.612     7286676.08249   5671276.11946  23029247.963    23029268.893
       218.000         165.000
  20690596.681    -6037485.64949  -4480721.06247  20690596.648    20690607.400
       242.000         210.000
  23847416.598     5741894.35549   4466978.18745  23847416.897    23847433.250
       211.000         152.000
  24255836.220    -6736839.49949  -5224076.01045  24255834.625    24255863.319
       204.000         137.000
  21558318.409     2604753.71449   2032553.71447  21558317.797    21558330.079
       235.000         195.000
  24858594.541    -4050908.86949  -3142201.27945  24858594.523    24858609.874
       202.000         134.000
 00  4 20 21 56  0.0000000  0  9G17G30G26G 5G 6G24G23G10G13
  22049376.066    -6959827.60249  -5404276.34547  22049375.625    22049388.915
       233.000         191.000
  21267936.924     2301731.27349   1796072.21047  21267937.383    21267950.572
       239.000         200.000
  23823320.341    -8946201.99949  -6697379.50645  23823319.189    23823343.035
       211.000         142.000
  23048705.011     7388923.85749   5750949.32346  23048705.633    23048726.249
       218.000         164.000
  20682669.511    -6079143.11349  -4513181.37847  20682669.416    20682680.049
       242.000         210.000
  23861633.839     5816606.15449   4525195.06445  23861633.565    23861650.058
       210.000         151.000
  24235908.071    -6841559.35249  -5305675.11745  24235904.962    24235935.853
       199.000         138.000
  21570769.456     2670184.41649   2083538.66047  21570768.718    21570781.019
       235.000         194.000
  24860075.304    -4043127.84049  -3136137.99345  24860074.568    24860090.264
       204.000         136.000
 00  4 20 21 56 30.0000000  0  9G17G30G26G 5G 6G24G23G10G13
  22039637.976    -7011001.09949  -5444151.66347  22039637.017    22039650.962
       233.000         191.000
  21279843.700     2364301.57949   1844828.18247  21279844.270    21279857.394
       239.000         200.000
  23806968.417    -9032130.03849  -6764335.92445  23806967.250    23806992.272
       211.000         142.000
  23068189.983     7491316.75349   5830735.60546  23068190.674    23068210.992
       218.000         164.000
  20674800.115    -6120497.00549  -4545405.14647  20674800.074    20674810.843
       242.000         210.000
  23875852.469     5891325.08849   4583417.48345  23875853.021    23875868.993
       210.000         151.000
  24216010.789    -6946116.59849  -5387147.51745  24216008.336    24216037.899
       202.000         138.000
  21583312.060     2736096.15649   2134898.43947  21583311.105    21583323.620
       235.000         194.000
  24861651.955    -4034840.39249  -3129680.12445  24861653.485    24861666.805
       203.000         137.000
 00  4 20 21 57  0.0000000  0  9G17G30G26G 5G 6G24G23G10G13
  22029945.191    -7061936.54949  -5483841.49047  22029944.277    22029958.279
       233.000         191.000
  21291843.261     2427359.37449   1893964.01247  21291844.063    21291856.791
       239.000         200.000
  23790635.911    -9117955.89749  -6831212.71645  23790634.946    23790658.809
       213.000         143.000
  23087699.869     7593840.47149   5910623.82446  23087700.448    23087721.270
       217.000         163.000
  20666986.528    -6161557.48149  -4577400.27847  20666986.553    20666997.168
       242.000         210.000
  23890065.959     5966017.20249   4641619.00845  23890066.631    23890083.131
       210.000         150.000
  24196144.297    -7050512.61649  -5468494.29045  24196142.559    24196171.856
       202.000         139.000
  21595939.286     2802452.57549   2186604.72347  21595938.573    21595950.859
       235.000         194.000
  24863326.138    -4026041.40249  -3122823.66245  24863327.257    24863341.566
       204.000         136.000
 00  4 20 21 57 30.0000000  0  9G17G30G26G 5G 6G24G23G10G13
  22020295.559    -7112645.11049  -5523354.52447  22020294.977    22020308.587
       233.000         192.000
  21303930.306     2490876.82849   1943458.01447  21303931.305    21303943.810
       240.000         200.000
  23774319.371    -9203698.08349  -6898024.30545  23774318.052    23774341.501
       212.000         143.000
  23107233.329     7696488.49949   5990608.91746  23107234.385    23107254.580
       217.000         163.000
  20659226.496    -6202336.53949  -4609176.12747  20659226.365    20659237.062
       242.000         210.000
  23904268.363     6040650.72149   4699774.88045  23904268.789    23904284.878
       210.000         150.000
  24176306.108    -7154759.76649  -5549725.06145  24176304.273    24176333.105
       206.000         140.000
  21608644.864     2869220.77149   2238631.86847  21608644.377    21608656.461
       235.000         194.000
  24865100.585    -4016719.47749  -3115559.70945  24865100.889    24865115.227
       204.000         135.000
 00  4 20 21 58  0.0000000  0  9G17G30G26G 5G 6G24G23G10G13
  22010686.100    -7163142.77049  -5562703.22347  22010685.400    22010698.998
       233.000         192.000
  21316096.096     2554807.91749   1993274.33047  21316096.643    21316109.735
       239.000         200.000
  23758016.721    -9289367.06049  -6964778.84645  23758015.938    23758039.965
       211.000         144.000
  23126790.992     7799263.23549   6070692.72345  23126791.825    23126813.065
       216.000         162.000
  20651519.208    -6242838.45649  -4640736.02547  20651519.331    20651529.957
       242.000         211.000
  23918455.863     6115206.36449   4757870.06345  23918455.838    23918472.007
       209.000         149.000
  24156494.464    -7258867.53849  -5630847.23645  24156492.698    24156521.844
       207.000         141.000
  21621426.832     2936390.47849   2290971.87547  21621426.208    21621438.354
       235.000         193.000
  24866970.997    -4006888.38149  -3107899.01745  24866969.465    24866986.032
       201.000         134.000
 00  4 20 21 58 30.0000000  0  9G17G30G26G 5G 6G24G23G10G13
  22001113.003    -7213449.08649  -5601902.82447  22001112.307    22001125.887
       233.000         192.000
  21328338.098     2619139.65349   2043402.83847  21328338.758    21328351.860
       239.000         200.000
  23741728.801    -9374958.44249  -7031472.92045  23741727.464    23741751.627
       212.000         144.000
  23146373.465     7902168.46249   6150878.22145  23146373.879    23146396.607
       216.000         161.000
  20643863.604    -6283068.81549  -4672084.31947  20643863.321    20643874.118
       242.000         211.000
  23932628.221     6189682.31249   4815903.13845  23932628.316    23932644.567
       209.000         148.000
  24136707.931    -7362843.81649  -5711866.93445  24136705.946    24136736.017
       209.000         142.000
  21634284.770     3003959.30349   2343622.88647  21634284.097    21634295.973
       235.000         193.000
  24868936.565    -3996559.10149  -3099850.12545  24868935.474    24868950.008
       203.000         133.000
 00  4 20 21 59  0.0000000  0  9G17G30G26G 5G 6G24G23G10G13
  21991574.351    -7263574.70549  -5640961.61947  21991573.570    21991587.624
       233.000         192.000
  21340659.792     2683889.97249   2093857.51147  21340660.648    21340673.495
       239.000         199.000
  23725459.506    -9460451.61549  -7098090.45645  23725457.847    23725482.183
       212.000         144.000
  23165981.342     8005206.97449   6231167.56145  23165981.625    23166004.277
       216.000         159.000
  20636262.257    -6323013.69949  -4703210.16647  20636262.113    20636272.963
       242.000         211.000
  23946788.924     6264097.22849   4873888.65545  23946789.463    23946805.934
       207.000         147.000
  24116942.524    -7466708.67349  -5792799.82645  24116940.360    24116969.021
       210.000         142.000
  21647218.983     3071928.79749   2396586.10447  21647218.283    21647230.830
       235.000         193.000
  24870997.862    -3985727.67749  -3091409.89545  24870996.937    24871014.667
       202.000         134.000
 00  4 20 21 59 30.0000000  0  9G17G30G26G 5G 6G24G23G10G13
  21982072.366    -7313507.50049  -5679870.15047  21982071.648    21982085.418
       234.000         193.000
  21353062.873     2749068.17749   2144645.60047  21353063.692    21353077.181
       239.000         199.000
  23709210.681    -9545838.14149  -7164624.90745  23709209.276    23709233.258
       212.000         145.000
  23185616.125     8108386.93849   6311567.12545  23185617.131    23185638.413
       215.000         158.000
  20628717.322    -6362662.63749  -4734105.40047  20628717.356    20628728.046
       242.000         211.000
  23960945.515     6338490.23349   4931857.10945  23960946.082    23960962.483
       207.000         146.000
  24097198.285    -7570462.66949  -5873646.33045  24097195.908    24097224.829
       211.000         143.000
  21660233.400     3140319.70649   2449877.70547  21660232.903    21660245.021
       235.000         193.000
  24873151.858    -3974406.42649  -3082588.00945  24873151.815    24873166.086
       200.000         133.000
 00  4 20 22  0  0.0000000  0  9G17G30G26G 5G 6G24G23G10G13
  21972608.369    -7363240.63849  -5718623.11447  21972607.680    21972620.719
       234.000         193.000
  21365548.564     2814680.38449   2195771.86647  21365549.208    21365561.936
       238.000         199.000
  23692983.138    -9631112.90949  -7231072.25745  23692981.570    23693005.455
       211.000         145.000
  23205275.261     8211694.99049   6392066.49045  23205276.112    23205297.789
       213.000         156.000
  20621230.372    -6402006.72349  -4764763.09647  20621230.219    20621241.058
       243.000         211.000
  23975103.764     6412891.55449   4989832.03245  23975103.601    23975120.309
       207.000         145.000
  24077477.195    -7674094.95249  -5954397.99645  24077475.680    24077504.028
       211.000         142.000
  21673329.620     3209140.78749   2503504.49747  21673328.827    21673341.137
       234.000         193.000
  24875399.001    -3962597.14749  -3073385.85645  24875398.040    24875413.185
       196.000         135.000
 00  4 20 22  0 30.0000000  0  9G17G30G26G 5G 6G24G23G10G13
  21963184.060    -7412765.15449  -5757213.52447  21963183.494    21963196.782
       234.000         193.000
  21378120.626     2880746.37349   2247251.73047  21378121.365    21378134.286
       239.000         199.000
  23676774.934    -9716285.54549  -7297440.04745  23676774.340    23676796.716
       211.000         144.000
  23224954.556     8315108.57149   6472648.08045  23224954.249    23224976.467
       212.000         155.000
  20613802.005    -6441042.94349  -4795180.89347  20613801.962    20613812.678
       242.000         211.000
  23989265.269     6487310.42349   5047820.63945  23989265.497    23989281.982
       208.000         144.000
  24057778.368    -7777610.02849  -6035058.34145  24057775.359    24057804.067
       210.000         143.000
  21686507.315     3278389.93849   2557464.84647  21686506.834    21686519.010
       234.000         192.000
  24877739.299    -3950297.27849  -3063801.42145  24877739.269    24877754.358
       202.000         135.000
 00  4 20 22  1  0.0000000  0  9G17G30G26G 5G 6G24G23G10G13
  21953801.972    -7462068.06149  -5795631.23747  21953800.890    21953814.872
       233.000         193.000
  21390779.776     2947270.13449   2299088.29847  21390780.371    21390793.581
       239.000         199.000
  23660584.436    -9801364.97549  -7363735.19045  23660583.179    23660605.733
       209.000         144.000
  23244652.127     8418618.40449   6553304.66845  23244652.982    23244673.971
       214.000         154.000
  20606433.516    -6479764.66149  -4825353.62347  20606433.363    20606444.018
       242.000         211.000
  24003429.442     6561743.37549   5105820.22445  24003429.372    24003446.503
       206.000         144.000
  24038104.774    -7880992.58649  -6115615.42445  24038101.659    24038130.929
       212.000         142.000
  21699767.854     3348074.45549   2611764.44147  21699767.044    21699779.517
       234.000         192.000
  24880172.892    -3937507.48749  -3053835.26045  24880173.195    24880186.466
       200.000         135.000
 00  4 20 22  1 30.0000000  0  9G17G30G26G 5G 6G24G23G10G13
  21944462.496    -7511146.72849  -5833874.23547  21944461.725    21944475.124
       234.000         193.000
  21403524.463     3014243.37149   2351275.10847  21403525.178    21403538.425
       239.000         198.000
  23644409.697    -9886361.76549  -7429965.96045  23644408.597    23644431.107
       209.000         144.000
  23264368.118     8522224.80749   6634036.50445  23264368.113    23264390.799
       214.000         152.000
  20599122.608    -6518183.55149  -4855290.38047  20599122.354    20599133.060
       242.000         211.000
  24017591.309     6636163.49049   5163809.79045  24017592.377    24017607.996
       207.000         145.000
  24018461.629    -7984215.00349  -6196047.75045  24018459.317    24018487.671
       212.000         142.000
  21713110.015     3418187.78749   2666398.18347  21713109.397    21713121.546
       234.000         192.000
  24882701.085    -3924221.77749  -3043482.65245  24882702.184    24882716.710
       204.000         135.000
 00  4 20 22  2  0.0000000  0  9G17G30G26G 5G 6G24G23G10G13
  21935164.473    -7560008.00749  -5871947.83847  21935163.752    21935176.836
       234.000         194.000
  21416355.191     3081668.65149   2403814.15847  21416355.755    21416369.081
       239.000         198.000
  23628252.854    -9971264.60949  -7496123.50745  23628252.121    23628274.533
       209.000         145.000
  23284103.665     8625933.84949   6714848.32045  23284103.630    23284126.407
       213.000         152.000
  20591867.788    -6556307.71749  -4884997.48647  20591867.797    20591878.582
       243.000         211.000
  24031744.340     6710537.34149   5221763.30545  24031744.050    24031761.019
       208.000         144.000
  23998850.142    -8087271.44449  -6276350.72245  23998848.153    23998876.147
       211.000         142.000
  21726529.307     3488706.47949   2721347.78447  21726528.617    21726540.859
       234.000         191.000
  24885324.617    -3910435.01049  -3032739.62145  24885324.498    24885339.160
       200.000         134.000
 00  4 20 22  2 30.0000000  0  9G17G30G26G 5G 6G24G23G10G13
  21925907.276    -7608654.35549  -5909853.97447  21925906.581    21925919.755
       234.000         194.000
  21429271.503     3149543.83749   2456703.77747  21429272.283    21429285.470
       239.000         198.000
  23612118.612   -10056048.29949  -7562188.20545  23612117.022    23612140.557
       209.000         145.000
  23303860.047     8729752.64149   6795745.64845  23303860.733    23303882.739
       213.000         152.000
  20584669.322    -6594135.90149  -4914473.95647  20584669.300    20584679.962
       243.000         211.000
  24045885.971     6784851.53349   5279670.34645  24045886.909    24045904.219
       206.000         143.000
  23979268.913    -8190169.10249  -6356529.99245  23979266.549    23979293.614
       211.000         143.000
  21740025.614     3559629.95549   2776612.79847  21740025.064    21740037.040
       234.000         191.000
  24888042.510    -3896150.48349  -3021608.72545  24888041.907    24888057.930
       201.000         134.000
 00  4 20 22  3  0.0000000  0  9G17G30G26G 5G 6G24G23G10G13
  21916688.716    -7657098.04149  -5947602.18847  21916687.723    21916701.128
       234.000         194.000
  21442273.302     3217868.05549   2509943.29347  21442274.162    21442287.451
       239.000         198.000
  23596011.898   -10140687.77049  -7628140.52245  23596011.871    23596033.531
       209.000         146.000
  23323639.381     8833691.84949   6876736.79245  23323640.050    23323662.117
       213.000         151.000
  20577527.804    -6631664.96849  -4943717.34847  20577527.464    20577538.085
       243.000         212.000
  24060016.938     6859109.66049   5337533.71745  24060016.967    24060033.205
       210.000         143.000
  23959721.112    -8292890.92349  -6436572.24545  23959718.852    23959746.430
       210.000         143.000
  21753599.189     3630959.26049   2832194.05247  21753598.467    21753610.643
       234.000         191.000
  24890859.514    -3881348.83849  -3010074.92145  24890860.256    24890874.335
       200.000         134.000
 00  4 20 22  3 30.0000000  0  9G17G30G26G 5G 6G24G23G10G13
  21907508.053    -7705342.29149  -5985194.98847  21907507.238    21907520.415
       234.000         194.000
  21455361.575     3286646.84749   2563537.02047  21455361.872    21455375.451
       239.000         198.000
  23579935.748   -10225166.86349  -7693967.87245  23579934.001    23579956.635
       206.000         146.000
  23343439.575     8937740.83049   6957813.46645  23343440.412    23343462.726
       212.000         151.000
  20570443.400    -6668893.70549  -4972726.71047  20570443.248    20570453.729
       242.000         212.000
  24074139.149     6933321.48149   5395360.99645  24074138.900    24074155.351
       208.000         142.000
  23940204.855    -8395446.21249  -6516484.73645  23940202.782    23940230.557
       210.000         144.000
  21767249.720     3702693.09349   2888090.51747  21767248.827    21767261.346
       233.000         190.000
  24893775.729    -3866023.78549  -2998133.23245  24893775.078    24893789.572
       203.000         135.000
 00  4 20 22  4  0.0000000  0  9G17G30G26G 5G 6G24G23G10G13
  21898366.210    -7753382.58049  -6022628.86347  21898365.097    21898378.610
       234.000         194.000
  21468535.046     3355873.15849   2617479.46747  21468535.502    21468548.984
       238.000         198.000
  23563892.772   -10309470.62449  -7759658.59445  23563891.507    23563914.027
       210.000         147.000
  23363259.047     9041890.93649   7038968.94245  23363260.052    23363282.929
       213.000         151.000
  20563416.186    -6705821.85249  -5001501.85647  20563415.993    20563426.607
       243.000         212.000
  24088257.380     7007512.88949   5453172.36945  24088257.716    24088273.570
       208.000         144.000
  23920718.152    -8497846.20449  -6596276.21745  23920715.703    23920743.136
       208.000         143.000
  21780980.359     3774847.84849   2944314.97147  21780979.712    21780991.716
       234.000         190.000
  24896791.853    -3850173.41349  -2985782.19345  24896792.040    24896806.210
       205.000         136.000
 00  4 20 22  4 30.0000000  0  9G17G30G26G 5G 6G24G23G10G13
  21889260.875    -7801231.00849  -6059913.23247  21889260.071    21889273.246
       235.000         194.000
  21481791.590     3425536.38249   2671762.36247  21481791.845    21481805.512
       238.000         197.000
  23547880.116   -10393615.56349  -7825225.57345  23547878.573    23547901.309
       211.000         148.000
  23383093.636     9146120.18649   7120186.07145  23383094.381    23383117.296
       214.000         152.000
  20556444.995    -6742455.65549  -5030047.63947  20556445.069    20556455.398
       243.000         212.000
  24102373.736     7081694.04949   5510975.75645  24102373.804    24102390.054
       211.000         144.000
  23901260.673    -8600092.45849  -6675947.90045  23901259.143    23901285.614
       207.000         143.000
  21794792.668     3847431.87849   3000873.92147  21794791.840    21794803.664
       233.000         190.000
  24899909.405    -3833791.11149  -2973016.68945  24899909.521    24899924.612
       204.000         137.000
 00  4 20 22  5  0.0000000  0  9G17G30G26G 5G 6G24G23G10G13
  21880191.776    -7848889.06349  -6097049.25947  21880191.079    21880203.926
       235.000         195.000
  21495132.112     3495640.60149   2726388.89447  21495132.759    21495146.090
       238.000         197.000
  23531893.483   -10477624.06849  -7890686.23045  23531892.170    23531914.075
       209.000         149.000
  23402943.785     9250431.34149   7201467.04145  23402944.928    23402966.584
       215.000         153.000
  20549529.163    -6778798.66949  -5058366.83547  20549528.887    20549539.346
       243.000         212.000
  24116486.829     7155857.87949   5568765.63645  24116486.894    24116503.594
       212.000         143.000
  23881834.339    -8702175.95549  -6755492.75945  23881831.392    23881859.473
       205.000         144.000
  21808686.219     3920442.93749   3057765.62847  21808685.361    21808697.699
       234.000         189.000
  24903128.110    -3816876.44449  -2959836.34945  24903128.063    24903142.902
       203.000         138.000
 00  4 20 22  5 30.0000000  0  9G17G30G26G 5G 6G24G23G10G13
  21871160.521    -7896348.14949  -6134030.24947  21871159.711    21871172.553
       235.000         195.000
  21508555.466     3566180.22549   2781354.69447  21508556.326    21508569.811
       238.000         197.000
  23515931.227   -10561504.71749  -7956047.26545  23515930.200    23515951.339
       205.000         149.000
  23422809.435     9354824.03749   7282811.52045  23422810.376    23422832.654
       215.000         153.000
  20542668.391    -6814852.08449  -5086460.37647  20542668.197    20542678.783
       243.000         212.000
  24130594.237     7229992.39449   5626532.67845  24130594.227    24130610.962
       212.000         143.000
  23862435.387    -8804115.48349  -6834925.44745  23862432.482    23862459.838
       207.000         145.000
  21822659.575     3993873.12449   3114983.92147  21822658.838    21822670.605
       233.000         189.000
  24906443.826    -3799452.30649  -2946259.06445  24906443.708    24906459.171
       203.000         137.000
 00  4 20 22  6  0.0000000  0  9G17G30G26G 5G 6G24G23G10G13
  21862166.879    -7943609.60149  -6170857.23747  21862165.907    21862179.091
       235.000         195.000
  21522060.361     3637148.40649   2836654.44047  21522061.167    21522074.476
       238.000         197.000
  23499993.351   -10645256.83849  -8021308.13945  23499992.394    23500014.572
       207.000         150.000
  23442693.623     9459314.21249   7364231.97145  23442694.860    23442716.784
       215.000         153.000
  20535865.547    -6850601.27749  -5114316.85247  20535865.336    20535875.969
       243.000         212.000
  24144695.322     7304093.51749   5684273.70045  24144694.636    24144711.627
       212.000         143.000
  23843065.353    -8905902.89249  -6914239.60645  23843062.891    23843089.648
       209.000         147.000
  21836710.195     4067709.43349   3172518.67647  21836709.601    21836721.562
       233.000         189.000
  24909856.732    -3781516.93149  -2932283.42745  24909857.504    24909868.886
       204.000         136.000
 00  4 20 22  6 30.0000000  0  8G17G30G26G 5G 6G24G23G10
  21853208.931    -7990683.32949  -6207537.95947  21853208.379    21853221.409
       235.000         195.000
  21535644.362     3708532.46149   2892278.24047  21535644.913    21535658.721
       238.000         196.000
  23484078.018   -10728890.16849  -8086476.47445  23484076.472    23484098.912
       208.000         150.000
  23462594.693     9563893.37149   7445721.75745  23462595.713    23462618.139
       214.000         154.000
  20529122.288    -6886036.86549  -5141928.96947  20529122.134    20529132.478
       243.000         212.000
  24158785.332     7378136.48649   5741969.40345  24158785.601    24158801.982
       213.000         143.000
  23823723.054    -9007544.06549  -6993439.82945  23823720.342    23823746.690
       207.000         148.000
  21850833.163     4141926.12849   3230349.82847  21850832.733    21850844.506
       233.000         189.000
 00  4 20 22  7  0.0000000  0  8G17G30G26G 5G 6G24G23G10
  21844295.132    -8037525.00049  -6244037.85847  21844294.350    21844307.397
       235.000         196.000
  21549312.640     3780359.26749   2948247.03647  21549313.261    21549326.746
       237.000         196.000
  23468195.552   -10812350.84049  -8151510.25645  23468194.787    23468216.577
       210.000         151.000
  23482521.609     9668608.60449   7527317.56745  23482522.198    23482545.014
       213.000         154.000
  20522449.893    -6921100.25249  -5169251.05547  20522449.654    20522460.146
       242.000         212.000
  24172871.063     7452157.05449   5799647.65245  24172871.020    24172888.439
       211.000         143.000
  23804413.871    -9109011.53849  -7072504.71245  23804411.909    23804437.973
       209.000         149.000
  21865034.435     4216554.33949   3288501.64847  21865033.632    21865046.215
       232.000         189.000
 00  4 20 22  7 30.0000000  0  8G17G30G26G 5G 6G24G23G10
  21835425.566    -8084134.21549  -6280356.62047  21835424.720    21835438.194
       235.000         196.000
  21563064.018     3852622.81949   3004556.15947  21563064.681    21563078.443
       237.000         196.000
  23452349.524   -10895619.88049  -8216394.74145  23452348.027    23452370.925
       208.000         151.000
  23502472.930     9773451.66449   7609012.97345  23502473.446    23502496.135
       214.000         154.000
  20515851.231    -6955776.22749  -5196271.26347  20515851.102    20515861.575
       243.000         212.000
  24186956.945     7526178.34649   5857326.46845  24186956.468    24186973.928
       212.000         142.000
  23785138.445    -9210301.15949  -7151431.01045  23785135.943    23785162.690
       209.000         150.000
  21879313.861     4291593.33249   3346973.55647  21879313.137    21879325.498
       232.000         188.000
 00  4 20 22  8  0.0000000  0  8G17G30G26G 5G 6G24G23G10
  21826600.926    -8130507.62749  -6316491.64047  21826600.329    21826613.559
       235.000         196.000
  21576896.537     3925312.62249   3061197.41847  21576897.195    21576910.900
       238.000         195.000
  23436541.077   -10978691.96149  -8281125.76145  23436540.151    23436561.918
       211.000         152.000
  23522448.884     9878424.17049   7690809.24545  23522449.217    23522473.129
       214.000         154.000
  20509327.164    -6990060.06549  -5222985.90947  20509326.928    20509337.552
       242.000         212.000
  24201044.865     7600210.41849   5915013.66045  24201044.376    24201061.558
       212.000         142.000
  23765899.991    -9311397.48549  -7230206.69645  23765898.201    23765923.761
       208.000         151.000
  21893671.594     4367043.83449   3405766.11547  21893670.917    21893683.395
       232.000         188.000
 00  4 20 22  8 30.0000000  0  8G17G30G26G 5G 6G24G23G10
  21817819.760    -8176652.47149  -6352448.54947  21817819.138    21817831.927
       235.000         196.000
  21590806.732     3998410.85849   3118156.93847  21590807.355    21590821.313
       237.000         195.000
  23420766.432   -11061586.13649  -8345718.16045  23420765.521    23420787.091
       210.000         152.000
  23542447.009     9983513.43749   7772696.48045  23542448.072    23542471.442
       215.000         154.000
  20502874.493    -7023968.77049  -5249408.24247  20502874.375    20502885.100
       242.000         212.000
  24215133.166     7674244.53349   5972702.46845  24215132.433    24215148.622
       212.000         141.000
  23746697.763    -9412303.02749  -7308833.71545  23746695.655    23746721.176
       209.000         151.000
  21908108.541     4442910.34449   3464882.84247  21908107.902    21908120.422
       232.000         188.000
 00  4 20 22  9  0.0000000  0  8G17G30G26G 5G 6G24G23G10
  21809081.676    -8222570.93849  -6388229.06347  21809080.698    21809093.891
       235.000         196.000
  21604792.425     4071905.80549   3175425.57947  21604793.003    21604806.814
       237.000         195.000
  23405024.253   -11144310.07049  -8410177.90745  23405023.479    23405044.549
       211.000         152.000
  23562464.594    10088705.14549   7854663.55445  23562464.615    23562489.383
       212.000         154.000
  20496489.826    -7057520.21749  -5275552.19547  20496489.695    20496500.342
       242.000         212.000
  24229222.932     7748286.50049   6030397.38445  24229222.708    24229239.214
       213.000         140.000
  23727531.097    -9513021.73949  -7387315.15945  23727529.443    23727554.577
       211.000         152.000
  21922621.356     4519175.83549   3524310.46047  21922620.616    21922633.281
       232.000         188.000
 00  4 20 22  9 30.0000000  0  8G17G30G26G 5G 6G24G23G10
  21800385.241    -8268270.29049  -6423838.83947  21800384.438    21800397.514
       235.000         196.000
  21618850.764     4145782.45749   3232991.65247  21618851.381    21618865.482
       236.000         195.000
  23389309.148   -11226891.51549  -8474526.64445  23389308.059    23389329.558
       211.000         153.000
  23582495.544    10193966.73549   7936685.07045  23582496.058    23582520.157
       214.000         154.000
  20490162.886    -7090768.16249  -5301459.65047  20490162.815    20490173.442
       242.000         212.000
  24243307.726     7822302.39749   6088071.97045  24243307.857    24243326.495
       210.000         140.000
  23708399.777    -9613555.04649  -7465652.15945  23708398.157    23708423.279
       210.000         152.000
  21937204.174     4595808.95249   3584024.54146  21937203.360    21937215.922
       232.000         187.000
 00  4 20 22 10  0.0000000  0  8G17G30G26G 5G 6G24G23G10
  21791727.706    -8313765.21649  -6459289.32247  21791727.121    21791740.001
       236.000         197.000
  21632976.532     4220013.49049   3290833.86147  21632977.271    21632990.857
       237.000         195.000
  23373615.243   -11309361.82849  -8538788.78445  23373614.703    23373635.428
       211.000         153.000
  23602533.462    10299265.28449   8018735.39145  23602534.485    23602558.372
       212.000         154.000
  20483886.279    -7123751.74449  -5327161.11247  20483886.241    20483896.794
       242.000         212.000
  24257379.329     7896249.05749   6145692.63545  24257379.336    24257395.850
       209.000         139.000
  23689300.124    -9713922.00449  -7543859.53445  23689298.620    23689323.113
       210.000         152.000
  21951851.539     4672781.26049   3644002.92346  21951850.620    21951863.363
       231.000         187.000
 00  4 20 22 10 30.0000000  0  8G17G30G26G 5G 6G24G23G10
  21783104.694    -8359078.99649  -6494598.65547  21783104.401    21783117.083
       236.000         197.000
  21647169.348     4294596.74449   3348950.53547  21647169.686    21647184.143
       236.000         194.000
  23357941.151   -11391727.54249  -8602969.42145  23357940.145    23357961.455
       211.000         153.000
  23622571.640    10404564.55049   8100786.24345  23622571.924    23622596.645
       212.000         153.000
  20477657.766    -7156482.72749  -5352665.74447  20477657.932    20477668.255
       242.000         212.000
  24271435.069     7970112.12249   6203248.14145  24271435.585    24271450.760
       209.000         139.000
  23670228.288    -9814142.50149  -7621952.78245  23670225.734    23670251.826
       212.000         152.000
  21966558.820     4750068.48849   3704226.69946  21966558.378    21966570.662
       232.000         187.000
 00  4 20 22 11  0.0000000  0  8G17G30G26G 5G 6G24G23G10
  21774515.350    -8404215.89549  -6529770.15047  21774514.567    21774527.506
       235.000         197.000
  21661432.023     4369547.00949   3407353.18847  21661432.942    21661446.683
       236.000         194.000
  23342289.131   -11473978.00049  -8667060.25545  23342288.550    23342308.997
       212.000         154.000
  23642606.230    10509845.06749   8182822.50245  23642608.163    23642631.485
       213.000         153.000
  20471477.067    -7188962.43049  -5377974.57347  20471477.051    20471487.543
       243.000         212.000
  24285474.856     8043891.42149   6260738.39145  24285474.506    24285492.244
       208.000         140.000
  23651186.180    -9914207.25349  -7699924.66945  23651184.236    23651208.995
       212.000         153.000
  21981324.274     4827661.21349   3764688.52146  21981323.696    21981335.895
       231.000         187.000
 00  4 20 22 11 30.0000000  0  8G17G30G26G 5G 6G24G23G10
  21765956.324    -8449193.40949  -6564817.45047  21765955.792    21765968.585
       235.000         197.000
  21675766.469     4444874.40149   3466049.69647  21675767.518    21675781.005
       236.000         194.000
  23326662.260   -11556096.24849  -8731048.06545  23326661.059    23326682.420
       212.000         154.000
  23662637.319    10615107.03149   8264844.28045  23662638.047    23662662.674
       209.000         152.000
  20465348.516    -7221168.11149  -5403069.87947  20465348.394    20465358.931
       243.000         212.000
  24299497.989     8117582.89949   6318160.22445  24299498.767    24299515.821
       212.000         140.000
  23632175.228   -10014107.96449  -7777768.72745  23632173.647    23632198.598
       212.000         154.000
  21996152.984     4905586.49149   3825409.47646  21996152.151    21996164.893
       232.000         187.000
 00  4 20 22 12  0.0000000  0  8G17G30G26G 5G 6G24G23G10
  21757428.527    -8494006.82849  -6599736.89147  21757428.196    21757440.957
       236.000         197.000
  21690177.009     4520601.73049   3525057.85947  21690178.332    21690191.856
       235.000         194.000
  23311069.447   -11638035.05149  -8794896.05145  23311068.613    23311088.963
       211.000         155.000
  23682670.395    10720379.83049   8346874.50045  23682671.078    23682694.765
       211.000         151.000
  20459286.431    -7253024.28149  -5427892.83748  20459286.471    20459296.782
       243.000         213.000
  24313512.726     8191230.70949   6375548.01345  24313511.756    24313529.988
       209.000         140.000
  23613197.420   -10113834.44549  -7855477.03045  23613195.735    23613219.607
       213.000         155.000
  22011052.127     4983882.11449   3886419.00046  22011051.566    22011064.049
       231.000         186.000
 00  4 20 22 12 30.0000000  0  8G17G30G26G 5G 6G24G23G10
  21748937.212    -8538628.70149  -6634507.06347  21748936.545    21748949.700
       236.000         197.000
  21704669.042     4596757.22349   3584399.64647  21704669.700    21704684.090
       236.000         193.000
  23295520.326   -11719744.30149  -8858565.16045  23295519.607    23295539.846
       213.000         155.000
  23702713.447    10825705.04149   8428945.55745  23702713.733    23702739.617
       209.000         151.000
  20453298.635    -7284490.19649  -5452411.69947  20453298.476    20453308.963
       243.000         212.000
  24327527.314     8264877.37749   6432934.90145  24327529.092    24327543.571
       212.000         141.000
  23594260.278   -10213347.32349  -7933018.88145  23594258.235    23594282.756
       215.000         156.000
  22026026.641     5062573.58049   3947736.98346  22026026.289    22026038.620
       231.000         186.000
 00  4 20 22 13  0.0000000  0  8G17G30G26G 5G 6G24G23G10
  21740486.102    -8583039.26149  -6669112.57947  21740485.185    21740497.974
       236.000         197.000
  21719243.799     4673347.51249   3644080.23347  21719244.620    21719258.626
       235.000         193.000
  23280018.044   -11801207.46149  -8922042.52245  23280017.309    23280038.149
       213.000         155.000
  23722772.721    10931114.83349   8511082.51645  23722774.435    23722799.488
       209.000         150.000
  20447387.157    -7315555.01049  -5476618.01647  20447387.108    20447397.676
       243.000         212.000
  24341543.014     8338529.42249   6490325.98045  24341544.359    24341560.966
       210.000         141.000
  23575367.652   -10312626.33249  -8010378.51145  23575365.344    23575390.056
       214.000         156.000
  22041080.026     5141679.43649   4009377.86046  22041079.828    22041092.167
       231.000         186.000
 00  4 20 22 13 30.0000000  0  8G17G30G26G 5G 6G24G23G10
  21732078.591    -8627220.54549  -6703539.43547  21732077.955    21732090.546
       236.000         198.000
  21733901.196     4750372.08749   3704099.22047  21733902.283    21733916.392
       235.000         193.000
  23264567.126   -11882400.98349  -8985309.77545  23264566.516    23264586.802
       213.000         155.000
  23742852.985    11036635.14149   8593305.60145  23742852.405    23742879.482
       207.000         150.000
  20441553.210    -7346212.57349  -5500506.99647  20441553.387    20441563.647
       242.000         212.000
  24355558.087     8412178.80149   6547714.98545  24355557.708    24355574.884
       211.000         140.000
  23556516.360   -10411687.75049  -8087568.58445  23556514.814    23556538.278
       215.000         155.000
  22056211.647     5221196.47649   4071339.14046  22056211.013    22056223.596
       231.000         185.000
 00  4 20 22 14  0.0000000  0  8G17G30G26G 5G 6G24G23G10
  21723718.249    -8671154.01749  -6737773.18347  21723717.313    21723730.154
       236.000         198.000
  21748640.475     4827826.91649   3764453.46747  21748641.579    21748655.155
       235.000         192.000
  23249166.342   -11963330.47849  -9048371.28445  23249165.787    23249185.722
       214.000         156.000
  23762955.870    11142274.51049   8675621.45345  23762956.877    23762982.056
       209.000         149.000
  20435792.811    -7376483.52449  -5524094.71647  20435792.695    20435803.199
       243.000         212.000
  24369573.144     8485828.11449   6605103.94645  24369572.226    24369591.714
       208.000         140.000
  23537708.833   -10510519.36649  -8164579.58545  23537706.495    23537731.235
       214.000         156.000
  22071416.076     5301096.16549   4133598.58346  22071415.497    22071427.749
       230.000         185.000
 00  4 20 22 14 30.0000000  0  8G17G30G26G 5G 6G24G23G10
  21715401.413    -8714858.70449  -6771828.66747  21715400.711    21715413.283
       236.000         198.000
  21763457.565     4905690.55549   3825126.26647  21763458.251    21763472.564
       235.000         192.000
  23233809.657   -12044029.13249  -9111252.91745  23233808.739    23233829.289
       214.000         157.000
  23783077.375    11248011.65549   8758013.47645  23783078.018    23783104.329
       207.000         148.000
  20430096.142    -7406419.57549  -5547421.47647  20430096.129    20430106.622
       242.000         212.000
  24383583.152     8559450.56949   6662472.01145  24383583.686    24383600.009
       210.000         141.000
  23518944.048   -10609126.27849  -8241415.50845  23518941.765    23518966.019
       213.000         156.000
  22086688.950     5381355.40049   4196138.20146  22086688.424    22086701.032
       231.000         185.000
 00  4 20 22 15  0.0000000  0  8G17G30G26G 5G 6G24G23G10
  21707123.350    -8758359.71049  -6805725.43347  21707122.662    21707135.446
       236.000         198.000
  21778347.570     4983937.32649   3886097.61247  21778348.313    21778362.471
       235.000         192.000
  23218492.368   -12124520.85049  -9173973.30245  23218491.743    23218511.621
       215.000         158.000
  23803210.524    11353809.31449   8840452.66745  23803211.929    23803236.925
       207.000         147.000
  20424460.469    -7436035.13949  -5570498.50547  20424460.600    20424470.797
       242.000         212.000
  24397581.625     8633012.59349   6719792.96345  24397581.985    24397598.246
       208.000         141.000
  23500216.196   -10707539.21149  -8318100.27345  23500214.300    23500237.914
       214.000         156.000
  22102028.162     5461963.37849   4258949.55846  22102027.335    22102039.481
       230.000         185.000
 00  4 20 22 15 30.0000000  0  8G17G30G26G 5G 6G24G23G10
  21698882.304    -8801666.29149  -6839470.70047  21698881.667    21698894.185
       237.000         198.000
  21793304.693     5062536.80549   3947343.79147  21793305.469    21793319.866
       234.000         192.000
  23203213.439   -12204810.66249  -9236536.35445  23203212.790    23203232.296
       217.000         158.000
  23823350.590    11459643.95049   8922920.66245  23823352.047    23823376.992
       207.000         145.000
  20418884.570    -7465336.64549  -5593330.81647  20418884.460    20418894.930
       242.000         212.000
  24411568.672     8706514.60049   6777067.15345  24411568.023    24411586.519
       208.000         140.000
  23481525.926   -10805754.56449  -8394631.09145  23481524.429    23481547.387
       215.000         156.000
  22117431.543     5542908.61549   4322023.71746  22117431.331    22117443.007
       231.000         184.000
 00  4 20 22 16  0.0000000  0  8G17G30G26G 5G 6G24G23G10
  21690674.400    -8844798.84849  -6873080.36647  21690673.529    21690686.562
       237.000         198.000
  21808323.165     5141458.87449   4008841.33847  21808323.932    21808338.342
       235.000         191.000
  23187968.642   -12284921.15349  -9298959.66945  23187968.553    23187987.619
       218.000         159.000
  23843492.356    11565487.20949   9005395.35745  23843493.513    23843518.890
       209.000         145.000
  20413369.190    -7494319.92349  -5615915.15547  20413369.448    20413379.728
       242.000         212.000
  24425544.457     8779957.39049   6834295.18245  24425544.587    24425562.685
       207.000         140.000
  23462876.093   -10903757.31149  -8470996.24745  23462874.070    23462897.797
       213.000         155.000
  22132896.327     5624176.28149   4385349.13446  22132895.945    22132908.320
       230.000         184.000
 00  4 20 22 16 30.0000000  0  8G17G30G26G 5G 6G24G23G10
  21682499.773    -8887756.36049  -6906553.64547  21682499.058    21682511.534
       237.000         198.000
  21823401.687     5220696.41149   4070584.70247  21823402.053    21823416.798
       234.000         191.000
  23172759.331   -12364844.82449  -9361237.42045  23172757.804    23172778.322
       217.000         159.000
  23863634.143    11671330.81249   9087870.35845  23863635.189    23863660.726
       210.000         144.000
  20407917.919    -7522966.48349  -5638237.11947  20407918.082    20407928.384
       243.000         212.000
  24439507.551     8853333.10149   6891470.93545  24439506.672    24439525.188
       204.000         138.000
  23444264.817   -11001557.67349  -8547203.70145  23444262.385    23444285.691
       214.000         156.000
  22148423.056     5705769.55649   4448928.26046  22148422.436    22148434.837
       229.000         183.000
 00  4 20 22 17  0.0000000  0  8G17G30G26G 5G 6G24G23G10
  21674362.100    -8930519.76849  -6939875.67247  21674361.342    21674373.987
       238.000         198.000
  21838540.558     5300251.34349   4132575.38847  21838541.153    21838555.790
       234.000         191.000
  23157589.528   -12444560.90349  -9423353.42245  23157589.085    23157607.434
       218.000         159.000
  23883779.358    11777192.50849   9170359.42245  23883780.313    23883805.601
       210.000         145.000
  20402536.085    -7551248.12349  -5660274.72748  20402536.088    20402546.402
       243.000         213.000
  24453458.339     8926645.11349   6948597.06945  24453457.963    24453475.498
       204.000         137.000
  23425693.802   -11099146.51149  -8623246.33645  23425692.341    23425715.445
       215.000         156.000
  22164010.676     5787682.79349   4512756.71146  22164010.235    22164022.777
       230.000         183.000
 00  4 20 22 17 30.0000000  0  8G17G30G26G 5G 6G24G23G10
  21666263.527    -8973077.45749  -6973037.40447  21666262.628    21666275.046
       237.000         199.000
  21853743.649     5380143.31349   4194828.69647  21853744.348    21853759.022
       234.000         190.000
  23142460.321   -12524064.00449  -9485303.46845  23142459.369    23142478.538
       218.000         159.000
  23903931.879    11883092.22749   9252878.13645  23903932.752    23903958.727
       210.000         145.000
  20397224.782    -7579159.20549  -5682023.58948  20397224.725    20397235.121
       243.000         213.000
  24467401.026     8999913.74849   7005689.40645  24467399.842    24467418.375
       198.000         135.000
  23407165.695   -11196509.83649  -8699113.24845  23407163.758    23407186.550
       216.000         156.000
  22179657.762     5869908.48449   4576828.63446  22179657.213    22179669.641
       229.000         183.000
 00  4 20 22 18  0.0000000  0  8G17G30G26G 5G 6G24G23G10
  21658205.827    -9015420.44349  -7006031.83747  21658204.927    21658217.406
       237.000         199.000
  21869016.217     5460400.33749   4257366.46447  21869016.795    21869031.318
       233.000         190.000
  23127374.019   -12603341.15649  -9547077.43645  23127372.823    23127392.769
       219.000         159.000
  23924092.805    11989036.19749   9335431.32945  23924093.465    23924119.637
       212.000         145.000
  20391986.433    -7606686.77549  -5703473.61148  20391986.541    20391996.707
       243.000         213.000
  24481335.909     9073142.36749   7062750.53745  24481335.904    24481354.801
       200.000         134.000
  23388679.071   -11293654.94549  -8774810.13145  23388677.416    23388699.873
       214.000         156.000
  22195365.163     5952451.35849   4641147.71646  22195364.869    22195376.628
       229.000         182.000
 00  4 20 22 18 30.0000000  0  8G17G30G26G 5G 6G24G23G10
  21650190.415    -9057541.42149  -7038853.28247  21650189.766    21650202.291
       238.000         199.000
  21884361.614     5541040.53049   4320202.80647  21884362.391    21884377.169
       234.000         190.000
  23112334.423   -12682372.85049  -9608660.15945  23112334.034    23112352.806
       218.000         158.000
  23944261.151    12095019.12049   9418014.87945  23944262.062    23944287.738
       210.000         145.000
  20386818.995    -7633841.86649  -5724633.39448  20386818.959    20386829.394
       243.000         213.000
  24495265.685     9146344.04349   7119790.67645  24495266.090    24495285.005
       198.000         134.000
  23370233.250   -11390586.04349  -8850340.25345  23370231.006    23370254.555
       215.000         156.000
  22211136.736     6035331.43949   4705729.55646  22211135.991    22211148.610
       229.000         182.000
 00  4 20 22 19  0.0000000  0  8G17G30G26G 5G 6G24G23G10
  21642215.789    -9099447.93249  -7071507.61447  21642214.896    21642227.647
       238.000         199.000
  21899779.026     5622058.73249   4383333.69847  21899779.998    21899794.460
       234.000         190.000
  23097341.410   -12761159.91049  -9670052.25445  23097340.724    23097360.293
       216.000         157.000
  23964431.665    12201013.92949   9500607.68145  23964432.249    23964458.404
       209.000         144.000
  20381718.529    -7660644.93849  -5745518.87248  20381718.380    20381728.896
       243.000         213.000
  24509191.060     9219521.96049   7176812.30945  24509191.420    24509208.485
       199.000         134.000
  23351828.281   -11487302.43649  -8925703.07645  23351826.177    23351848.585
       215.000         156.000
  22226972.550     6118548.82349   4770574.22946  22226972.527    22226984.400
       228.000         182.000
 00  4 20 22 19 30.0000000  0  8G17G30G26G 5G 6G24G23G10
  21634279.659    -9141152.14549  -7104004.31547  21634279.180    21634291.678
       238.000         199.000
  21915264.898     5703436.94049   4446745.11147  21915265.717    21915280.109
       233.000         190.000
  23082392.082   -12839717.31849  -9731265.39945  23082390.823    23082410.296
       216.000         156.000
  23984596.330    12306977.95449   9583176.49445  23984597.699    23984623.396
       209.000         144.000
  20376680.694    -7687118.81549  -5766147.84048  20376680.638    20376691.043
       243.000         213.000
  24523109.826     9292664.73149   7233806.54045  24523110.664    24523127.597
       199.000         136.000
  23333462.060   -11583815.42149  -9000907.41645  23333460.142    23333482.918
       214.000         158.000
  22242870.700     6202094.14749   4835674.44246  22242870.161    22242882.779
       229.000         182.000
 00  4 20 22 20  0.0000000  0  8G17G30G26G 5G 6G24G23G10
  21626379.238    -9182668.76349  -7136354.84147  21626378.630    21626390.986
       238.000         199.000
  21930814.206     5785148.27749   4510416.09447  21930815.622    21930830.179
       234.000         190.000
  23067487.084   -12918041.83949  -9792297.08245  23067485.982    23067504.228
       216.000         156.000
  24004751.951    12412894.15949   9665708.05745  24004752.715    24004779.232
       212.000         144.000
  20371704.962    -7713266.09249  -5786522.31548  20371704.772    20371715.298
       243.000         213.000
  24537018.840     9365757.02049   7290761.41645  24537018.935    24537036.718
       200.000         137.000
  23315133.157   -11680131.90149  -9075958.63545  23315131.400    23315153.266
       216.000         159.000
  22258830.811     6285965.02349   4901028.32146  22258830.452    22258842.558
       229.000         182.000
 00  4 20 22 20 30.0000000  0  8G17G30G26G 5G 6G24G23G10
  21618512.051    -9224010.67549  -7168569.23047  21618511.566    21618523.849
       238.000         200.000
  21946422.760     5867171.13949   4574329.83047  21946423.687    21946438.228
       233.000         189.000
  23052624.239   -12996145.11349  -9853156.36645  23052623.351    23052642.576
       217.000         156.000
  24024897.585    12518757.86049   9748198.70645  24024898.919    24024925.563
       212.000         143.000
  20366792.212    -7739082.62249  -5806639.06548  20366792.133    20366802.475
       242.000         213.000
  24550919.423     9438804.34149   7347681.29945  24550921.301    24550937.164
       201.000         137.000
  23296841.662   -11776252.05649  -9150856.88645  23296839.863    23296861.764
       215.000         158.000
  22274852.389     6370158.58449   4966633.65846  22274851.421    22274864.483
       229.000         182.000
 00  4 20 22 21  0.0000000  0  8G17G30G26G 5G 6G24G23G10
  21610677.822    -9265179.57849  -7200648.80747  21610677.269    21610689.420
       238.000         200.000
  21962088.947     5949496.77249   4638479.47747  21962089.882    21962104.478
       233.000         189.000
  23037802.980   -13074029.74349  -9913845.28545  23037801.822    23037820.671
       217.000         156.000
  24045039.255    12624600.74249   9830673.11845  24045040.175    24045067.451
       209.000         142.000
  20361947.160    -7764543.46749  -5826478.66148  20361947.187    20361957.457
       243.000         213.000
  24564811.383     9511806.59549   7404566.05845  24564811.165    24564830.052
       201.000         136.000
  23278589.331   -11872166.51049  -9225594.85045  23278587.899    23278609.123
       215.000         159.000
  22290932.187     6454658.41849   5032477.63646  22290931.809    22290944.031
       229.000         181.000
 00  4 20 22 21 30.0000000  0  8G17G30G26G 5G 6G24G23G10
  21602877.385    -9306170.79149  -7232589.92847  21602876.939    21602889.093
       239.000         200.000
  21977814.914     6032136.61349   4702873.96347  21977815.405    21977830.453
       232.000         188.000
  23023027.404   -13151674.00849  -9974346.90545  23023026.760    23023044.905
       216.000         156.000
  24065184.197    12730460.91649   9913161.00845  24065185.389    24065212.100
       212.000         142.000
  20357177.205    -7789609.71349  -5846010.77648  20357177.010    20357187.426
       243.000         213.000
  24578697.317     9584777.11549   7461426.06945  24578696.443    24578715.673
       200.000         136.000
  23260379.372   -11967857.85049  -9300158.95445  23260377.816    23260399.841
       214.000         159.000
  22307070.896     6539467.61849   5098562.68146  22307070.716    22307082.841
       228.000         181.000
 00  4 20 22 22  0.0000000  0  8G17G30G26G 5G 6G24G23G10
  21595112.984    -9346972.75249  -7264383.58347  21595112.285    21595124.677
       238.000         200.000
  21993605.112     6115113.82849   4767531.33647  21993606.133    21993620.660
       232.000         188.000
  23008303.385   -13229047.14949 -10034637.27545  23008302.394    23008321.040
       217.000         156.000
  24085340.120    12836378.66349   9995693.76645  24085341.995    24085367.597
       211.000         141.000
  20352488.494    -7814248.80949  -5865210.05048  20352488.525    20352498.851
       243.000         213.000
  24592582.655     9657744.79149   7518283.84845  24592583.998    24592600.903
       198.000         135.000
  23242215.568   -12063307.21349  -9374534.50845  23242213.810    23242235.825
       216.000         160.000
  22323273.063     6624610.25649   5164907.54246  22323272.370    22323285.284
       228.000         181.000
 00  4 20 22 22 30.0000000  0  8G17G30G26G 5G 6G24G23G10
  21587388.761    -9387563.54949  -7296012.69147  21587388.282    21587400.597
       239.000         200.000
  22009462.784     6198445.50749   4832464.90847  22009463.715    22009478.646
       233.000         188.000
  22993634.047   -13306133.50249 -10094704.17045  22993633.069    22993651.736
       217.000         156.000
  24105509.026    12942364.38649  10078279.48545  24105508.794    24105537.410
       211.000         141.000
  20347882.916    -7838451.45649  -5884069.23048  20347882.844    20347893.278
       243.000         213.000
  24606470.147     9730723.42249   7575150.19245  24606470.985    24606488.582
       201.000         136.000
  23224100.853   -12158498.50049  -9448708.98445  23224099.151    23224120.348
       216.000         160.000
  22339538.073     6710082.98649   5231509.62246  22339538.180    22339550.154
       228.000         180.000
 00  4 20 22 23  0.0000000  0  7G17G30G26G 5G 6G23G10
  21579703.023    -9427951.95649  -7327484.09847  21579702.413    21579714.370
       238.000         200.000
  22025384.162     6282112.02649   4897659.39047  22025385.003    22025399.748
       233.000         188.000
  22979018.979   -13382934.53649 -10154548.74845  22979017.857    22979037.022
       216.000         157.000
  24125686.004    13048392.73349  10160898.41145  24125686.565    24125714.979
       209.000         142.000
  20343354.459    -7862248.58749  -5902612.42848  20343354.479    20343364.627
       242.000         213.000
  23206033.087   -12253442.92849  -9522691.10345  23206031.798    23206052.812
       217.000         162.000
  22355859.169     6795850.77849   5298341.62346  22355858.701    22355871.702
       228.000         180.000
 00  4 20 22 23 30.0000000  0  7G17G30G26G 5G 6G23G10
  21572058.616    -9468123.24749  -7358786.31847  21572058.125    21572070.076
       238.000         200.000
  22041371.683     6366126.21849   4963124.79346  22041372.665    22041387.698
       233.000         187.000
  22964461.400   -13459433.62449 -10214158.04545  22964460.535    22964478.673
       217.000         157.000
  24145867.831    13154446.62349  10243537.25745  24145868.443    24145897.325
       209.000         142.000
  20338902.217    -7885645.10249  -5920843.45548  20338902.141    20338912.237
       243.000         213.000
  23188012.323   -12348140.44549  -9596480.83145  23188010.464    23188031.975
       216.000         162.000
  22372238.821     6881926.46249   5365413.52546  22372237.922    22372250.927
       227.000         179.000
 00  4 20 22 24  0.0000000  0  7G17G30G26G 5G 6G23G10
  21564463.309    -9508036.67849  -7389887.61147  21564462.583    21564474.670
       238.000         201.000
  22057430.305     6450513.96349   5028881.27346  22057431.228    22057446.294
       232.000         187.000
  22949966.429   -13535603.80149 -10273511.06245  22949965.689    22949983.721
       215.000         157.000
  24166057.887    13260543.85249  10326209.86445  24166058.716    24166086.796
       206.000         141.000
  20334528.514    -7908629.02249  -5938752.98248  20334528.589    20334538.911
       243.000         213.000
  23170044.362   -12442560.69349  -9670054.52346  23170042.943    23170063.500
       217.000         163.000
  22388683.497     6968343.52849   5432751.45246  22388683.157    22388695.577
       227.000         179.000
 00  4 20 22 24 30.0000000  0  7G17G30G26G 5G 6G23G10
  21556911.035    -9547723.88949  -7420812.62647  21556910.361    21556922.271
       239.000         201.000
  22073553.745     6535242.15649   5094903.04046  22073554.906    22073569.492
       233.000         187.000
  22935528.235   -13611475.60949 -10332631.59045  22935527.894    22935545.805
       214.000         157.000
  24186246.215    13366632.02949  10408875.41845  24186247.249    24186275.134
       205.000         141.000
  20330226.360    -7931236.98549  -5956369.55548  20330226.327    20330236.531
       243.000         213.000
  23152124.180   -12536730.16449  -9743432.82046  23152122.489    23152143.735
       218.000         163.000
  22405184.911     7055058.85849   5500321.78946  22405184.693    22405197.230
       227.000         179.000
 00  4 20 22 25  0.0000000  0  7G17G30G26G 5G 6G23G10
  21549396.777    -9587211.21649  -7451581.88947  21549396.243    21549408.328
       239.000         201.000
  22089740.831     6620305.08249   5161185.62446  22089741.600    22089757.078
       233.000         187.000
  22921142.708   -13687070.18549 -10391536.10245  22921142.803    22921160.125
       215.000         158.000
  24206430.078    13472697.40349  10491523.18645  24206430.627    24206458.651
       206.000         140.000
  20325995.064    -7953472.45449  -5973695.87348  20325995.056    20326005.242
       243.000         213.000
  23134248.774   -12630663.74249  -9816627.31646  23134246.884    23134267.809
       219.000         164.000
  22421743.100     7142072.42349   5568124.50946  22421743.070    22421755.378
       228.000         179.000
 00  4 20 22 25 30.0000000  0  7G17G30G26G 5G 6G23G10
  21541916.914    -9626517.84849  -7482210.34847  21541916.122    21541928.144
       239.000         201.000
  22105992.060     6705705.05249   5227730.85746  22105993.379    22106008.231
       232.000         186.000
  22906806.216   -13762407.57949 -10450240.20845  22906804.899    22906823.426
       215.000         158.000
  24226609.712    13578740.10849  10574153.31845  24226610.197    24226638.952
       202.000         139.000
  20321835.707    -7975329.98449  -5990727.69448  20321835.616    20321846.001
       243.000         213.000
  23116418.119   -12724362.24249  -9889638.64246  23116416.518    23116437.884
       219.000         164.000
  22438359.587     7229392.40949   5636166.00946  22438359.217    22438371.489
       227.000         179.000
 00  4 20 22 26  0.0000000  0  7G17G30G26G 5G 6G23G10
  21534471.613    -9665642.70549  -7512697.16347  21534471.046    21534483.160
       239.000         201.000
  22122305.119     6791429.88149   5294529.21346  22122306.226    22122320.893
       232.000         186.000
  22892518.967   -13837486.07149 -10508742.60145  22892518.349    22892536.287
       215.000         159.000
  24246784.403    13684756.95449  10656763.28445  24246784.550    24246812.552
       201.000         139.000
  20317749.788    -7996801.64349  -6007458.83548  20317749.655    20317759.887
       243.000         213.000
  23098635.026   -12817810.72849  -9962455.18046  23098633.729    23098653.888
       220.000         165.000
  22455033.937     7317016.44349   5704444.42946  22455032.744    22455045.830
       227.000         178.000
 00  4 20 22 26 30.0000000  0  7G17G30G26G 5G 6G23G10
  21527060.373    -9704588.79649  -7543044.68047  21527059.787    21527071.755
       239.000         201.000
  22138680.623     6877482.93249   5361583.33446  22138681.580    22138696.610
       231.000         186.000
  22878281.331   -13912304.09049 -10567042.02445  22878280.816    22878298.056
       215.000         160.000
  24266955.362    13790754.00149  10739357.82645  24266955.816    24266985.318
       204.000         138.000
  20313741.292    -8017866.19849  -6023872.75348  20313741.220    20313751.418
       242.000         213.000
  23080899.525   -12911009.61349 -10035077.22246  23080898.516    23080918.705
       220.000         166.000
  22471766.512     7404946.53749   5772961.34046  22471765.960    22471778.351
       227.000         178.000
 00  4 20 22 27  0.0000000  0  7G17G30G26G 5G 6G23G10
  21519685.915    -9743341.37749  -7573241.40847  21519685.252    21519697.597
       239.000         201.000
  22155118.725     6963865.02649   5428893.85346  22155119.560    22155134.665
       232.000         185.000
  22864095.218   -13986851.28849 -10625130.43145  22864095.056    22864112.894
       216.000         160.000
  24287127.414    13896756.43449  10821956.58345  24287129.030    24287157.448
       203.000         138.000
  20309813.270    -8038507.85849  -6039957.14148  20309813.099    20309823.278
       242.000         213.000
  23063214.528   -13003942.80849 -10107492.23646  23063213.070    23063233.237
       221.000         166.000
  22488559.895     7493196.16049   5841727.22446  22488559.464    22488572.741
       227.000         178.000
 00  4 20 22 27 30.0000000  0  7G17G30G26G 5G 6G23G10
  21512349.154    -9781896.00949  -7603283.89047  21512348.521    21512360.484
       238.000         201.000
  22171615.040     7050553.04449   5496442.74846  22171615.970    22171631.130
       231.000         185.000
  22849963.459   -14061112.35849 -10682995.87645  22849962.660    22849980.453
       215.000         161.000
  24307299.657    14002759.74949  10904556.03445  24307300.506    24307328.209
       201.000         139.000
  20305963.341    -8058739.37949  -6055721.94148  20305963.314    20305973.683
       242.000         213.000
  23045581.083   -13096605.11249 -10179696.17546  23045579.427    23045600.180
       220.000         167.000
  22505411.476     7581751.52349   5910731.35746  22505411.068    22505423.278
       226.000         177.000
 00  4 20 22 28  0.0000000  0  7G17G30G26G 5G 6G23G10
  21505049.799    -9820253.85749  -7633173.03347  21505048.994    21505061.332
       239.000         202.000
  22188166.900     7137532.98349   5564219.11146  22188167.631    22188183.249
       231.000         185.000
  22835888.781   -14135073.83749 -10740627.87645  22835888.184    22835905.089
       217.000         161.000
  24327469.599    14108751.35949  10987146.35545  24327470.962    24327500.185
       201.000         138.000
  20302190.624    -8078565.13649  -6071170.56548  20302190.606    20302200.818
       244.000         213.000
  23027998.464   -13189000.37149 -10251692.03246  23027997.379    23028017.104
       220.000         167.000
  22522317.614     7670593.86049   5979959.10246  22522316.934    22522329.660
       226.000         177.000
 00  4 20 22 28 30.0000000  0  7G17G30G26G 5G 6G23G10
  21497786.716    -9858421.30149  -7662913.80847  21497786.162    21497798.373
       238.000         202.000
  22204776.189     7224814.59149   5632230.54046  22204777.452    22204792.736
       231.000         184.000
  22821872.370   -14208729.11549 -10798021.29845  22821871.687    22821890.304
       216.000         162.000
  24347638.512    14214737.45749  11069732.36245  24347640.579    24347668.930
       203.000         138.000
  20298495.064    -8097985.28349  -6086303.12748  20298494.914    20298505.236
       244.000         213.000
  23010466.202   -13281131.17849 -10323481.82246  23010465.336    23010484.972
       220.000         168.000
  22539277.463     7759718.29549   6049406.66746  22539276.793    22539289.374
       226.000         177.000
 00  4 20 22 29  0.0000000  0  7G17G30G26G 5G 6G23G10
  21490560.828    -9896393.23649  -7692502.24147  21490560.115    21490572.151
       238.000         202.000
  22221440.350     7312384.43949   5700466.56846  22221441.296    22221456.530
       231.000         184.000
  22807916.244   -14282067.93749 -10855168.11445  22807916.048    22807932.977
       217.000         162.000
  24367802.748    14320698.37349  11152298.77145  24367803.541    24367831.949
       199.000         137.000
  20294873.297    -8117017.88649  -6101133.70848  20294873.152    20294883.505
       244.000         213.000
  22992986.232   -13372987.50249 -10395057.73946  22992985.547    22993005.215
       219.000         168.000
  22556289.752     7849118.12149   6119068.81546  22556289.146    22556301.255
       226.000         177.000
 00  4 20 22 29 30.0000000  0  7G17G30G26G 5G 6G23G10
  21483370.185    -9934180.03449  -7721946.40647  21483369.743    21483381.554
       238.000         202.000
  22238155.964     7400224.81249   5768913.39446  22238157.034    22238172.355
       230.000         184.000
  22794017.983   -14355102.65949 -10912077.98246  22794017.430    22794034.388
       218.000         163.000
  24387955.532    14426599.58749  11234818.65945  24387955.859    24387985.557
       201.000         138.000
  20291320.880    -8135685.74449  -6115680.06848  20291321.001    20291331.093
       244.000         213.000
  22975555.930   -13464582.61749 -10466430.11146  22975553.935    22975575.003
       220.000         168.000
  22573351.031     7938775.59949   6188931.73546  22573350.994    22573363.703
       226.000         176.000
 00  4 20 22 30  0.0000000  0  7G17G30G26G 5G 6G23G10
  21476215.512    -9971777.82349  -7751243.29747  21476214.776    21476226.613
       238.000         202.000
  22254921.288     7488326.24649   5837563.63646  22254922.268    22254937.471
       231.000         183.000
  22780175.044   -14427847.12849 -10968761.67646  22780174.184    22780191.840
       219.000         163.000
  24408092.940    14532420.84949  11317276.25845  24408093.369    24408123.669
       201.000         138.000
  20287837.944    -8153988.85149  -6129942.21248  20287837.982    20287848.205
       244.000         213.000
  22958172.293   -13555932.57749 -10537611.45846  22958171.309    22958190.669
       220.000         168.000
  22590458.740     8028677.12749   6258984.81546  22590457.512    22590471.165
       226.000         176.000
 00  4 20 22 30 30.0000000  0  7G17G30G26G 5G 6G23G10
  21469098.589   -10009177.12349  -7780385.51847  21469098.033    21469109.747
       238.000         202.000
  22271734.283     7576678.13749   5906409.04546  22271734.719    22271750.755
       230.000         183.000
  22766384.726   -14500314.64449 -11025229.57446  22766384.390    22766401.117
       219.000         164.000
  24428210.779    14638138.83849  11399653.40045  24428211.421    24428241.463
       201.000         139.000
  20284423.513    -8171931.82849  -6143923.73348  20284423.406    20284433.575
       245.000         213.000
  22940833.715   -13647045.75849 -10608608.31046  22940832.422    22940852.194
       220.000         168.000
  22607612.555     8118820.76949   6329226.56146  22607612.416    22607624.515
       225.000         176.000
 00  4 20 22 31  0.0000000  0  7G17G30G26G 5G 6G23G10
  21462018.266   -10046384.13749  -7809377.90547  21462017.444    21462029.466
       238.000         202.000
  22288592.064     7665265.56549   5975437.99346  22288592.768    22288608.499
       230.000         183.000
  22752646.330   -14572509.15449 -11081484.72546  22752645.411    22752663.158
       218.000         165.000
  24448306.810    14743742.34149  11481941.31045  24448307.589    24448337.375
       204.000         139.000
  20281075.618    -8189524.89649  -6157632.59548  20281075.713    20281085.815
       244.000         213.000
  22923539.459   -13737925.91049 -10679423.57346  22923538.534    22923556.884
       219.000         168.000
  22624811.505     8209201.53649   6399653.07346  22624811.599    22624823.472
       225.000         175.000
 00  4 20 22 31 30.0000000  0  7G17G30G26G 5G 6G23G10
  21454971.578   -10083414.32349  -7838232.50547  21454970.973    21454983.105
       238.000         202.000
  22305496.228     7754096.94549   6044657.03146  22305497.645    22305513.520
       231.000         182.000
  22738958.989   -14644435.20149 -11137530.68746  22738957.787    22738975.359
       218.000         165.000
  24468382.790    14849239.95249  11564146.71445  24468384.630    24468412.987
       204.000         140.000
  20277796.892    -8206754.75049  -6171058.43348  20277796.673    20277807.025
       244.000         213.000
  22906288.835   -13828576.47349 -10750059.93846  22906286.738    22906307.006
       220.000         168.000
  22642053.822     8299810.29349   6470257.24346  22642053.562    22642065.827
       224.000         174.000
 00  4 20 22 32  0.0000000  0  7G17G30G26G 5G 6G23G10
  21447959.105   -10120264.85049  -7866947.11247  21447958.227    21447970.136
       238.000         202.000
  22322448.846     7843182.42149   6114074.06846  22322450.039    22322465.909
       230.000         182.000
  22725327.139   -14716069.82649 -11193349.57646  22725326.824    22725344.410
       218.000         165.000
  24488441.417    14954646.93749  11646281.49145  24488442.304    24488472.804
       202.000         140.000
  20274592.739    -8223592.73849  -6184178.92748  20274592.791    20274602.810
       244.000         213.000
  22889083.440   -13918989.93349 -10820511.55546  22889081.948    22889101.210
       221.000         168.000
  22659339.952     8390649.32249   6541040.83446  22659339.386    22659352.496
       224.000         174.000
 00  4 20 22 32 30.0000000  0  7G17G30G26G 5G 6G23G10
  21440982.196   -10156928.36049  -7895515.99047  21440981.577    21440993.301
       238.000         202.000
  22339455.056     7932549.78749   6183710.75146  22339456.366    22339471.965
       230.000         182.000
  22711758.531   -14787372.30449 -11248909.65046  22711757.647    22711775.059
       217.000         165.000
  24508491.458    15060008.64249  11728381.01145  24508491.674    24508522.959
       206.000         140.000
  20271468.363    -8240011.33249  -6196972.62048  20271468.354    20271478.512
       245.000         213.000
  22871929.513   -14009132.39249 -10890752.00146  22871928.004    22871947.456
       219.000         168.000
  22676675.021     8481745.64849   6612024.92146  22676674.555    22676687.136
       224.000         174.000
 00  4 20 22 33  0.0000000  0  7G17G30G26G 5G 6G23G10
  21434040.728   -10193405.79649  -7923939.87547  21434040.213    21434051.927
       238.000         202.000
  22356517.099     8022210.61649   6253576.11346  22356517.945    22356534.194
       229.000         182.000
  22698258.770   -14858312.43949 -11304187.34846  22698258.293    22698274.600
       218.000         165.000
  24528540.895    15165366.94849  11810477.91545  24528541.734    24528571.892
       206.000         141.000
  20268426.827    -8255994.68549  -6209427.16648  20268426.780    20268436.903
       244.000         213.000
  22854830.914   -14098984.02749 -10960765.83846  22854829.461    22854849.084
       221.000         168.000
  22694058.466     8573095.94649   6683206.91146  22694056.941    22694071.634
       224.000         173.000
 00  4 20 22 33 30.0000000  0  7G17G30G26G 5G 6G23G10
  21427137.783   -10229680.61749  -7952205.88647  21427137.012    21427149.137
       238.000         202.000
  22373635.449     8112167.20449   6323671.92846  22373636.244    22373652.506
       229.000         182.000
  22684831.018   -14928874.32449 -11359170.31146  22684830.349    22684847.198
       219.000         166.000
  24548591.922    15270733.61449  11892581.32845  24548592.243    24548622.831
       208.000         140.000
  20265471.786    -8271523.33449  -6221527.39948  20265471.636    20265482.000
       244.000         213.000
  22837788.219   -14188542.29949 -11030551.07946  22837787.399    22837806.433
       221.000         168.000
  22711488.551     8664691.64549   6754580.11546  22711489.063    22711501.353
       224.000         173.000
 00  4 20 22 34  0.0000000  0  7G17G30G26G 5G 6G23G10
  21420277.046   -10265733.71049  -7980299.11647  21420276.351    21420288.311
       238.000         202.000
  22390809.859     8202418.80349   6393997.63246  22390810.784    22390827.027
       229.000         181.000
  22671478.428   -14999041.70649 -11413845.87846  22671477.832    22671494.651
       219.000         167.000
  24568647.218    15376122.82849  11974702.30245  24568647.759    24568676.852
       209.000         139.000
  20262603.726    -8286594.99849  -6233271.53648  20262603.701    20262613.971
       244.000         213.000
  22820802.786   -14277799.91949 -11100102.05346  22820801.518    22820820.442
       220.000         169.000
  22728966.452     8756538.30349   6826148.87646  22728966.634    22728978.688
       223.000         173.000
 00  4 20 22 34 30.0000000  0  7G17G30G26G 5G 6G23G10
  21413457.580   -10301569.76949  -8008223.23547  21413456.822    21413468.598
       238.000         202.000
  22408041.183     8292969.21549   6464556.16246  22408042.225    22408057.809
       228.000         180.000
  22658197.849   -15068830.38349 -11468226.36246  22658197.147    22658214.379
       219.000         168.000
  24588705.467    15481527.91149  12056835.66445  24588705.583    24588736.530
       209.000         139.000
  20259818.312    -8301232.40549  -6244677.29248  20259818.270    20259828.307
       244.000         213.000
  22803874.618   -14366756.19349 -11169418.21446  22803873.107    22803892.136
       220.000         169.000
  22746491.920     8848635.09849   6897912.54146  22746491.152    22746503.939
       223.000         172.000
 00  4 20 22 35  0.0000000  0  7G17G30G26G 5G 6G23G10
  21406677.944   -10337196.68849  -8035984.38647  21406677.556    21406689.234
       239.000         203.000
  22425324.184     8383791.20249   6535326.31046  22425325.950    22425341.690
       228.000         180.000
  22644984.825   -15138264.26049 -11522330.37546  22644984.753    22645000.526
       219.000         168.000
  24608759.663    15586911.60449  12138952.37345  24608761.009    24608791.328
       209.000         138.000
  20257111.993    -8315454.07049  -6255759.09348  20257112.043    20257122.160
       245.000         213.000
  22787002.252   -14455419.32249 -11238505.95146  22787000.578    22787019.815
       222.000         169.000
  22764062.210     8940967.49749   6969859.79846  22764061.478    22764074.215
       222.000         171.000
 00  4 20 22 35 30.0000000  0  7G17G30G26G 5G 6G23G10
  21399935.883   -10372626.15249  -8063591.68147  21399935.193    21399946.596
       239.000         203.000
  22442655.923     8474868.91649   6606295.72446  22442656.802    22442672.908
       228.000         180.000
  22631835.930   -15207361.16149 -11576171.81846  22631835.916    22631851.590
       220.000         168.000
  24628803.294    15692239.56249  12221025.66045  24628804.024    24628835.348
       209.000         139.000
  20254482.692    -8329271.12649  -6266525.61948  20254482.713    20254492.782
       244.000         213.000
  22770182.717   -14543805.19749 -11307377.64746  22770181.172    22770199.888
       222.000         170.000
  22781677.821     9033537.94849   7041992.54446  22781677.793    22781690.533
       222.000         171.000
 00  4 20 22 36  0.0000000  0  7G17G30G26G 5G 6G23G10
  21393227.713   -10407877.55749  -8091060.23247  21393227.007    21393238.991
       239.000         203.000
  22460033.988     8566190.20149   6677454.93146  22460035.261    22460050.938
       228.000         180.000
  22618747.026   -15276142.77549 -11629767.55746  22618746.528    22618763.011
       220.000         168.000
  24648831.340    15797486.00549  12303035.43245  24648832.199    24648863.492
       209.000         136.000
  20251929.751    -8342686.95749  -6276979.50048  20251929.711    20251939.977
       244.000         213.000
  22753416.772   -14631909.19349 -11376029.71746  22753415.368    22753434.279
       221.000         170.000
  22799338.110     9126343.15649   7114308.21846  22799338.177    22799349.744
       223.000         170.000
 00  4 20 22 36 30.0000000  0  7G17G30G26G 5G 6G23G10
  21386553.046   -10442952.94349  -8118391.62547  21386552.278    21386563.968
       239.000         203.000
  22477455.061     8657737.66449   6748790.37746  22477456.021    22477472.869
       228.000         180.000
  22605717.665   -15344611.34349 -11683119.36746  22605717.338    22605733.746
       220.000         168.000
  24668839.877    15902630.23949  12384965.58345  24668841.546    24668872.404
       208.000         134.000
  20249453.740    -8355698.55549  -6287118.39548  20249453.755    20249463.720
       245.000         213.000
  22736705.872   -14719723.80749 -11444456.27946  22736704.577    22736723.183
       222.000         170.000
  22817044.438     9219390.48849   7186812.56246  22817044.909    22817056.403
       222.000         169.000
 00  4 20 22 37  0.0000000  0  6G17G30G26G 6G23G10
  21379911.206   -10477855.66449  -8145588.48247  21379910.466    21379922.119
       239.000         203.000
  22494916.670     8749497.97949   6820291.67046  22494917.013    22494934.119
       228.000         179.000
  22592750.315   -15412754.22849 -11736217.40546  22592748.885    22592765.892
       220.000         168.000
  20247056.103    -8368298.21049  -6296936.29848  20247056.225    20247066.233
       245.000         213.000
  22720048.772   -14807255.89849 -11512662.69846  22720047.418    22720065.901
       223.000         171.000
  22834796.009     9312675.17249   7259501.85746  22834795.470    22834807.190
       222.000         169.000
 00  4 20 22 37 30.0000000  0  6G17G30G26G 6G23G10
  21373302.912   -10512582.15649  -8172648.01947  21373302.291    21373313.991
       239.000         203.000
  22512423.357     8841495.44449   6891977.76446  22512424.683    22512441.042
       228.000         179.000
  22579848.379   -15480553.30749 -11789047.54146  22579847.287    22579863.504
       220.000         168.000
  20244740.070    -8380468.96349  -6306419.99648  20244739.998    20244750.223
       245.000         213.000
  22703446.974   -14894497.39949 -11580642.69446  22703445.812    22703463.594
       223.000         172.000
  22852593.425     9406200.79349   7332378.90246  22852593.069    22852605.959
       221.000         169.000
 00  4 20 22 38  0.0000000  0  6G17G30G26G 6G23G10
  21366729.635   -10547124.57249  -8199564.12047  21366728.981    21366740.486
       239.000         203.000
  22529974.670     8933727.34549   6963846.54046  22529975.762    22529991.534
       228.000         179.000
  22567013.592   -15547999.28449 -11841602.53146  22567013.232    22567028.461
       220.000         168.000
  20242503.699    -8392221.15549  -6315577.53748  20242503.666    20242513.737
       245.000         213.000
  22686901.578   -14981442.35249 -11648391.61646  22686900.056    22686918.332
       223.000         172.000
  22870436.155     9499964.80249   7405441.69646  22870436.176    22870448.468
       221.000         168.000
 00  4 20 22 38 30.0000000  0  6G17G30G26G 6G23G10
  21360189.345   -10581493.68349  -8226345.18047  21360188.889    21360200.441
       239.000         203.000
  22547568.732     9026183.84249   7035890.32046  22547569.892    22547586.090
       228.000         178.000
  22554249.437   -15615073.74549 -11893868.03746  22554248.159    22554264.427
       220.000         168.000
  20240341.930    -8403581.33249  -6324429.61248  20240341.863    20240351.906
       245.000         213.000
  22670407.987   -15068115.27049 -11715928.55346  22670406.914    22670425.057
       223.000         173.000
  22888321.588     9593953.40249   7478679.49046  22888321.345    22888334.713
       222.000         168.000
 00  4 20 22 39  0.0000000  0  6G17G30G26G 6G23G10
  21353680.604   -10615697.13149  -8252997.15547  21353680.215    21353691.410
       239.000         204.000
  22565204.845     9118861.41149   7108106.35846  22565205.783    22565222.435
       228.000         178.000
  22541555.823   -15681777.73749 -11945844.88146  22541555.246    22541571.796
       220.000         168.000
  20238254.744    -8414549.55949  -6332976.27748  20238254.828    20238264.781
       244.000         213.000
  22653963.155   -15154532.05049 -11783265.90746  22653961.799    22653979.729
       223.000         173.000
  22906244.316     9688137.65249   7552069.74146  22906243.747    22906256.787
       221.000         167.000
 00  4 20 22 39 30.0000000  0  6G17G30G26G 6G23G10
  21347205.592   -10649723.22049  -8279510.92847  21347204.788    21347216.504
       239.000         204.000
  22582882.107     9211754.85749   7180490.60546  22582883.645    22582899.833
       228.000         178.000
  22528930.636   -15748122.31149 -11997541.65646  22528930.206    22528945.952
       220.000         168.000
  20236243.610    -8425118.06149  -6341211.46348  20236243.310    20236253.565
       244.000         213.000
  22637570.021   -15240676.87749 -11850391.35246  22637569.177    22637586.520
       224.000         174.000
  22924203.939     9782515.59449   7625610.91846  22924203.204    22924216.160
       220.000         167.000
 00  4 20 22 40  0.0000000  0  6G17G30G26G 6G23G10
  21340766.027   -10683563.11549  -8305879.61147  21340765.575    21340777.000
       239.000         204.000
  22600597.313     9304847.78749   7253030.30646  22600598.052    22600615.228
       227.000         177.000
  22516374.347   -15814104.89449 -12048956.37246  22516373.729    22516389.359
       222.000         169.000
  20234311.126    -8435273.13449  -6349124.49848  20234310.998    20234321.148
       244.000         213.000
  22621229.194   -15326547.04049 -11917302.76846  22621228.240    22621245.896
       225.000         175.000
  22942200.546     9877088.02849   7699303.65246  22942200.015    22942212.865
       221.000         166.000
 00  4 20 22 40 30.0000000  0  6G17G30G26G 6G23G10
  21334363.188   -10717209.96049  -8332097.86847  21334362.428    21334374.301
       239.000         204.000
  22618354.226     9398160.03349   7325740.88846  22618355.358    22618371.255
       227.000         177.000
  22503887.129   -15879724.62949 -12100088.33246  22503886.474    22503902.621
       220.000         169.000
  20232464.194    -8444978.94249  -6356687.45748  20232464.007    20232474.153
       244.000         213.000
  22604942.873   -15412130.83849 -11983991.04746  22604941.625    22604958.952
       225.000         175.000
  22960235.646     9971862.99349   7773154.20446  22960235.470    22960248.700
       220.000         166.000
 00  4 20 22 41  0.0000000  0  6G17G30G26G 6G23G10
  21328001.641   -10750640.03949  -8358147.21847  21328001.102    21328012.783
       239.000         204.000
  22636157.344     9491714.73749   7398640.40646  22636157.964    22636175.193
       227.000         176.000
  22491467.405   -15944989.54049 -12150943.81446  22491466.762    22491482.710
       220.000         169.000
  20230709.141    -8454201.38349  -6363873.76548  20230709.082    20230719.311
       244.000         213.000
  22588716.864   -15497397.62149 -12050432.30246  22588715.538    22588732.770
       225.000         176.000
  22978313.848    10066864.01049   7847180.89646  22978313.195    22978326.229
       221.000         166.000
 00  4 20 22 41 30.0000000  0  7G17G30G26G22G 6G23G10
  21321688.657   -10783814.57649  -8383997.44247  21321688.222    21321699.925
       239.000         204.000
  22654018.208     9585573.42449   7471776.79846  22654019.119    22654037.242
       227.000         176.000
  22479127.505   -16009834.70549 -12201472.22346  22479126.914    22479142.992
       221.000         168.000
  24462433.853    -7660404.22049  -5956339.17345  24462432.880    24462448.003
       201.000         138.000
  20229055.945    -8462889.12249  -6370643.42448  20229055.816    20229065.933
       244.000         213.000
  22572562.655   -15582286.99549 -12116579.47846  22572560.801    22572578.388
       225.000         176.000
  22996446.346    10162150.58049   7921430.11146  22996445.302    22996459.215
       220.000         166.000
 00  4 20 22 42  0.0000000  0  7G17G30G26G22G 6G23G10
  21315412.817   -10816794.14049  -8409695.73947  21315412.247    21315423.827
       239.000         204.000
  22671927.916     9679688.62449   7545113.06546  22671928.391    22671945.879
       227.000         175.000
  22466862.979   -16074284.18549 -12251692.31146  22466862.765    22466877.610
       221.000         169.000
  24450842.797    -7721315.72249  -6003802.66545  24450842.544    24450857.009
       203.000         138.000
  20227494.693    -8471093.42949  -6377036.38148  20227494.407    20227504.807
       244.000         213.000
  22556467.978   -15666863.41349 -12182482.79246  22556466.623    22556483.781
       226.000         176.000
  23014622.859    10257668.62949   7995859.67246  23014621.749    23014635.434
       220.000         165.000
 00  4 20 22 42 30.0000000  0  7G17G30G26G22G 6G23G10
  21309170.259   -10849598.82449  -8435257.75847  21309169.819    21309181.272
       239.000         204.000
  22689883.460     9774044.71149   7618637.02946  22689884.070    22689901.291
       226.000         175.000
  22454672.325   -16138345.04749 -12301609.57446  22454672.004    22454686.915
       220.000         169.000
  24439338.595    -7781770.76649  -6050910.49345  24439337.319    24439353.405
       200.000         138.000
  20226018.872    -8478848.80949  -6383079.52348  20226019.008    20226029.126
       244.000         213.000
  22540430.915   -15751137.05849 -12248150.18246  22540429.645    22540446.660
       227.000         177.000
  23032838.826    10353394.07149   8070450.85746  23032838.308    23032850.927
       221.000         165.000
 00  4 20 22 43  0.0000000  0  7G17G30G26G22G 6G23G10
  21302960.369   -10882231.73449  -8460685.93247  21302959.768    21302971.164
       239.000         204.000
  22707879.034     9868610.90949   7692324.71146  22707879.802    22707896.972
       226.000         174.000
  22442560.298   -16201992.91249 -12351205.03746  22442559.879    22442574.888
       221.000         169.000
  24427917.539    -7841788.50349  -6097677.52245  24427916.156    24427931.195
       198.000         136.000
  20224624.015    -8486178.83849  -6388791.22448  20224623.864    20224633.852
       244.000         213.000
  22524454.078   -15835094.47549 -12313571.16946  22524452.386    22524469.731
       225.000         177.000
  23051093.461    10449322.38049   8145200.12146  23051092.671    23051106.672
       220.000         165.000
 00  4 20 22 43 30.0000000  0  7G17G30G26G22G 6G23G10
  21296780.340   -10914707.83049  -8485991.90847  21296779.666    21296791.298
       239.000         205.000
  22725908.694     9963356.45649   7766152.15946  22725909.920    22725926.933
       225.000         174.000
  22430528.474   -16265219.51749 -12400472.23846  22430528.009    22430543.641
       220.000         169.000
  24416576.975    -7901383.43749  -6144115.11845  24416576.985    24416590.881
       202.000         137.000
  20223307.179    -8493098.84649  -6394183.42748  20223307.086    20223317.203
       244.000         213.000
  22508536.931   -15918738.05149 -12378747.60246  22508535.445    22508552.980
       227.000         177.000
  23069383.993    10545439.13349   8220096.22046  23069383.548    23069396.489
       220.000         165.000
 00  4 20 22 44  0.0000000  0  7G17G30G26G22G 6G23G10
  21290632.306   -10947015.79549  -8511166.87847  21290631.762    21290643.119
       239.000         205.000
  22743968.150    10058258.86449   7840101.82146  22743968.728    22743986.241
       225.000         173.000
  22418574.423   -16328037.47349 -12449421.02246  22418573.994    22418588.458
       221.000         169.000
  24405313.959    -7960571.30849  -6190235.52645  24405314.233    24405328.497
       201.000         138.000
  20222066.542    -8499618.43249  -6399263.61848  20222066.425    20222076.592
       244.000         213.000
  22492678.960   -16002070.77249 -12443681.81946  22492677.533    22492694.302
       226.000         178.000
  23087709.711    10641741.05849   8295136.59346  23087709.681    23087722.034
       219.000         165.000
 00  4 20 22 44 30.0000000  0  7G17G30G26G22G 6G23G10
  21284517.003   -10979151.59349  -8536207.68647  21284516.236    21284527.384
       239.000         205.000
  22762055.905    10153309.42449   7914166.92046  22762057.426    22762073.825
       225.000         172.000
  22406695.366   -16390461.29949 -12498062.69546  22406694.538    22406709.816
       221.000         170.000
  24394127.776    -8019355.49049  -6236041.35745  24394127.387    24394142.368
       201.000         138.000
  20220901.024    -8505743.17149  -6404036.13448  20220901.251    20220911.081
       244.000         213.000
  22476882.175   -16085082.00749 -12508365.53946  22476880.929    22476897.284
       226.000         178.000
  23106069.419    10738221.95949   8370316.43846  23106069.151    23106082.725
       219.000         165.000
 00  4 20 22 45  0.0000000  0  7G17G30G26G22G 6G23G10
  21278434.696   -11011113.75849  -8561113.20247  21278434.077    21278445.447
       239.000         205.000
  22780172.135    10248509.98649   7988348.89646  22780172.385    22780190.931
       225.000         172.000
  22394888.901   -16452503.63249 -12546407.10046  22394888.921    22394903.313
       222.000         170.000
  24383019.302    -8077730.64949  -6281528.47645  24383018.787    24383032.918
       203.000         138.000
  20219812.932    -8511461.12549  -6408491.67248  20219812.795    20219823.018
       245.000         213.000
  22461144.469   -16167782.61549 -12572807.21046  22461142.754    22461159.918
       225.000         178.000
  23124462.900    10834880.02649   8445634.32546  23124462.828    23124476.479
       220.000         166.000
 00  4 20 22 45 30.0000000  0  7G17G30G26G22G 6G23G10
  21272388.040   -11042888.72349  -8585872.84447  21272387.503    21272399.075
       240.000         205.000
  22798323.166    10343893.40549   8062673.36546  22798324.398    22798342.016
       223.000         171.000
  22383154.145   -16514169.25649 -12594457.97446  22383153.665    22383168.628
       222.000         170.000
  24371990.063    -8135689.45949  -6326691.18945  24371988.913    24372004.687
       202.000         139.000
  20218808.348    -8516740.09249  -6412605.14148  20218808.280    20218818.433
       244.000         213.000
  22445465.056   -16250176.97649 -12637010.26346  22445463.969    22445480.419
       226.000         178.000
  23142888.179    10931705.11149   8521082.35246  23142888.102    23142900.529
       220.000         166.000
 00  4 20 22 46  0.0000000  0  7G17G30G26G22G 6G23G10
  21266380.894   -11074456.03249  -8610470.68147  21266380.411    21266391.971
       239.000         205.000
  22816513.784    10439484.79049   8137159.87446  22816514.726    22816533.003
       225.000         171.000
  22371494.682   -16575439.06149 -12642200.44546  22371494.647    22371509.222
       222.000         171.000
  24361045.235    -8193204.63449  -6371508.20345  24361044.870    24361058.578
       200.000         139.000
  20217889.662    -8521567.85349  -6416367.02448  20217889.626    20217899.634
       244.000         213.000
  22429844.431   -16332262.43049 -12700972.60946  22429843.133    22429860.163
       226.000         178.000
  23161345.106    11028696.54549   8596660.00746  23161344.885    23161357.190
       221.000         166.000
 00  4 20 22 46 30.0000000  0  7G17G30G26G22G 6G23G10
  21260414.496   -11105809.60549  -8634901.97147  21260413.822    21260425.122
       240.000         205.000
  22834746.979    10535299.46949   8211820.37646  22834747.923    22834765.221
       225.000         171.000
  22359911.922   -16636305.62449 -12689628.68646  22359911.056    22359926.313
       222.000         171.000
  24350187.486    -8250262.63749  -6415968.99245  24350187.436    24350202.367
       204.000         139.000
  20217058.956    -8525933.03549  -6419768.45548  20217058.901    20217069.206
       244.000         213.000
  22414282.665   -16414038.35249 -12764693.78146  22414281.236    22414297.943
       226.000         178.000
  23179833.105    11125851.21249   8672364.85546  23179833.325    23179847.003
       221.000         166.000
 00  4 20 22 47  0.0000000  0  7G17G30G26G22G 6G23G10
  21254487.947   -11136953.37849  -8659169.78347  21254487.405    21254498.754
       240.000         205.000
  22853022.786    10631338.50049   8286655.70146  22853023.721    22853041.362
       224.000         172.000
  22348407.907   -16696758.48449 -12736734.57346  22348407.869    22348422.454
       222.000         171.000
  24339416.730    -8306863.79949  -6460073.81545  24339416.553    24339431.780
       204.000         139.000
  20216318.586    -8529823.75249  -6422800.17548  20216318.534    20216328.682
       244.000         213.000
  22398781.792   -16495494.63449 -12828165.88346  22398780.347    22398797.314
       226.000         179.000
  23198353.258    11223174.74849   8748201.29146  23198352.555    23198366.416
       221.000         166.000
 00  4 20 22 47 30.0000000  0  7G17G30G26G22G 6G23G10
  21248601.182   -11167888.40649  -8683274.93847  21248600.620    21248612.093
       240.000         205.000
  22871341.101    10727600.97749   8361665.12146  22871342.869    22871359.397
       223.000         171.000
  22336986.767   -16756775.95949 -12783501.18646  22336986.676    22337000.624
       223.000         171.000
  24328735.678    -8362993.13649  -6503810.96945  24328734.438    24328750.201
       203.000         140.000
  20215667.494    -8533245.08649  -6425466.14148  20215667.325    20215677.568
       244.000         213.000
  22383342.875   -16576625.15549 -12891384.15746  22383341.545    22383357.776
       226.000         179.000
  23216906.397    11320671.87849   8824172.98746  23216905.421    23216919.544
       220.000         165.000
 00  4 20 22 48  0.0000000  0  7G17G30G26G22G 6G23G10
  21242751.098   -11198630.59549  -8707229.82847  21242750.620    21242761.771
       239.000         206.000
  22889696.145    10824056.54149   8436824.99846  22889697.902    22889715.299
       223.000         171.000
  22325648.158   -16816359.82749 -12829929.92246  22325647.536    22325663.249
       222.000         171.000
  24318143.435    -8418655.46949  -6547184.22845  24318142.890    24318158.402
       202.000         141.000
  20215101.438    -8536219.51249  -6427783.87248  20215101.257    20215111.582
       244.000         213.000
  22367964.121   -16657439.74049 -12954356.24846  22367963.181    22367979.226
       227.000         179.000
  23235495.840    11418359.87749   8900293.41646  23235495.431    23235508.779
       221.000         165.000
 00  4 20 22 48 30.0000000  0  7G17G30G26G22G 6G23G10
  21236934.192   -11229198.32549  -8731048.77547  21236933.477    21236944.986
       240.000         206.000
  22908084.031    10920684.26849   8512119.02446  22908084.473    22908102.510
       223.000         171.000
  22314389.468   -16875523.33849 -12876031.11846  22314388.320    22314403.112
       223.000         172.000
  24307635.888    -8473872.65049  -6590210.61845  24307636.453    24307649.895
       204.000         141.000
  20214620.572    -8538746.46649  -6429752.92748  20214620.689    20214630.688
       244.000         213.000
  22352645.749   -16737937.00149 -13017081.07646  22352644.206    22352661.296
       226.000         180.000
  23254122.015    11516240.77549   8976564.15246  23254121.627    23254135.146
       219.000         164.000
 00  4 20 22 49  0.0000000  0  7G17G30G26G22G 6G23G10
  21231148.183   -11259603.59449  -8754741.13147  21231147.962    21231159.162
       240.000         205.000
  22926502.258    11017471.67749   8587537.48446  22926503.362    22926521.940
       223.000         171.000
  22303211.443   -16934263.29349 -12921802.26446  22303211.038    22303225.426
       223.000         172.000
  24297213.971    -8528640.58049  -6632886.95045  24297214.169    24297229.015
       205.000         142.000
  20214224.501    -8540827.80149  -6431374.75048  20214224.544    20214234.603
       244.000         213.000
  22337388.666   -16818112.24949 -13079554.98546  22337387.379    22337403.392
       227.000         180.000
  23272784.247    11614311.29349   9052982.63646  23272783.857    23272796.661
       220.000         164.000
 00  4 20 22 49 30.0000000  0  7G17G30G26G22G 6G23G10
  21225393.326   -11289845.25449  -8778306.00447  21225392.696    21225404.132
       239.000         205.000
  22944949.437    11114410.99149   8663074.29546  22944950.192    22944969.184
       225.000         172.000
  22292114.654   -16992576.43749 -12967240.84446  22292114.760    22292129.022
       222.000         172.000
  24286878.938    -8582951.24949  -6675206.97945  24286877.894    24286894.278
       205.000         142.000
  20213910.615    -8542477.27049  -6432660.05048  20213910.751    20213920.795
       244.000         213.000
  22322190.604   -16897977.17849 -13141787.08846  22322189.520    22322205.545
       227.000         180.000
  23291481.228    11712564.38749   9129543.39846  23291481.043    23291493.873
       219.000         163.000
 00  4 20 22 50  0.0000000  0  7G17G30G26G22G 6G23G10
  21219668.930   -11319926.83249  -8801746.13647  21219668.579    21219679.769
       240.000         205.000
  22963421.764    11211482.62549   8738714.22846  22963422.234    22963441.539
       224.000         172.000
  22281098.050   -17050468.16549 -13012351.06946  22281097.657    22281112.683
       223.000         172.000
  24276627.970    -8636820.66749  -6717183.16445  24276627.810    24276642.897
       207.000         143.000
  20213681.164    -8543683.16749  -6433599.71548  20213681.380    20213691.510
       244.000         213.000
  22307052.391   -16977527.71149 -13203774.21146  22307051.320    22307067.452
       228.000         181.000
  23310210.565    11810987.50349   9206236.64546  23310210.277    23310223.927
       219.000         163.000
 00  4 20 22 50 30.0000000  0  7G17G30G26G22G 6G23G10
  21213976.678   -11349839.47949  -8825054.63247  21213976.390    21213987.360
       239.000         205.000
  22981923.356    11308708.35649   8814474.24246  22981924.165    22981943.785
       223.000         171.000
  22270164.203   -17107924.94849 -13057122.35846  22270163.836    22270178.215
       223.000         173.000
  24266462.578    -8690240.27649  -6758808.84945  24266461.848    24266477.271
       207.000         143.000
  20213539.055    -8544429.91049  -6434181.59848  20213539.248    20213549.141
       242.000         213.000
  22291977.948   -17056743.23549 -13265500.29046  22291976.286    22291993.039
       228.000         181.000
  23328967.165    11909553.49249   9283041.21646  23328966.523    23328979.733
       220.000         163.000
 00  4 20 22 51  0.0000000  0  7G17G30G26G22G 6G23G10
  21208318.128   -11379575.21249  -8848225.27747  21208317.417    21208328.630
       240.000         206.000
  23000456.412    11406099.21949   8890362.90046  23000458.294    23000476.061
       223.000         171.000
  22259316.527   -17164928.87849 -13101540.78046  22259315.756    22259331.429
       225.000         173.000
  24256383.635    -8743205.45149  -6800080.43545  24256382.376    24256398.102
       206.000         143.000
  20213486.388    -8544706.62849  -6434397.22648  20213486.455    20213496.592
       243.000         213.000
  22276967.579   -17135621.74949 -13326963.77246  22276966.757    22276982.318
       228.000         181.000
  23347750.749    12008261.24649   9359956.25146  23347751.158    23347763.991
       219.000         163.000
 00  4 20 22 51 30.0000000  0  7G17G30G26G22G 6G23G10
  21202692.823   -11409136.23949  -8871259.78147  21202692.352    21202703.634
       239.000         206.000
  23019022.325    11503662.10849   8966385.61046  23019023.512    23019042.676
       223.000         171.000
  22248557.293   -17221468.13649 -13145597.11446  22248556.295    22248571.510
       224.000         174.000
  24246389.660    -8795724.00749  -6841004.00345  24246388.764    24246405.055
       208.000         143.000
  20213526.324    -8544496.80349  -6434233.73148  20213526.507    20213536.471
       243.000         213.000
  22262023.693   -17214151.17449 -13388155.22946  22262022.343    22262037.989
       228.000         181.000
  23366560.817    12107108.70349   9436980.14445  23366560.767    23366573.758
       218.000         162.000
 00  4 20 22 52  0.0000000  0  7G17G30G26G22G 6G23G10
  21197102.441   -11438513.77849  -8894151.31147  21197101.912    21197113.083
       240.000         206.000
  23037623.922    11601412.77249   9042554.64346  23037625.784    23037644.033
       224.000         171.000
  22237888.462   -17277532.13349 -13189283.12046  22237888.300    22237902.584
       224.000         174.000
  24236482.695    -8847785.65849  -6881571.54745  24236481.883    24236497.064
       208.000         142.000
  20213663.252    -8543777.33449  -6433673.10747  20213663.302    20213673.371
       243.000         212.000
  22247148.552   -17292319.36149 -13449065.21146  22247148.170    22247163.120
       228.000         182.000
  23385397.479    12206095.52949   9514112.63845  23385397.476    23385410.649
       217.000         161.000
 00  4 20 22 52 30.0000000  0  7G17G30G26G22G 6G23G10
  21191548.364   -11467700.54749  -8916894.19347  21191547.927    21191559.212
       240.000         206.000
  23056263.718    11699364.05149   9118879.98546  23056264.540    23056283.485
       224.000         172.000
  22227309.799   -17333122.37149 -13232599.96246  22227309.344    22227323.611
       224.000         174.000
  24226666.310    -8899371.31049  -6921768.20245  24226665.778    24226680.974
       210.000         141.000
  20213893.673    -8542566.32949  -6432729.46947  20213893.723    20213903.866
       242.000         212.000
  22232343.365   -17370119.99249 -13509688.79446  22232342.380    22232357.965
       229.000         182.000
  23404263.038    12305234.63049   9591363.78445  23404262.576    23404275.356
       217.000         159.000
 00  4 20 22 53  0.0000000  0  7G17G30G26G22G 6G23G10
  21186029.263   -11496703.25349  -8939493.64747  21186028.747    21186039.697
       240.000         206.000
  23074936.723    11797489.90649   9195341.36046  23074937.563    23074957.092
       224.000         171.000
  22216819.444   -17388248.82449 -13275555.42246  22216819.456    22216833.064
       224.000         175.000
  24216941.633    -8950474.92449  -6961589.22545  24216940.811    24216955.657
       207.000         141.000
  20214214.155    -8540882.18549  -6431417.14947  20214214.141    20214224.338
       242.000         212.000
  22217605.255   -17447568.24049 -13570037.78846  22217604.582    22217619.868
       229.000         183.000
  23423159.673    12404536.88949   9668742.06845  23423158.675    23423173.077
       216.000         159.000
 00  4 20 22 53 30.0000000  0  7G17G30G26G22G 6G23G10
  21180546.190   -11525516.79449  -8961945.70047  21180545.573    21180556.839
       239.000         206.000
  23093637.215    11895760.18649   9271915.27946  23093638.737    23093657.526
       223.000         170.000
  22206413.738   -17442930.21849 -13318164.08246  22206413.180    22206426.945
       225.000         175.000
  24207310.516    -9001086.58949  -7001026.90345  24207310.038    24207325.384
       210.000         141.000
  20214619.467    -8538752.35849  -6429757.54647  20214619.610    20214629.709
       242.000         212.000
  22202931.637   -17524677.61449 -13630122.72646  22202930.431    22202946.201
       229.000         183.000
  23442085.604    12503992.92849   9746240.18045  23442085.322    23442098.790
       217.000         158.000
 00  4 20 22 54  0.0000000  0  7G17G30G26G22G 6G23G10
  21175099.756   -11554137.68249  -8984247.63347  21175099.064    21175110.483
       240.000         206.000
  23112359.920    11994147.41149   9348580.31746  23112360.356    23112379.192
       222.000         170.000
  22196090.417   -17497178.72249 -13360435.41746  22196089.917    22196104.571
       224.000         175.000
  24197772.257    -9051210.37849  -7040084.42545  24197771.781    24197787.571
       210.000         141.000
  20215105.185    -8536199.78249  -6427768.52747  20215105.214    20215115.401
       242.000         212.000
  22188319.048   -17601466.06249 -13689957.59546  22188317.857    22188333.392
       230.000         184.000
  23461041.186    12603604.76749   9823859.70145  23461040.689    23461055.009
       216.000         157.000
 00  4 20 22 54 30.0000000  0  7G17G30G26G22G 6G23G10
  21169687.985   -11582576.31149  -9006407.54947  21169687.480    21169698.603
       240.000         206.000
  23131099.426    12092622.93249   9425314.15946  23131100.682    23131120.341
       222.000         169.000
  22185846.417   -17551010.13349 -13402381.76246  22185846.218    22185860.385
       225.000         175.000
  24188323.981    -9100861.92449  -7078773.97145  24188323.162    24188338.490
       209.000         141.000
  20215670.679    -8533228.03749  -6425452.88747  20215670.712    20215680.894
       242.000         212.000
  22173766.988   -17677936.50049 -13749544.66346  22173765.691    22173781.741
       229.000         184.000
  23480025.128    12703365.87149   9901595.53145  23480024.327    23480038.179
       215.000         156.000
 00  4 20 22 55  0.0000000  0  7G17G30G26G22G 6G23G10
  21164311.270   -11610831.06649  -9028424.18547  21164310.733    21164321.889
       240.000         206.000
  23149853.313    12191174.06049   9502106.90846  23149855.249    23149873.764
       223.000         168.000
  22175685.369   -17604405.99249 -13443988.70046  22175685.293    22175698.845
       224.000         175.000
  24178965.754    -9150040.17749  -7117094.71845  24178965.620    24178980.454
       212.000         143.000
  20216321.557    -8529807.72949  -6422787.71547  20216321.712    20216331.910
       242.000         212.000
  22159275.109   -17754090.71749 -13808885.33246  22159274.713    22159289.128
       229.000         184.000
  23499035.601    12803266.29949   9979439.92645  23499035.996    23499048.362
       215.000         155.000
 00  4 20 22 55 30.0000000  0  7G17G30G26G22G 6G23G10
  21158971.855   -11638889.67249  -9050287.98447  21158971.219    21158982.543
       240.000         206.000
  23168623.489    12289810.55349   9578966.17446  23168624.955    23168644.503
       221.000         168.000
  22165610.554   -17657348.58249 -13485242.46046  22165610.617    22165624.049
       224.000         176.000
  24169697.161    -9198747.01149  -7155048.11145  24169697.417    24169711.219
       211.000         143.000
  20217062.623    -8525913.40249  -6419753.18247  20217062.739    20217072.788
       242.000         212.000
  22144845.582   -17829917.26449 -13867970.67746  22144844.173    22144859.248
       229.000         184.000
  23518073.487    12903310.38249  10057396.26445  23518072.457    23518087.355
       216.000         155.000
 00  4 20 22 56  0.0000000  0  7G17G30G26G22G 6G23G10
  21153668.416   -11666759.16949  -9072004.41847  21153667.920    21153679.154
       240.000         206.000
  23187415.951    12388564.45849   9655916.93846  23187417.085    23187436.240
       222.000         167.000
  22155626.857   -17709812.54849 -13526123.26246  22155627.378    22155640.563
       225.000         176.000
  24160520.062    -9246973.29049  -7192627.05445  24160519.211    24160533.958
       211.000         144.000
  20217899.271    -8521516.78649  -6416327.25147  20217899.190    20217909.523
       242.000         212.000
  22130482.177   -17905396.31849 -13926785.24846  22130481.117    22130496.275
       230.000         185.000
  23537137.799    13003493.45549  10135460.90645  23537137.729    23537150.535
       215.000         154.000
 00  4 20 22 56 30.0000000  0  7G17G30G26G22G 6G23G10
  21148401.857   -11694434.94449  -9093569.90647  21148401.197    21148412.473
       240.000         206.000
  23206234.596    12487455.69649   9732974.70246  23206236.347    23206255.167
       222.000         167.000
  22145737.779   -17761779.17749 -13566616.53346  22145737.705    22145751.119
       225.000         177.000
  24151437.951    -9294700.06949  -7229816.77445  24151437.927    24151452.536
       212.000         144.000
  20218832.979    -8516610.23549  -6412503.96947  20218833.043    20218843.204
       242.000         212.000
  22116186.245   -17980520.65849 -13985323.42546  22116185.064    22116200.648
       230.000         185.000
  23556227.484    13103810.13549  10213629.65945  23556227.013    23556240.655
       214.000         154.000
 00  4 20 22 57  0.0000000  0  7G17G30G26G22G 6G23G10
  21143171.772   -11721918.89649  -9114985.92147  21143171.107    21143182.200
       240.000         206.000
  23225082.695    12586502.04749   9810153.33446  23225083.249    23225103.037
       221.000         167.000
  22135945.649   -17813236.23949 -13606712.73746  22135945.284    22135959.310
       226.000         177.000
  24142450.408    -9341930.14449  -7266619.43545  24142449.220    24142464.957
       211.000         145.000
  20219860.073    -8511212.55049  -6408297.98947  20219860.132    20219870.326
       242.000         212.000
  22101956.784   -18055295.89249 -14043589.57546  22101955.984    22101970.539
       230.000         186.000
  23575343.071    13204263.01449  10291904.53445  23575342.830    23575356.917
       214.000         154.000
 00  4 20 22 57 30.0000000  0  7G17G30G26G22G 6G23G10
  21137974.603   -11749229.85249  -9136267.12947  21137974.055    21137985.125
       240.000         206.000
  23243961.625    12685710.03949   9887457.91646  23243962.949    23243982.214
       220.000         166.000
  22126247.390   -17864200.24849 -13646424.74546  22126246.698    22126260.990
       225.000         177.000
  24133554.505    -9388678.24549  -7303046.54145  24133553.898    24133568.654
       213.000         145.000
  20220976.601    -8505345.41349  -6403726.20047  20220976.829    20220986.885
       242.000         212.000
  22087793.152   -18129725.11849 -14101586.10546  22087792.589    22087807.205
       230.000         186.000
  23594482.121    13304839.08549  10370275.41345  23594481.610    23594495.525
       213.000         154.000
 00  4 20 22 58  0.0000000  0  7G17G30G26G22G 6G23G10
  21132807.428   -11776383.39449  -9157425.68347  21132806.742    21132818.172
       240.000         206.000
  23262869.276    12785069.36449   9964880.42346  23262870.590    23262889.581
       221.000         165.000
  22116641.140   -17914680.68349 -13685759.95146  22116640.928    22116654.649
       225.000         177.000
  24124749.019    -9434951.80349  -7339103.87945  24124748.214    24124762.993
       213.000         146.000
  20222177.744    -8499033.32749  -6398807.70047  20222177.888    20222188.232
       242.000         212.000
  22073696.224   -18203803.99649 -14159309.66346  22073695.569    22073710.395
       231.000         186.000
  23613642.109    13405525.08449  10448731.94645  23613642.126    23613655.695
       216.000         154.000
 00  4 20 22 58 30.0000000  0  7G17G30G26G22G 6G23G10
  21127669.282   -11803384.24149  -9178465.24547  21127668.749    21127679.762
       240.000         206.000
  23281800.356    12884551.53949  10042398.65246  23281801.914    23281820.319
       219.000         164.000
  22107123.088   -17964697.33449 -13724733.77946  22107122.787    22107135.622
       225.000         177.000
  24116029.404    -9480773.60349  -7374809.19145  24116028.991    24116044.073
       212.000         146.000
  20223458.688    -8492301.84649  -6393562.39747  20223458.661    20223468.911
       242.000         212.000
  22059664.898   -18277538.10449 -14216764.54846  22059663.962    22059678.314
       231.000         187.000
  23632823.214    13506322.09149  10527274.97445  23632822.128    23632835.978
       214.000         155.000
 00  4 20 22 59  0.0000000  0  7G17G30G26G22G 6G23G10
  21122558.790   -11830239.66749  -9199391.49547  21122558.157    21122569.511
       240.000         206.000
  23300752.680    12984145.43749  10120003.92146  23300754.433    23300774.371
       220.000         164.000
  22097690.446   -18014265.42449 -13763358.07946  22097690.357    22097703.602
       225.000         177.000
  24107393.305    -9526156.70749  -7410172.66345  24107392.929    24107407.140
       214.000         146.000
  20224820.120    -8485147.50949  -6387987.60147  20224820.228    20224830.290
       243.000         212.000
  22045697.905   -18350934.10849 -14273955.98646  22045697.171    22045711.593
       232.000         187.000
  23652024.176    13607223.55449  10605899.40345  23652024.194    23652037.894
       215.000         155.000
 00  4 20 22 59 30.0000000  0  7G17G30G26G22G 6G23G10
  21117476.844   -11856945.10949  -9220200.87347  21117476.435    21117487.549
       240.000         206.000
  23319722.394    13083830.61249  10197680.32546  23319724.041    23319743.560
       220.000         163.000
  22088344.470   -18063378.02749 -13801627.45046  22088344.717    22088357.918
       226.000         178.000
  24098844.042    -9571083.15149  -7445180.29045  24098842.998    24098857.913
       213.000         146.000
  20226264.911    -8477555.19649  -6382071.52247  20226264.988    20226274.996
       242.000         212.000
  22031796.135   -18423987.26649 -14330880.27446  22031794.866    22031810.063
       232.000         187.000
  23671242.366    13708215.35849  10684594.22345  23671242.180    23671256.106
       215.000         154.000
 00  4 20 23  0  0.0000000  0  7G17G30G26G22G 6G23G10
  21112425.454   -11883490.27149  -9240885.35447  21112425.142    21112436.068
       240.000         207.000
  23338707.696    13183597.73749  10275420.58245  23338709.897    23338729.143
       221.000         162.000
  22079086.207   -18112029.91949 -13839537.83046  22079085.477    22079099.207
       227.000         178.000
  24090384.674    -9615537.67649  -7479820.19745  24090384.414    24090399.504
       213.000         146.000
  20227795.740    -8469510.50749  -6375802.94047  20227795.818    20227806.122
       242.000         212.000
  22017961.243   -18496689.13449 -14387530.82747  22017960.613    22017974.709
       232.000         188.000
  23690479.084    13809304.44049  10763364.84645  23690478.933    23690493.086
       216.000         155.000
 00  4 20 23  0 30.0000000  0  7G17G30G26G22G 6G23G10
  21107405.438   -11909870.53849  -9261441.35347  21107404.818    21107416.034
       240.000         207.000
  23357709.549    13283451.59449  10353228.42445  23357710.593    23357731.054
       219.000         161.000
  22069916.013   -18160219.06649 -13877087.61346  22069915.815    22069929.581
       227.000         178.000
  24082017.763    -9659506.21149  -7514081.39545  24082017.086    24082031.546
       210.000         146.000
  20229417.994    -8460985.58249  -6369160.15247  20229418.175    20229428.250
       242.000         212.000
  22004192.775   -18569042.03549 -14443909.46147  22004192.015    22004206.459
       232.000         188.000
  23709735.320    13910496.24049  10842215.51245  23709736.041    23709748.361
       216.000         155.000
 00  4 20 23  1  0.0000000  0  7G17G30G26G22G 6G23G10
  21102418.408   -11936077.25549  -9281862.11547  21102417.950    21102428.926
       240.000         207.000
  23376729.513    13383400.84049  10431110.58045  23376731.256    23376751.694
       219.000         160.000
  22060837.757   -18207924.82049 -13914260.73946  22060837.800    22060851.861
       227.000         179.000
  24073747.306    -9702967.61049  -7547947.41545  24073746.712    24073761.774
       210.000         145.000
  20231135.905    -8451957.93149  -6362125.62647  20231135.896    20231146.181
       242.000         212.000
  21990492.705   -18641035.42749 -14500007.96147  21990491.889    21990506.423
       232.000         188.000
  23729010.797    14011789.12549  10921144.93945  23729009.998    23729025.137
       216.000         155.000
 00  4 20 23  1 30.0000000  0  7G17G30G26G22G 6G23G10
  21097464.941   -11962107.72349  -9302145.53647  21097464.509    21097475.654
       240.000         207.000
  23395765.923    13483436.40649  10509060.01145  23395767.717    23395786.778
       218.000         160.000
  22051855.148   -18255128.21649 -13951042.40546  22051855.658    22051868.003
       228.000         179.000
  24065574.803    -9745914.28849  -7581412.36445  24065573.980    24065590.260
       211.000         145.000
  20232950.142    -8442424.03849  -6354696.63347  20232950.180    20232960.254
       242.000         212.000
  21976865.330   -18712646.73449 -14555808.72647  21976864.553    21976878.724
       233.000         189.000
  23748306.234    14113186.91449  11000156.11045  23748305.360    23748319.449
       216.000         155.000
 00  4 20 23  2  0.0000000  0  7G17G30G26G22G 6G23G10
  21092547.132   -11987950.82349  -9322282.96047  21092546.444    21092557.598
       240.000         207.000
  23414820.079    13583565.22549  10587082.11545  23414821.566    23414840.734
       218.000         159.000
  22042966.970   -18301835.15349 -13987437.23646  22042967.291    22042979.948
       227.000         179.000
  24057499.265    -9788351.53349  -7614480.33645  24057498.740    24057513.546
       210.000         145.000
  20234859.981    -8432387.68149  -6346876.10047  20234860.158    20234870.148
       242.000         212.000
  21963311.959   -18783869.19949 -14611306.50347  21963311.116    21963325.693
       233.000         189.000
  23767623.378    14214698.82949  11079256.22245  23767623.477    23767636.617
       216.000         155.000
 00  4 20 23  2 30.0000000  0  7G17G30G26G22G 6G23G10
  21087667.166   -12013594.81949  -9342265.23747  21087666.722    21087677.691
       240.000         207.000
  23433891.807    13683786.69549  10665176.39945  23433892.983    23433913.343
       217.000         158.000
  22034175.495   -18348033.95449 -14023436.13246  22034175.548    22034188.651
       227.000         179.000
  24049518.616    -9830289.92749  -7647159.58745  24049518.565    24049533.908
       209.000         145.000
  20236863.218    -8421860.75949  -6338673.30847  20236863.281    20236873.348
       242.000         212.000
  21949829.915   -18854716.79149 -14666512.17947  21949829.539    21949843.209
       233.000         189.000
  23786962.263    14316325.06749  11158445.39045  23786962.578    23786975.359
       216.000         155.000
 00  4 20 23  3  0.0000000  0  7G17G30G26G22G 6G23G10
  21082827.211   -12039028.83649  -9362083.89947  21082826.693    21082837.476
       240.000         207.000
  23452978.553    13784087.12349  10743332.21045  23452980.200    23453000.535
       218.000         158.000
  22025481.894   -18393718.45949 -14059034.28446  22025481.476    22025494.748
       228.000         179.000
  24041632.207    -9871733.28949  -7679453.10345  24041631.715    24041647.113
       209.000         144.000
  20238958.644    -8410849.17149  -6330092.85947  20238958.830    20238968.761
       243.000         212.000
  21936418.529   -18925192.96849 -14721428.43947  21936417.454    21936431.898
       233.000         189.000
  23806320.632    14418053.52249  11237714.20745  23806320.028    23806334.025
       215.000         155.000
 00  4 20 23  3 30.0000000  0  7G17G30G26G22G 6G23G10
  21078029.152   -12064242.57449  -9381730.91547  21078028.664    21078039.830
       241.000         207.000
  23472080.614    13884467.73449  10821550.49845  23472081.566    23472102.318
       218.000         157.000
  22016884.844   -18438895.66649 -14094237.11746  22016884.808    22016897.533
       228.000         179.000
  24033839.546    -9912684.15449  -7711362.85845  24033839.359    24033854.283
       209.000         145.000
  20241148.217    -8399343.14849  -6321127.13447  20241148.484    20241158.614
       242.000         212.000
  21923076.754   -18995303.61949 -14776059.87047  21923076.060    21923089.893
       233.000         190.000
  23825699.383    14519888.98049  11317066.40645  23825699.272    23825713.071
       213.000         155.000
 00  4 20 23  4  0.0000000  0  7G17G30G26G22G 6G23G10
  21073275.860   -12089221.17949  -9401194.71747  21073275.455    21073286.134
       241.000         208.000
  23491201.307    13984945.92149  10899844.81045  23491203.019    23491223.056
       218.000         157.000
  22008383.485   -18483569.87949 -14129048.00846  22008383.383    22008396.085
       227.000         179.000
  24026140.759    -9953141.20849  -7742887.80445  24026139.250    24026155.745
       209.000         145.000
  20243433.250    -8387335.43649  -6311770.48047  20243433.413    20243443.581
       242.000         212.000
  21909801.995   -19065061.82249 -14830416.68247  21909801.460    21909815.403
       233.000         190.000
  23845100.782    14621843.63449  11396511.48545  23845100.730    23845114.527
       213.000         155.000
 00  4 20 23  4 30.0000000  0  7G17G30G26G22G 6G23G10
  21068566.332   -12113969.84849  -9420479.34847  21068565.925    21068576.825
       240.000         208.000
  23510340.100    14085519.74749  10978213.65245  23510341.499    23510362.565
       219.000         158.000
  21999981.694   -18527720.64949 -14163451.04346  21999981.760    21999994.358
       227.000         179.000
  24018537.124    -9993098.49149  -7774023.32745  24018537.173    24018550.701
       209.000         146.000
  20245816.145    -8374813.19349  -6302012.89447  20245816.253    20245826.190
       242.000         212.000
  21896592.751   -19134476.08949 -14884505.48347  21896591.975    21896605.862
       233.000         190.000
  23864524.935    14723918.10149  11476049.92545  23864524.913    23864538.745
       212.000         154.000
 00  4 20 23  5  0.0000000  0  7G17G30G26G22G 6G23G10
  21063897.676   -12138503.68849  -9439596.58047  21063897.287    21063908.097
       241.000         208.000
  23529495.577    14186180.70249  11056650.39145  23529497.098    23529517.579
       219.000         159.000
  21991678.150   -18571355.28849 -14197451.89746  21991678.198    21991690.132
       227.000         180.000
  24011028.463   -10032556.82449  -7804770.05745  24011028.121    24011043.251
       210.000         147.000
  20248295.532    -8361784.01349  -6291860.29247  20248295.657    20248305.457
       243.000         212.000
  21883449.994   -19203540.85749 -14938321.94547  21883448.924    21883462.999
       234.000         191.000
  23883970.163    14826102.93849  11555674.37345  23883969.422    23883984.339
       214.000         154.000
 00  4 20 23  5 30.0000000  0  7G17G30G26G22G 6G23G10
  21059268.009   -12162832.52149  -9458554.07147  21059267.532    21059278.401
       241.000         208.000
  23548669.731    14286939.59049  11135163.43345  23548671.044    23548692.485
       220.000         159.000
  21983476.131   -18614456.34049 -14231036.98246  21983476.296    21983489.174
       227.000         180.000
  24003614.837   -10071515.34249  -7835127.31845  24003614.104    24003629.884
       209.000         146.000
  20250867.967    -8348265.73949  -6281326.57947  20250868.026    20250878.227
       242.000         212.000
  21870375.196   -19272248.29449 -14991859.98047  21870374.015    21870388.466
       233.000         191.000
  23903439.181    14928412.74049  11635396.18245  23903438.784    23903453.748
       214.000         153.000
 00  4 20 23  6  0.0000000  0  7G17G30G26G22G 6G23G10
  21054676.588   -12186960.55649  -9477355.09747  21054675.821    21054686.936
       241.000         208.000
  23567863.183    14387799.78249  11213755.41545  23567864.657    23567884.937
       221.000         160.000
  21975381.825   -18656991.46549 -14264181.07646  21975381.570    21975394.566
       228.000         180.000
  23996299.261   -10109959.00149  -7865083.39245  23996299.258    23996313.388
       209.000         147.000
  20253532.125    -8334265.51649  -6270417.32647  20253532.072    20253542.240
       242.000         212.000
  21857371.986   -19340579.63749 -15045104.95447  21857370.997    21857384.830
       234.000         191.000
  23922931.715    15030846.18749  11715214.35445  23922931.589    23922945.833
       212.000         153.000
 00  4 20 23  6 30.0000000  0  7G17G30G26G22G 6G23G10
  21050111.487   -12210950.04349  -9496048.16747  21050111.211    21050121.876
       241.000         208.000
  23587065.590    14488707.75449  11292384.62745  23587066.873    23587088.227
       221.000         161.000
  21967390.127   -18698987.38649 -14296905.00746  21967390.002    21967402.925
       228.000         180.000
  23989075.776   -10147918.25149  -7894662.00545  23989075.039    23989091.080
       211.000         148.000
  20256279.468    -8319828.14149  -6259167.43547  20256279.729    20256289.799
       242.000         212.000
  21844437.224   -19408551.27949 -15098069.64347  21844436.391    21844450.280
       233.000         192.000
  23942437.065    15133347.37549  11795085.30645  23942436.776    23942450.739
       211.000         152.000
 00  4 20 23  7  0.0000000  0  7G17G30G26G22G 6G23G10
  21045568.691   -12234822.47349  -9514650.02147  21045568.126    21045579.102
       241.000         208.000
  23606275.424    14589654.87449  11371044.33445  23606276.465    23606298.355
       221.000         161.000
  21959497.023   -18740465.24849 -14329225.24846  21959497.007    21959509.380
       227.000         179.000
  23981944.266   -10185394.80549  -7923864.49745  23981944.265    23981959.133
       211.000         149.000
  20259109.329    -8304957.20249  -6247579.70347  20259109.290    20259119.630
       242.000         212.000
  21831573.943   -19476147.48449 -15150741.78847  21831573.136    21831586.841
       233.000         192.000
  23961952.014    15235898.87449  11874995.47045  23961951.466    23961965.575
       211.000         151.000
 00  4 20 23  7 30.0000000  0  7G17G30G26G22G 6G23G10
  21041045.315   -12258592.82149  -9533172.33347  21041044.828    21041055.603
       241.000         208.000
  23625491.327    14690633.51249  11449728.60945  23625493.281    23625513.391
       221.000         161.000
  21951701.743   -18781429.14249 -14361145.01046  21951701.383    21951714.574
       227.000         179.000
  23974906.274   -10222379.57949  -7952683.77745  23974905.528    23974920.510
       211.000         150.000
  20262024.921    -8289635.79649  -6235640.95747  20262025.042    20262035.113
       242.000         211.000
  21818780.611   -19543375.99249 -15203127.41547  21818779.763    21818794.139
       234.000         192.000
  23981473.884    15338486.38549  11954933.69945  23981473.981    23981487.259
       210.000         150.000
 00  4 20 23  8  0.0000000  0  7G17G30G26G22G 6G23G10
  21036543.444   -12282250.28349  -9551606.67947  21036543.114    21036553.695
       241.000         208.000
  23644714.212    14791648.29949  11528441.04545  23644715.044    23644737.083
       220.000         161.000
  21944002.180   -18821889.88049 -14392672.70746  21944002.683    21944014.806
       228.000         180.000
  23967963.886   -10258862.35049  -7981111.88445  23967963.654    23967977.989
       211.000         151.000
  20265032.171    -8273832.62949  -6223326.81547  20265032.140    20265042.134
       242.000         211.000
  21806057.452   -19610235.84849 -15255225.78147  21806056.211    21806070.204
       234.000         193.000
  24001001.568    15441104.64749  12034895.87545  24001001.562    24001014.895
       207.000         148.000
 00  4 20 23  8 30.0000000  0  7G17G30G26G22G 6G23G10
  21032067.814   -12305769.63349  -9569933.40747  21032067.243    21032078.284
       241.000         208.000
  23663947.219    14892716.49749  11607195.09745  23663948.230    23663969.576
       219.000         160.000
  21936397.042   -18861854.42549 -14423813.76546  21936396.828    21936409.446
       228.000         180.000
  23961118.505   -10294834.78749  -8009142.32745  23961117.683    23961132.851
       211.000         152.000
  20268135.943    -8257522.20049  -6210617.40947  20268135.921    20268146.179
       242.000         211.000
  21793406.827   -19676714.33949 -15307026.99747  21793406.139    21793419.665
       234.000         193.000
  24020538.418    15543771.40849  12114895.83345  24020538.137    24020552.810
       206.000         147.000
 00  4 20 23  9  0.0000000  0  7G17G30G26G22G 6G23G10
  21027625.110   -12329115.99749  -9588125.34147  21027624.558    21027635.394
       241.000         208.000
  23683193.654    14993855.94949  11686004.65845  23683194.845    23683216.674
       218.000         160.000
  21928888.353   -18901312.40349 -14454560.07346  21928887.957    21928900.544
       228.000         180.000
  23954370.906   -10330293.71649  -8036772.64145  23954370.524    23954385.518
       211.000         152.000
  20271339.453    -8240687.51149  -6197499.48347  20271339.654    20271349.734
       242.000         211.000
  21780827.116   -19742820.31049 -15358537.92047  21780826.218    21780840.061
       234.000         194.000
  24040087.571    15646502.83249  12194946.19345  24040085.865    24040101.479
       204.000         146.000
 00  4 20 23  9 30.0000000  0  7G17G30G26G22G 6G23G10
  21023220.814   -12352260.65649  -9606160.10347  21023220.427    21023231.056
       241.000         208.000
  23702453.122    15095063.34149  11764867.15445  23702454.053    23702476.077
       218.000         161.000
  21921480.278   -18940241.41549 -14484894.21046  21921480.265    21921493.072
       228.000         180.000
  23947721.297   -10365237.84349  -8064001.81345  23947720.528    23947735.995
       209.000         152.000
  20274641.537    -8223335.09449  -6183978.13047  20274641.658    20274651.861
       242.000         211.000
  21768317.654   -19808557.04149 -15409761.14047  21768317.168    21768330.833
       234.000         194.000
  24059653.866    15749323.94149  12275066.42645  24059654.068    24059668.702
       205.000         145.000
 00  4 20 23 10  0.0000000  0  7G17G30G26G22G 6G23G10
  21018856.220   -12375196.60649  -9624032.23047  21018855.839    21018866.538
       241.000         208.000
  23721724.737    15196335.06149  11843779.77045  23721726.181    23721747.118
       217.000         161.000
  21914174.679   -18978632.01849 -14514808.82546  21914174.113    21914187.521
       228.000         180.000
  23941166.055   -10399685.71149  -8090844.28345  23941165.566    23941180.817
       210.000         151.000
  20278039.163    -8205480.50949  -6170065.48547  20278039.116    20278049.305
       242.000         211.000
  21755880.283   -19873915.23849 -15460689.39347  21755879.588    21755892.639
       234.000         194.000
  24079237.429    15852235.98949  12355257.52045  24079235.822    24079251.611
       207.000         146.000
 00  4 20 23 10 30.0000000  0  7G17G30G26G22G 6G23G10
  21014531.426   -12397923.30749  -9641741.30847  21014531.063    21014541.788
       241.000         208.000
  23741005.757    15297656.00249  11922730.75445  23741007.273    23741028.305
       216.000         161.000
  21906973.617   -19016473.04949 -14544295.18646  21906973.368    21906986.282
       228.000         181.000
  23934704.303   -10433642.35249  -8117303.99745  23934703.180    23934718.776
       208.000         151.000
  20281530.641    -8187132.74449  -6155768.54647  20281530.708    20281540.877
       242.000         211.000
  21743515.765   -19938890.27649 -15511319.08247  21743515.158    21743528.553
       234.000         195.000
  24098837.975    15955237.47049  12435518.30545  24098837.332    24098851.684
       207.000         146.000
 00  4 20 23 11  0.0000000  0  7G17G30G26G22G 6G23G10
  21010245.346   -12420446.67249  -9659291.94447  21010244.810    21010255.484
       241.000         208.000
  23760292.813    15399008.70049  12001706.46445  23760294.420    23760316.499
       216.000         160.000
  21899879.795   -19053750.98649 -14573342.79046  21899879.769    21899892.347
       227.000         181.000
  23928336.538   -10467104.81749  -8143378.62645  23928335.708    23928351.649
       209.000         150.000
  20285114.409    -8168300.05949  -6141093.74747  20285114.308    20285124.689
       242.000         211.000
  21731224.049   -20003482.97549 -15561650.84947  21731223.217    21731236.561
       234.000         195.000
  24118453.463    16058317.28249  12515840.13245  24118453.052    24118467.433
       209.000         146.000
 00  4 20 23 11 30.0000000  0  7G17G30G26G22G 6G23G10
  21005995.460   -12442779.88049  -9676694.39947  21005995.192    21006005.516
       241.000         208.000
  23779584.032    15500383.46649  12080699.37945  23779585.256    23779606.435
       215.000         160.000
  21892893.177   -19090465.32949 -14601951.21746  21892893.315    21892905.737
       228.000         181.000
  23922064.066   -10500066.98649  -8169063.42345  23922063.480    23922078.141
       209.000         150.000
  20288790.093    -8148984.28849  -6126042.51547  20288790.183    20288800.223
       242.000         211.000
  21719006.540   -20067685.50049 -15611678.58447  21719005.775    21719019.017
       234.000         195.000
  24138080.881    16161459.51649  12596210.60145  24138079.925    24138094.752
       210.000         147.000
 00  4 20 23 12  0.0000000  0  7G17G30G26G22G 6G23G10
  21001781.083   -12464926.19149  -9693951.21947  21001780.470    21001791.444
       240.000         208.000
  23798881.128    15601788.65549  12159715.98245  23798882.776    23798904.527
       216.000         159.000
  21886011.662   -19126627.38749 -14630129.29046  21886011.460    21886024.497
       228.000         181.000
  23915888.918   -10532517.53349  -8194349.54845  23915887.306    23915903.356
       209.000         150.000
  20292559.523    -8129175.76949  -6110607.32847  20292559.473    20292569.785
       242.000         211.000
  21706862.945   -20131499.70049 -15661403.72547  21706861.722    21706875.574
       235.000         195.000
  24157716.255    16264643.34049  12676613.49145  24157716.241    24157730.202
       209.000         147.000
 00  4 20 23 12 30.0000000  0  7G17G30G26G22G 6G23G10
  20997604.093   -12486876.24149  -9711055.10847  20997603.582    20997614.329
       240.000         208.000
  23818182.930    15703218.47049  12238751.78645  23818184.524    23818206.381
       215.000         159.000
  21879234.819   -19162239.45249 -14657878.81646  21879235.011    21879246.843
       228.000         181.000
  23909814.681   -10564437.63949  -8219222.34045  23909814.320    23909828.669
       211.000         150.000
  20296423.254    -8108871.68749  -6094785.98547  20296423.319    20296433.612
       242.000         211.000
  21694793.000   -20194926.76249 -15710827.20947  21694792.018    21694805.304
       235.000         195.000
  24177360.674    16367875.02349  12757053.67045  24177359.902    24177374.342
       208.000         146.000
 00  4 20 23 13  0.0000000  0  7G17G30G26G22G 6G23G10
  20993461.365   -12508646.30149  -9728018.74547  20993460.899    20993471.566
       240.000         208.000
  23837490.208    15804677.59749  12317810.43245  23837492.267    23837513.821
       215.000         158.000
  21872562.780   -19197300.93449 -14685199.32846  21872563.040    21872574.923
       228.000         182.000
  23903841.963   -10595824.19149  -8243679.38345  23903841.615    23903856.759
       211.000         150.000
  20300381.689    -8088069.97649  -6078576.88347  20300381.778    20300391.944
       242.000         211.000
  21682796.790   -20257966.39249 -15759948.79147  21682796.033    21682809.250
       235.000         196.000
  24197014.829    16471158.19149  12837533.96245  24197015.075    24197029.979
       208.000         144.000
 00  4 20 23 13 30.0000000  0  7G17G30G26G22G 6G23G10
  20989351.914   -12530241.38849  -9744846.03747  20989351.584    20989362.162
       240.000         208.000
  23856804.832    15906175.34449  12396899.15645  23856806.546    23856828.874
       212.000         157.000
  21865994.299   -19231817.93849 -14712095.55346  21865994.587    21866006.976
       229.000         182.000
  23897969.192   -10626685.82049  -8267727.40145  23897969.040    23897983.774
       212.000         150.000
  20304434.567    -8066772.00549  -6061981.08447  20304434.792    20304445.078
       242.000         211.000
  21670871.752   -20320631.92049 -15808778.87147  21670870.798    21670884.233
       235.000         196.000
  24216679.572    16574496.81549  12918057.46845  24216680.081    24216694.160
       208.000         143.000
 00  4 20 23 14  0.0000000  0  7G17G30G26G22G 6G23G10
  20985276.379   -12551658.09049  -9761534.33547  20985275.906    20985286.491
       241.000         208.000
  23876125.538    16007704.60849  12476012.43545  23876127.121    23876149.745
       212.000         155.000
  21859528.602   -19265794.77049 -14738570.87946  21859528.843    21859540.827
       228.000         182.000
  23892193.384   -10657037.69649  -8291378.21245  23892192.729    23892207.769
       214.000         151.000
  20308579.982    -8044987.76249  -6045006.37247  20308580.202    20308590.442
       243.000         211.000
  21659017.875   -20382923.50449 -15857317.56547  21659017.154    21659030.369
       235.000         196.000
  24236356.991    16677901.99649  12998632.84545  24236356.480    24236370.393
       207.000         142.000
 00  4 20 23 14 30.0000000  0  7G17G30G26G22G 6G23G10
  20981231.920   -12572911.78649  -9778095.61647  20981231.496    20981242.246
       241.000         208.000
  23895449.566    16109251.34749  12555139.34145  23895451.503    23895474.318
       211.000         153.000
  21853167.064   -19299224.18349 -14764619.63546  21853167.367    21853179.762
       228.000         182.000
  23886512.216   -10686892.51549  -8314641.69745  23886512.112    23886526.656
       212.000         152.000
  20312816.965    -8022722.40949  -6027656.77147  20312817.109    20312827.412
       242.000         211.000
  21647235.902   -20444837.27149 -15905561.85347  21647234.771    21647248.110
       235.000         197.000
  24256048.206    16781379.72549  13079264.74445  24256047.987    24256062.018
       208.000         140.000
 00  4 20 23 15  0.0000000  0  7G17G30G26G22G 6G23G10
  20977218.702   -12594001.28049  -9794528.94847  20977218.474    20977229.148
       241.000         208.000
  23914775.360    16210806.98949  12634273.16845  23914777.084    23914799.035
       209.000         152.000
  21846910.408   -19332102.41949 -14790238.92246  21846911.028    21846923.366
       228.000         182.000
  23880924.697   -10716255.17749  -8337521.69245  23880924.040    23880939.264
       213.000         152.000
  20317145.698    -7999974.82349  -6009931.40747  20317145.933    20317156.009
       242.000         211.000
  21635524.710   -20506379.28149 -15953516.47347  21635524.098    21635537.049
       236.000         197.000
  24275749.544    16884910.74749  13159938.18545  24275748.999    24275764.010
       208.000         140.000
 00  4 20 23 15 30.0000000  0  7G17G30G26G22G 6G23G10
  20973239.653   -12614910.92249  -9810822.14147  20973239.149    20973249.843
       240.000         208.000
  23934102.198    16312368.31249  12713411.41945  23934102.995    23934126.221
       208.000         150.000
  21840758.943   -19364428.08449 -14815427.62646  21840758.897    21840770.851
       229.000         182.000
  23875430.635   -10745126.79549  -8360019.05645  23875430.074    23875445.480
       212.000         152.000
  20321566.382    -7976744.00549  -5991829.49347  20321566.372    20321576.857
       242.000         211.000
  21623885.515   -20567542.92849 -16001176.26047  21623884.836    21623897.798
       236.000         197.000
  24295460.673    16988493.06149  13240651.57745  24295460.713    24295474.832
       209.000         141.000
 00  4 20 23 16  0.0000000  0  7G17G30G26G22G 6G23G10
  20969294.792   -12635641.11949  -9826975.50647  20969294.120    20969305.098
       241.000         208.000
  23953427.803    16413923.68949  12792545.02645  23953429.296    23953452.704
       210.000         150.000
  21834714.312   -19396192.24549 -14840178.80446  21834714.242    21834725.909
       228.000         182.000
  23870029.795   -10773508.54949  -8382134.70245  23870029.043    23870044.827
       213.000         152.000
  20326080.049    -7953024.52049  -5973346.80047  20326080.197    20326090.307
       242.000         211.000
  21612321.781   -20628310.12449 -16048527.12347  21612320.912    21612334.392
       236.000         198.000
  24315182.516    17092131.25949  13321408.51845  24315182.110    24315196.187
       211.000         143.000
 00  4 20 23 16 30.0000000  0  7G17G30G26G22G 6G23G10
  20965383.986   -12656192.46749  -9842989.51447  20965383.447    20965394.103
       241.000         208.000
  23972754.689    16515485.63549  12871683.77545  23972757.335    23972778.699
       211.000         149.000
  21828779.337   -19427380.16149 -14864480.94246  21828779.311    21828791.289
       229.000         182.000
  23864723.648   -10801392.34049  -8403862.32745  23864723.046    23864737.880
       213.000         153.000
  20330688.502    -7928807.01649  -5954476.04147  20330688.577    20330698.677
       242.000         211.000
  21600832.497   -20688685.83549 -16095572.94247  21600831.815    21600844.751
       236.000         198.000
  24334910.931    17195804.54949  13402192.80645  24334910.612    24334925.896
       209.000         143.000
 00  4 20 23 17  0.0000000  0  7G17G30G26G22G 6G23G10
  20961508.112   -12676560.21549  -9858860.45747  20961507.760    20961518.239
       241.000         208.000
  23992087.296    16617077.88049  12950846.12745  23992088.073    23992112.370
       210.000         150.000
  21822954.471   -19457989.36349 -14888332.14546  21822954.373    21822966.784
       229.000         182.000
  23859513.776   -10828770.30549  -8425195.80145  23859512.743    23859528.874
       213.000         153.000
  20335392.422    -7904087.88049  -5935214.40047  20335392.501    20335402.877
       242.000         211.000
  21589416.000   -20748679.40649 -16142320.98747  21589415.539    21589428.361
       237.000         198.000
  24354644.733    17299505.79449  13482998.88445  24354644.570    24354659.845
       212.000         144.000
 00  4 20 23 17 30.0000000  0  7G17G30G26G22G 6G23G10
  20957663.993   -12696760.85649  -9874601.18847  20957663.581    20957674.067
       241.000         209.000
  24011427.079    16718708.25349  13030038.19345  24011428.944    24011451.883
       211.000         149.000
  21817237.752   -19488030.47349 -14911740.68546  21817238.020    21817249.633
       229.000         182.000
  23854401.078   -10855637.54149  -8446131.29845  23854400.592    23854415.453
       213.000         153.000
  20340189.855    -7878877.33349  -5915569.84247  20340189.870    20340200.046
       242.000         211.000
  21578072.136   -20808291.05749 -16188771.43947  21578071.452    21578084.219
       237.000         198.000
  24374385.019    17403241.14449  13563831.54245  24374385.454    24374400.912
       210.000         145.000
 00  4 20 23 18  0.0000000  0  7G17G30G26G22G 6G23G10
  20953850.609   -12716800.10949  -9890216.15747  20953850.101    20953860.846
       241.000         209.000
  24030772.987    16820370.04149  13109254.71545  24030774.701    24030798.248
       213.000         149.000
  21811628.480   -19517506.72149 -14934709.07746  21811628.394    21811640.348
       228.000         182.000
  23849386.838   -10881987.73049  -8466663.91245  23849386.713    23849402.059
       213.000         153.000
  20345079.031    -7853184.30349  -5895549.32047  20345079.125    20345089.448
       242.000         210.000
  21566797.949   -20867536.61249 -16234936.62147  21566797.097    21566809.430
       237.000         199.000
  24394127.973    17506990.42249  13644675.03445  24394127.777    24394142.455
       211.000         144.000
 00  4 20 23 18 30.0000000  0  7G17G30G26G22G 6G23G10
  20950065.382   -12736691.53749  -9905715.94447  20950065.072    20950075.694
       241.000         209.000
  24050123.538    16922055.98449  13188490.07545  24050125.555    24050148.366
       214.000         149.000
  21806124.894   -19546427.98949 -14957245.01846  21806124.894    21806137.229
       229.000         182.000
  23844473.759   -10907806.15849  -8486782.14945  23844472.965    23844487.913
       212.000         153.000
  20350060.123    -7827008.71549  -5875152.78647  20350060.236    20350070.584
       242.000         210.000
  21555591.045   -20926428.25849 -16280826.03947  21555590.405    21555603.088
       236.000         199.000
  24413870.066    17610735.58949  13725515.33045  24413869.920    24413884.807
       210.000         144.000
 00  4 20 23 19  0.0000000  0  7G17G30G26G22G 6G23G10
  20946307.396   -12756439.81949  -9921104.18547  20946307.083    20946317.662
       241.000         209.000
  24069471.845    17023729.98949  13267716.13545  24069473.380    24069496.082
       214.000         148.000
  21800723.129   -19574813.81149 -14979363.72946  21800723.293    21800735.324
       230.000         183.000
  23839663.229   -10933085.66749  -8506480.46645  23839662.525    23839677.917
       211.000         153.000
  20355133.517    -7800347.83849  -5854378.10147  20355133.834    20355144.213
       242.000         210.000
  21544454.684   -20984949.39849 -16326426.75347  21544454.015    21544466.805
       237.000         199.000
  24433615.024    17714495.88449  13806367.41045  24433614.641    24433628.902
       208.000         143.000
 00  4 20 23 19 30.0000000  0  7G17G30G26G22G 6G23G10
  20942579.407   -12776030.38049  -9936369.52747  20942579.014    20942589.646
       241.000         209.000
  24088810.852    17125355.74949  13346904.57945  24088811.853    24088835.940
       215.000         148.000
  21795424.831   -19602656.10649 -15001058.91746  21795424.462    21795437.077
       229.000         183.000
  23834954.049   -10957832.16549  -8525763.44045  23834953.415    23834969.307
       211.000         153.000
  20360298.554    -7773205.23249  -5833228.04047  20360298.539    20360309.203
       242.000         210.000
  21533392.539   -21043080.58349 -16371723.61247  21533391.673    21533404.484
       237.000         199.000
  24453363.291    17818273.31649  13887232.86745  24453362.959    24453378.231
       207.000         141.000
 00  4 20 23 20  0.0000000  0  8G17G30G26G22G21G 6G23G10
  20938884.334   -12795448.02949  -9951500.13447  20938883.892    20938894.589
       241.000         209.000
  24108140.522    17226932.13449  13426054.56245  24108142.710    24108166.078
       215.000         148.000
  21790234.399   -19629931.37749 -15022312.27046  21790234.754    21790245.823
       229.000         183.000
  23830345.296   -10982051.30949  -8544635.48045  23830344.436    23830360.061
       210.000         153.000
  24944290.167    -4219641.98949  -2975981.98345  24944287.559    24944317.173
       212.000         140.000
  20365557.078    -7745571.65749  -5811695.40647  20365557.348    20365567.576
       242.000         210.000
  21522406.021   -21100814.44249 -16416710.86347  21522405.179    21522418.012
       237.000         200.000
  24473117.079    17922079.93549  13968121.02745  24473116.194    24473131.442
       206.000         139.000
 00  4 20 23 20 30.0000000  0  8G17G30G26G22G21G 6G23G10
  20935226.435   -12814670.11449  -9966478.34947  20935225.945    20935236.732
       241.000         209.000
  24127462.133    17328465.85649  13505171.28945  24127464.184    24127487.612
       214.000         148.000
  21785156.102   -19656617.57949 -15043106.61546  21785155.850    21785167.979
       229.000         183.000
  23825838.829   -11005732.55649  -8563088.40345  23825838.285    23825854.186
       211.000         152.000
  24926880.342    -4311127.45549  -3047268.58245  24926877.742    24926907.832
       211.000         140.000
  20370913.080    -7717425.63649  -5789763.46447  20370913.350    20370923.451
       242.000         210.000
  21511500.095   -21158124.38949 -16461367.80347  21511499.509    21511511.979
       237.000         200.000
  24492880.179    18025935.53449  14049047.33745  24492879.622    24492894.547
       205.000         139.000
 00  4 20 23 21  0.0000000  0  8G17G30G26G22G21G 6G23G10
  20931607.419   -12833687.96849  -9981297.42347  20931606.970    20931617.665
       241.000         209.000
  24146773.227    17429944.05049  13584244.75745  24146773.636    24146798.839
       216.000         147.000
  21780188.241   -19682723.36949 -15063448.67446  21780188.289    21780200.164
       229.000         183.000
  23821429.339   -11028904.35349  -8581144.33845  23821428.039    23821443.737
       210.000         152.000
  24909499.627    -4402460.34749  -3118436.25845  24909497.694    24909526.321
       211.000         141.000
  20376361.277    -7688795.19449  -5767454.05347  20376361.568    20376371.739
       242.000         210.000
  21500672.237   -21215024.53149 -16505705.40947  21500671.665    21500684.362
       237.000         200.000
  24512649.222    18129822.00249  14129997.72345  24512648.596    24512664.157
       207.000         139.000
 00  4 20 23 21 30.0000000  0  8G17G30G26G22G21G 6G23G10
  20928028.397   -12852495.79649  -9995952.84147  20928027.958    20928038.633
       241.000         209.000
  24166079.472    17531397.50149  13663298.94245  24166081.200    24166105.146
       214.000         146.000
  21775333.966   -19708232.19549 -15083325.59546  21775334.260    21775346.806
       229.000         183.000
  23817116.085   -11051570.73349  -8598806.43745  23817115.524    23817130.820
       209.000         151.000
  24892144.864    -4493657.32649  -3189498.03645  24892143.068    24892171.073
       212.000         142.000
  20381902.231    -7659677.36349  -5744764.85847  20381902.393    20381912.847
       242.000         210.000
  21489918.514   -21271535.02649 -16549739.40547  21489917.809    21489930.776
       237.000         200.000
  24532421.941    18233727.60949  14210963.01545  24532422.607    24532435.493
       205.000         140.000
 00  4 20 23 22  0.0000000  0  8G17G30G26G22G21G 6G23G10
  20924486.118   -12871110.42849 -10010457.71347  20924485.850    20924496.393
       241.000         209.000
  24185384.878    17632846.79049  13742349.89045  24185386.335    24185412.196
       214.000         146.000
  21770592.750   -19733147.00049 -15102739.62746  21770593.162    21770604.947
       230.000         183.000
  23812900.862   -11073721.74249  -8616066.95545  23812900.292    23812915.598
       211.000         151.000
  24874814.991    -4584723.64749  -3260457.99245  24874812.725    24874841.461
       211.000         145.000
  20387540.503    -7630048.29549  -5721677.30547  20387540.769    20387551.106
       242.000         210.000
  21479237.241   -21327664.89049 -16593476.80647  21479236.594    21479249.093
       237.000         201.000
  24552195.492    18337637.88549  14291931.96245  24552195.299    24552210.769
       205.000         140.000
 00  4 20 23 22 30.0000000  0  8G17G30G26G22G21G 6G23G10
  20920980.886   -12889530.39849 -10024810.90347  20920980.347    20920991.198
       241.000         209.000
  24204690.249    17734295.58249  13821400.44045  24204692.220    24204716.971
       215.000         146.000
  21765962.576   -19757478.31349 -15121698.98546  21765962.837    21765974.807
       230.000         184.000
  23808784.546   -11095352.89849  -8632922.40645  23808784.531    23808799.194
       210.000         151.000
  24857512.530    -4675645.66349  -3331305.52545  24857510.594    24857538.903
       210.000         147.000
  20393278.920    -7599892.73649  -5698179.50347  20393279.187    20393289.699
       241.000         210.000
  21468631.639   -21383396.85149 -16636904.15247  21468631.136    21468643.466
       238.000         201.000
  24571966.714    18441535.99149  14372891.41945  24571966.462    24571982.502
       205.000         141.000
 00  4 20 23 23  0.0000000  0  8G17G30G26G22G21G 6G23G10
  20917512.756   -12907755.23749 -10039012.04447  20917512.348    20917523.172
       241.000         209.000
  24223998.483    17835759.11149  13900462.47245  24224000.953    24224025.460
       215.000         146.000
  21761444.170   -19781222.41249 -15140200.77546  21761444.216    21761455.514
       230.000         184.000
  23804767.926   -11116460.49449  -8649369.87845  23804767.852    23804781.963
       212.000         151.000
  24840239.263    -4766413.96149  -3402033.26245  24840236.972    24840266.126
       207.000         146.000
  20399118.787    -7569204.24149  -5674266.41847  20399118.964    20399129.416
       242.000         210.000
  21458102.975   -21438724.70149 -16680016.61447  21458102.365    21458114.566
       237.000         201.000
  24591738.760    18545438.43949  14453854.26845  24591738.254    24591753.349
       205.000         142.000
 00  4 20 23 23 30.0000000  0  8G17G30G26G22G21G 6G23G10
  20914078.534   -12925801.98449 -10053074.40947  20914078.045    20914088.815
       241.000         209.000
  24243308.463    17937232.13649  13979531.90945  24243308.996    24243335.110
       213.000         146.000
  21757037.945   -19804376.98049 -15158243.18946  21757037.956    21757050.103
       230.000         184.000
  23800850.800   -11137045.11549  -8665409.84645  23800850.554    23800865.255
       211.000         151.000
  24822997.380    -4857017.04149  -3472632.25645  24822994.558    24823022.870
       204.000         144.000
  20405061.317    -7537976.04949  -5649932.79347  20405061.420    20405072.166
       242.000         210.000
  21447651.070   -21493649.20949 -16722814.78647  21447650.401    21447662.917
       238.000         201.000
  24611513.080    18649352.47649  14534826.13645  24611512.534    24611528.548
       204.000         142.000
 00  4 20 23 24  0.0000000  0  8G17G30G26G22G21G 6G23G10
  20910677.749   -12943673.11349 -10066999.93347  20910677.319    20910688.144
       241.000         209.000
  24262614.906    18038686.42749  14058586.73945  24262615.241    24262642.907
       213.000         147.000
  21752742.714   -19826948.23349 -15175831.08646  21752742.859    21752754.270
       231.000         184.000
  23797032.848   -11157108.27049  -8681043.47345  23797032.397    23797047.694
       213.000         151.000
  24805790.832    -4947434.84249  -3543086.90345  24805788.780    24805816.962
       204.000         142.000
  20411103.149    -7506225.98149  -5625192.51647  20411103.497    20411113.853
       242.000         210.000
  21437280.411   -21548146.75849 -16765280.26147  21437279.980    21437292.321
       238.000         202.000
  24631291.459    18753288.28349  14615814.97245  24631290.742    24631306.295
       203.000         142.000
 00  4 20 23 24 30.0000000  0  8G17G30G26G22G21G 6G23G10
  20907312.152   -12961359.25749 -10080781.31347  20907311.819    20907322.288
       241.000         209.000
  24281913.314    18140098.39949  14137608.57745  24281914.620    24281940.400
       213.000         146.000
  21748558.444   -19848936.39049 -15192964.60446  21748558.446    21748569.956
       230.000         184.000
  23793314.285   -11176649.43549  -8696270.35845  23793313.682    23793328.937
       212.000         152.000
  24788618.115    -5037674.89149  -3613403.05045  24788615.978    24788644.259
       206.000         142.000
  20417239.102    -7473981.37749  -5600066.88447  20417239.229    20417249.718
       242.000         210.000
  21426991.428   -21602215.15149 -16807411.33647  21426990.743    21427003.045
       238.000         202.000
  24651077.208    18857262.98649  14696834.11045  24651076.685    24651092.957
       202.000         142.000
 00  4 20 23 25  0.0000000  0  8G17G30G26G22G21G 6G23G10
  20903979.514   -12978872.27149 -10094427.78447  20903979.146    20903989.891
       241.000         209.000
  24301201.208    18241454.91549  14216587.21045  24301204.466    24301228.354
       212.000         145.000
  21744486.392   -19870334.60449 -15209638.44446  21744486.665    21744497.689
       231.000         185.000
  23789695.448   -11195667.03449  -8711089.28145  23789695.007    23789710.416
       213.000         152.000
  24771475.313    -5127758.02649  -3683596.94445  24771472.646    24771499.110
       202.000         141.000
  20423466.707    -7441255.22549  -5574566.01647  20423466.848    20423477.497
       241.000         210.000
  21416780.285   -21655874.48849 -16849223.66447  21416779.872    21416792.191
       238.000         202.000
  24670872.945    18961289.69049  14777893.77345  24670872.700    24670887.764
       204.000         141.000
 00  4 20 23 25 30.0000000  0  8G17G30G26G22G21G 6G23G10
  20900678.175   -12996220.68849 -10107946.00347  20900677.892    20900688.602
       241.000         209.000
  24320475.172    18342738.32849  14295508.87545  24320477.764    24320502.744
       211.000         144.000
  21740526.519   -19891143.55949 -15225853.11546  21740526.796    21740538.195
       230.000         185.000
  23786174.434   -11214170.10649  -8725507.26745  23786174.034    23786189.564
       213.000         152.000
  24754359.386    -5217699.32849  -3753680.31945  24754357.015    24754385.325
       203.000         140.000
  20429785.259    -7408051.01449  -5548692.64047  20429785.544    20429795.802
       242.000         210.000
  21406645.849   -21709130.65449 -16890721.83747  21406645.178    21406657.273
       238.000         202.000
  24690674.171    19065345.54349  14858976.15545  24690674.022    24690687.729
       202.000         139.000
 00  4 20 23 26  0.0000000  0  8G17G30G26G22G21G 6G23G10
  20897409.970   -13013395.00749 -10121328.55947  20897409.464    20897420.294
       242.000         210.000
  24339735.106    18443948.23349  14374373.26145  24339736.581    24339762.553
       211.000         146.000
  21736679.011   -19911361.98649 -15241607.63646  21736679.710    21736690.726
       230.000         185.000
  23782752.420   -11232152.89749  -8739519.84145  23782751.724    23782766.123
       212.000         152.000
  24737267.891    -5307511.89449  -3823663.37145  24737264.798    24737294.024
       196.000         137.000
  20436194.911    -7374368.23049  -5522446.34947  20436195.256    20436205.548
       242.000         209.000
  21396588.358   -21761982.37549 -16931904.85647  21396587.980    21396600.236
       238.000         203.000
  24710479.648    19169423.60049  14940075.81245  24710479.811    24710493.059
       202.000         138.000
 00  4 20 23 26 30.0000000  0  8G17G30G26G22G21G 6G23G10
  20894176.266   -13030388.09949 -10134569.89947  20894175.603    20894186.493
       242.000         210.000
  24358985.233    18545106.53149  14453197.44745  24358987.034    24359012.645
       209.000         145.000
  21732946.324   -19930977.01149 -15256891.97346  21732946.634    21732957.805
       230.000         185.000
  23779430.024   -11249612.08549  -8753124.41145  23779430.473    23779444.771
       213.000         152.000
  24720199.133    -5397205.49748  -3893553.73845  24720196.384    24720223.413
       189.000         135.000
  20442697.676    -7340196.01949  -5495818.68647  20442697.965    20442708.327
       241.000         209.000
  21386603.107   -21814454.76549 -16972792.29347  21386602.823    21386614.526
       238.000         203.000
  24730283.914    19273495.40749  15021170.60845  24730284.640    24730299.779
       201.000         137.000
 00  4 20 23 27  0.0000000  0  7G17G30G26G22G21G 6G23
  20890982.561   -13047170.91549 -10147647.38747  20890982.184    20890992.756
       242.000         210.000
  24378231.977    18646247.28649  14532007.94745  24378234.190    24378258.740
       207.000         146.000
  21729334.044   -19949959.19449 -15271683.20046  21729334.225    21729346.210
       230.000         185.000
  23776211.766   -11266524.36949  -8766302.84745  23776210.672    23776227.070
       211.000         152.000
  24703159.571    -5486745.31649  -3963324.27145  24703157.500    24703184.459
       197.000         135.000
  20449299.812    -7305501.58249  -5468784.08947  20449300.264    20449310.560
       241.000         209.000
  21376692.045   -21866537.24549 -17013375.90547  21376691.504    21376703.517
       239.000         203.000
 00  4 20 23 27 30.0000000  0  7G17G30G26G22G21G 6G23
  20887826.725   -13063754.95149 -10160569.98947  20887826.449    20887836.948
       241.000         210.000
  24397469.590    18747339.72649  14610780.80145  24397471.422    24397498.125
       207.000         144.000
  21725836.737   -19968337.39249 -15286003.77346  21725837.056    21725848.252
       230.000         185.000
  23773094.371   -11282905.98749  -8779067.73445  23773093.370    23773108.384
       212.000         151.000
  24686145.830    -5576149.90049  -4032989.45445  24686144.608    24686171.772
       198.000         135.000
  20455995.665    -7270314.78449  -5441365.83847  20455995.739    20456006.457
       241.000         209.000
  21366851.261   -21918250.36849 -17053671.70947  21366850.817    21366863.027
       239.000         203.000
 00  4 20 23 28  0.0000000  0  7G17G30G26G22G21G 6G23
  20884705.083   -13080159.31049 -10173352.58147  20884704.440    20884715.215
       242.000         210.000
  24416693.401    18848359.66949  14689497.16545  24416695.224    24416721.607
       206.000         144.000
  21722450.653   -19986130.90549 -15299868.76046  21722450.391    21722462.674
       231.000         185.000
  23770075.378   -11298770.89549  -8791430.01645  23770075.089    23770090.658
       210.000         150.000
  24669155.691    -5665430.30049  -4102557.90745  24669154.350    24669180.422
       197.000         133.000
  20462780.197    -7234661.98749  -5413584.46547  20462780.612    20462791.119
       241.000         209.000
  21357075.776   -21969620.30449 -17093700.09747  21357075.514    21357087.175
       239.000         203.000
 00  4 20 23 28 30.0000000  0  7G17G30G26G22G21G 6G23
  20881614.957   -13096397.80649 -10186005.93047  20881614.629    20881625.325
       241.000         210.000
  24435901.443    18949296.63249  14768148.87545  24435902.717    24435927.903
       201.000         143.000
  21719175.029   -20003344.04949 -15313281.51546  21719175.817    21719186.238
       230.000         185.000
  23767151.964   -11314133.23849  -8803400.68745  23767151.843    23767166.854
       212.000         150.000
  24652192.444    -5754571.03649  -4172017.49545  24652189.694    24652218.145
       200.000         137.000
  20469652.753    -7198546.56649  -5385442.61447  20469652.994    20469663.491
       242.000         209.000
  21347365.524   -22020647.59949 -17133461.49047  21347364.937    21347376.829
       239.000         204.000
 00  4 20 23 29  0.0000000  0  7G17G30G26G22G21G 6G23
  20878555.376   -13112476.11949 -10198534.46247  20878555.097    20878565.630
       242.000         210.000
  24455091.729    19050140.57749  14846728.08545  24455092.911    24455119.827
       204.000         143.000
  21716008.153   -20019985.66649 -15326248.92646  21716008.630    21716019.796
       230.000         185.000
  23764323.333   -11328998.45549  -8814984.00745  23764323.032    23764339.001
       211.000         150.000
  24635257.625    -5843561.07949  -4241359.67245  24635255.887    24635282.346
       205.000         138.000
  20476615.445    -7161957.60049  -5356931.76547  20476615.764    20476626.209
       241.000         209.000
  21337726.697   -22071299.44649 -17172930.32647  21337726.070    21337738.099
       239.000         204.000
 00  4 20 23 29 30.0000000  0  7G17G30G26G22G21G 6G23
  20875528.030   -13128384.81149 -10210930.82547  20875527.703    20875538.305
       243.000         210.000
  24474266.370    19150902.14749  14925243.10245  24474268.536    24474294.273
       203.000         143.000
  21712951.959   -20036045.64149 -15338763.10646  21712952.456    21712963.315
       231.000         185.000
  23761591.047   -11343356.63849  -8826172.21545  23761591.203    23761604.865
       211.000         151.000
  24618353.863    -5932389.01749  -4310575.57145  24618351.580    24618378.747
       201.000         141.000
  20483672.258    -7124873.86449  -5328035.38047  20483672.459    20483682.998
       241.000         209.000
  21328166.853   -22121536.30849 -17212075.80347  21328166.288    21328178.425
       239.000         204.000
 00  4 20 23 30  0.0000000  0  7G17G30G26G22G21G 6G23
  20872534.558   -13144115.62449 -10223188.57647  20872534.215    20872544.645
       243.000         210.000
  24493430.456    19251608.24549  15003714.90745  24493432.410    24493458.396
       204.000         142.000
  21710009.725   -20051506.62149 -15350810.54646  21710009.963    21710021.500
       230.000         185.000
  23758955.421   -11357206.81649  -8836964.57245  23758954.918    23758970.394
       212.000         151.000
  24601485.066    -6021032.52849  -4379647.72845  24601483.787    24601509.771
       208.000         139.000
  20490828.664    -7087266.86749  -5298731.26047  20490828.954    20490839.448
       241.000         209.000
  21318689.087   -22171341.71149 -17250885.07347  21318688.589    21318700.612
       239.000         204.000
 00  4 20 23 30 30.0000000  0  7G17G30G26G22G21G 6G23
  20869576.326   -13159661.00049 -10235301.83747  20869576.013    20869586.682
       243.000         210.000
  24512588.266    19352280.84549  15082160.60945  24512590.886    24512616.552
       201.000         142.000
  21707183.809   -20066356.72449 -15362381.96446  21707184.269    21707195.361
       231.000         185.000
  23756417.678   -11370542.61049  -8847356.11945  23756417.534    23756431.848
       212.000         151.000
  24584651.576    -6109490.59249  -4448575.43545  24584649.391    24584675.350
       205.000         140.000
  20498086.400    -7049127.33249  -5269012.17847  20498086.450    20498097.154
       241.000         208.000
  21309298.363   -22220689.67349 -17289337.89847  21309297.890    21309309.675
       239.000         204.000
 00  4 20 23 31  0.0000000  0  7G17G30G26G22G21G 6G23
  20866655.912   -13175007.89449 -10247260.43147  20866655.675    20866666.110
       243.000         210.000
  24531740.904    19452926.72449  15160585.48745  24531741.539    24531769.844
       201.000         142.000
  21704478.083   -20080575.28449 -15373461.28546  21704478.522    21704489.787
       231.000         186.000
  23753980.536   -11383350.11249  -8857336.01045  23753980.312    23753995.411
       212.000         151.000
  24567851.321    -6197774.01949  -4517367.06445  24567849.861    24567874.840
       208.000         140.000
  20505444.827    -7010458.73349  -5238880.83447  20505445.336    20505455.583
       241.000         208.000
  21299995.683   -22269575.12649 -17327430.32947  21299995.270    21300007.073
       239.000         204.000
 00  4 20 23 31 30.0000000  0  7G17G30G26G22G21G 6G23
  20863771.108   -13190167.75949 -10259073.29047  20863770.742    20863781.441
       243.000         210.000
  24550886.554    19553535.98949  15238981.84245  24550888.414    24550914.225
       204.000         142.000
  21701895.071   -20094148.65749 -15384037.85946  21701895.450    21701907.104
       231.000         185.000
  23751645.916   -11395618.88149  -8866896.10745  23751645.828    23751661.256
       212.000         152.000
  24551085.532    -6285876.31749  -4586017.51445  24551083.099    24551110.348
       212.000         144.000
  20512900.633    -6971278.42049  -5208350.75347  20512900.934    20512911.540
       241.000         208.000
  21290775.189   -22318028.51049 -17365186.08447  21290774.613    21290786.576
       239.000         205.000
 00  4 20 23 32  0.0000000  0  7G17G30G26G22G21G 6G23
  20860917.058   -13205165.74349 -10270760.00647  20860916.718    20860927.086
       243.000         210.000
  24570021.851    19654090.72349  15317335.71545  24570023.926    24570051.239
       202.000         143.000
  21699432.828   -20107087.71149 -15394120.14446  21699433.075    21699444.693
       230.000         186.000
  23749410.081   -11407368.43749  -8876051.62145  23749409.766    23749425.413
       214.000         152.000
  24534353.129    -6373803.28849  -4654531.39845  24534350.872    24534375.251
       210.000         140.000
  20520446.602    -6931624.14649  -5177451.34947  20520446.770    20520457.580
       241.000         208.000
  21281630.782   -22366082.33349 -17402630.49747  21281630.494    21281642.286
       240.000         205.000
 00  4 20 23 32 30.0000000  0  7G17G30G26G22G21G 6G23
  20858091.209   -13220015.65549 -10282331.34547  20858090.694    20858101.299
       243.000         210.000
  24589141.520    19754562.72349  15395625.11945  24589143.070    24589170.412
       207.000         144.000
  21697088.770   -20119405.39049 -15403718.26546  21697089.028    21697099.812
       231.000         186.000
  23747270.285   -11418613.19249  -8884813.77945  23747269.547    23747284.282
       212.000         152.000
  24517648.859    -6461582.14549  -4722929.87745  24517647.306    24517671.377
       211.000         141.000
  20528077.229    -6891525.28249  -5146205.52247  20528077.688    20528088.192
       241.000         208.000
  21272558.732   -22413755.84549 -17439778.56647  21272558.504    21272569.977
       240.000         205.000
 00  4 20 23 33  0.0000000  0  7G17G30G26G22G21G 6G23
  20855293.383   -13234718.23449 -10293787.87647  20855293.061    20855303.370
       243.000         210.000
  24608239.181    19854919.49749  15473824.73445  24608240.180    24608268.113
       204.000         146.000
  21694858.327   -20131126.18649 -15412851.29146  21694858.752    21694869.744
       231.000         186.000
  23745226.031   -11429355.97349  -8893184.79545  23745225.502    23745240.669
       212.000         152.000
  24500972.843    -6549212.64949  -4791212.80045  24500970.781    24500996.699
       214.000         141.000
  20535791.200    -6850988.03249  -5114618.09447  20535791.497    20535801.944
       241.000         208.000
  21263553.803   -22461076.57349 -17476651.73447  21263553.158    21263564.934
       239.000         205.000
 00  4 20 23 33 30.0000000  0  7G17G30G26G22G21G 6G23
  20852524.192   -13249270.30249 -10305127.12647  20852523.668    20852534.022
       243.000         210.000
  24627313.388    19955153.76049  15551928.92445  24627314.925    24627341.726
       205.000         145.000
  21692737.730   -20142269.75549 -15421534.52746  21692737.870    21692749.405
       232.000         186.000
  23743276.077   -11439603.22249  -8901169.68945  23743276.222    23743290.769
       212.000         152.000
  24484325.615    -6636691.98149  -4859377.87345  24484323.815    24484347.727
       212.000         140.000
  20543590.065    -6810004.83349  -5082683.17247  20543590.148    20543601.026
       240.000         208.000
  21254616.065   -22508043.99649 -17513249.60447  21254615.656    21254627.240
       239.000         205.000
 00  4 20 23 34  0.0000000  0  7G17G30G26G22G21G 6G23
  20849789.224   -13263642.60149 -10316326.29647  20849788.901    20849799.308
       243.000         210.000
  24646367.472    20055281.96549  15629950.45345  24646369.374    24646396.033
       208.000         146.000
  21690726.841   -20152836.58049 -15429768.32746  21690726.892    21690738.378
       231.000         186.000
  23741419.481   -11449359.51449  -8908772.01745  23741418.858    23741434.285
       212.000         152.000
  24467703.052    -6724041.21749  -4927441.61745  24467700.863    24467726.943
       215.000         141.000
  20551476.906    -6768559.10949  -5050387.83947  20551477.088    20551487.668
       240.000         207.000
  21245750.769   -22554630.80149 -17549550.88847  21245750.163    21245761.949
       240.000         205.000
 00  4 20 23 34 30.0000000  0  7G17G30G26G22G21G 6G23
  20847092.158   -13277815.59749 -10327370.16547  20847091.789    20847102.227
       243.000         211.000
  24665401.278    20155303.50049  15707888.85045  24665403.676    24665429.574
       214.000         146.000
  21688829.760   -20162805.49249 -15437536.22546  21688830.105    21688841.338
       231.000         186.000
  23739660.326   -11458603.87849  -8915975.44045  23739660.245    23739675.062
       214.000         152.000
  24451107.281    -6811249.97249  -4995395.88645  24451106.121    24451129.374
       214.000         141.000
  20559458.070    -6726617.95949  -5017706.46247  20559458.283    20559469.024
       240.000         207.000
  21236960.641   -22600822.64649 -17585544.41147  21236960.248    21236971.715
       240.000         206.000
 00  4 20 23 35  0.0000000  0  7G17G30G26G22G21G 6G23
  20844434.183   -13291783.32749 -10338254.07947  20844433.709    20844444.520
       243.000         211.000
  24684415.851    20255223.99949  15785748.54445  24684417.353    24684443.854
       211.000         146.000
  21687048.213   -20172167.20749 -15444830.98946  21687048.739    21687059.801
       231.000         186.000
  23738000.855   -11467324.42249  -8922770.69445  23737999.875    23738015.711
       213.000         153.000
  24434542.585    -6898295.62549  -5063223.09645  24434539.590    24434564.866
       211.000         140.000
  20567537.849    -6684158.36549  -4984621.10447  20567538.170    20567548.949
       240.000         207.000
  21228249.426   -22646599.76749 -17621214.77147  21228248.879    21228260.565
       240.000         206.000
 00  4 20 23 35 30.0000000  0  7G17G30G26G22G21G 6G23
  20841815.139   -13305546.12549 -10348978.31247  20841815.022    20841825.567
       243.000         210.000
  24703414.429    20355060.69249  15863542.95145  24703415.891    24703442.952
       210.000         146.000
  21685386.566   -20180898.78849 -15451634.75146  21685386.659    21685398.525
       231.000         186.000
  23736441.211   -11475520.95549  -8929157.61645  23736441.044    23736456.283
       214.000         154.000
  24418009.978    -6985172.82549  -5130918.95345  24418008.105    24418032.569
       209.000         142.000
  20575719.944    -6641161.28049  -4951116.92247  20575720.405    20575730.960
       240.000         207.000
  21219621.092   -22691941.37949 -17656545.77847  21219620.642    21219632.539
       240.000         206.000
 00  4 20 23 36  0.0000000  0  7G17G30G26G22G21G 6G23
  20839234.843   -13319105.58249 -10359544.09647  20839234.498    20839245.136
       243.000         210.000
  24722398.694    20454822.14349  15941278.73945  24722400.308    24722427.960
       211.000         144.000
  21683847.330   -20188987.08749 -15457937.26346  21683847.555    21683858.800
       230.000         186.000
  23734982.824   -11483184.93749  -8935129.57945  23734982.014    23734997.963
       213.000         153.000
  24401512.544    -7071865.02049  -5198470.69945  24401512.235    24401535.872
       210.000         143.000
  20584005.993    -6597618.00649  -4917187.14147  20584006.189    20584017.300
       240.000         207.000
  21211075.874   -22736846.35749 -17691536.55247  21211075.478    21211086.966
       240.000         206.000
 00  4 20 23 36 30.0000000  0  7G17G30G26G22G21G 6G23
  20836689.209   -13332482.77349 -10369967.85347  20836688.751    20836699.468
       243.000         210.000
  24741365.904    20554493.39649  16018944.22245  24741367.907    24741394.891
       214.000         144.000
  21682429.339   -20196438.50249 -15463743.50146  21682429.806    21682440.992
       231.000         186.000
  23733627.471   -11490307.37849  -8940679.55545  23733626.712    23733642.211
       213.000         154.000
  24385055.596    -7158344.18549  -5265856.45445  24385053.119    24385078.763
       209.000         142.000
  20592396.378    -6553526.45049  -4882830.13347  20592396.600    20592407.598
       240.000         207.000
  21202611.291   -22781327.56849 -17726197.11747  21202610.868    21202622.684
       240.000         206.000
 00  4 20 23 37  0.0000000  0  7G17G30G26G22G21G 6G23
  20834178.890   -13345674.41349 -10380247.02547  20834178.468    20834189.081
       244.000         210.000
  24760316.756    20654079.19649  16096543.11845  24760317.969    24760345.175
       210.000         143.000
  21681129.710   -20203267.71649 -15469064.90646  21681130.326    21681141.398
       231.000         186.000
  23732374.928   -11496889.07249  -8945808.16445  23732373.999    23732389.642
       212.000         154.000
  24368638.370    -7244614.93149  -5333079.75845  24368637.893    24368659.296
       210.000         141.000
  20600887.969    -6508903.01149  -4848058.66747  20600888.552    20600899.237
       240.000         207.000
  21194227.133   -22825386.12749 -17760528.34247  21194226.602    21194238.437
       240.000         207.000
 00  4 20 23 37 30.0000000  0  7G17G30G26G22G21G 6G23
  20831704.334   -13358678.13249 -10390379.76747  20831703.891    20831714.571
       243.000         210.000
  24779251.419    20753580.49749  16174076.21945  24779253.100    24779280.130
       211.000         140.000
  21679948.968   -20209472.30249 -15473899.60546  21679949.203    21679960.145
       231.000         186.000
  23731223.632   -11502939.18349  -8950522.55245  23731223.156    23731239.047
       215.000         154.000
  24352260.813    -7330676.89449  -5400140.41645  24352259.152    24352283.387
       212.000         143.000
  20609477.217    -6463766.24349  -4812887.20647  20609477.426    20609488.191
       240.000         207.000
  21185918.887   -22869045.84049 -17794548.78347  21185918.394    21185930.068
       241.000         207.000
 00  4 20 23 38  0.0000000  0  7G17G30G26G22G21G 6G23
  20829263.613   -13371503.96549 -10400373.89847  20829263.101    20829273.582
       243.000         210.000
  24798167.364    20852983.04349  16251532.37445  24798167.456    24798196.699
       213.000         141.000
  21678885.105   -20215062.74949 -15478255.74546  21678885.390    21678896.308
       231.000         186.000
  23730172.510   -11508462.80049  -8954826.67945  23730171.904    23730187.892
       214.000         154.000
  24335920.317    -7416544.58049  -5467049.68345  24335918.664    24335940.347
       209.000         142.000
  20618158.392    -6418146.55049  -4777339.44547  20618158.546    20618169.463
       240.000         207.000
  21177681.991   -22912330.58449 -17828277.03947  21177681.686    21177693.167
       241.000         207.000
 00  4 20 23 38 30.0000000  0  6G17G26G22G21G 6G23
  20826853.515   -13384169.07049 -10410242.78447  20826853.279    20826863.676
       243.000         210.000
  21677934.346   -20220058.69849 -15482148.65246  21677935.198    21677946.049
       230.000         186.000
  23729218.762   -11513474.86649  -8958732.21145  23729218.534    23729233.764
       214.000         154.000
  24319611.373    -7502245.94549  -5533829.33645  24319609.655    24319632.633
       210.000         143.000
  20626925.644    -6372074.65049  -4741439.31347  20626925.916    20626936.518
       240.000         207.000
  21169513.766   -22955254.37549 -17861724.03347  21169513.571    21169524.880
       242.000         207.000
 00  4 20 23 39  0.0000000  0  6G17G26G22G21G 6G23
  20824470.795   -13396690.26249 -10419999.53447  20824470.589    20824480.987
       243.000         210.000
  21677092.741   -20224481.07749 -15485594.60846  21677092.631    21677104.154
       230.000         186.000
  23728356.204   -11518007.52049  -8962264.17045  23728355.551    23728371.966
       213.000         154.000
  24303327.157    -7587817.58249  -5600507.95545  24303325.498    24303348.613
       206.000         143.000
  20635771.444    -6325589.71749  -4705217.33947  20635771.683    20635782.520
       240.000         207.000
  21161411.136   -22997833.71449 -17894902.62947  21161410.780    21161422.241
       241.000         207.000
 00  4 20 23 39 30.0000000  0  6G17G26G22G21G 6G23
  20822119.031   -13409048.65249 -10429629.42947  20822118.657    20822129.353
       243.000         210.000
  21676366.953   -20228294.70149 -15488566.21746  21676367.583    21676378.940
       231.000         186.000
  23727590.172   -11522033.55949  -8965401.37345  23727589.941    23727605.084
       214.000         155.000
  24287072.079    -7673236.23849  -5667067.30245  24287070.751    24287092.699
       204.000         143.000
  20644703.938    -6278649.43249  -4668640.54447  20644704.299    20644714.903
       240.000         206.000
  21153380.005   -23040037.09749 -17927788.27147  21153379.880    21153391.076
       241.000         208.000
 00  4 20 23 40  0.0000000  0  6G17G26G22G21G 6G23
  20819799.271   -13421238.97749 -10439128.36247  20819799.043    20819809.414
       243.000         210.000
  21675755.756   -20231506.34649 -15491068.75846  21675755.976    21675766.972
       230.000         186.000
  23726921.358   -11525548.17349  -8968140.04945  23726920.954    23726935.794
       214.000         155.000
  24270844.780    -7758508.88149  -5733512.91645  24270840.227    24270865.139
       205.000         145.000
  20653723.564    -6231251.09649  -4631706.82047  20653724.004    20653734.787
       240.000         206.000
  21145425.661   -23081837.09049 -17960359.58647  21145425.097    21145436.754
       241.000         208.000
 00  4 20 23 40 30.0000000  0  6G17G26G22G21G 6G23
  20817517.059   -13433231.92649 -10448473.49647  20817516.423    20817527.145
       243.000         210.000
  21675260.619   -20234108.10349 -15493096.04746  21675261.469    21675272.037
       231.000         186.000
  23726349.443   -11528553.77349  -8970482.09245  23726348.890    23726364.019
       212.000         155.000
  24254648.999    -7843615.63349  -5799829.26345  24254647.897    24254671.094
       211.000         146.000
  20662833.429    -6183378.70549  -4594403.70947  20662833.828    20662844.461
       240.000         206.000
  21137552.626   -23123209.69349 -17992597.87047  21137552.097    21137563.563
       241.000         208.000
 00  4 20 23 41  0.0000000  0  6G17G26G22G21G 6G23
  20815277.493   -13445000.80349 -10457644.02947  20815277.213    20815287.619
       243.000         210.000
  21674886.327   -20236074.99749 -15494628.65146  21674886.968    21674898.174
       231.000         186.000
  23725874.247   -11531050.92749  -8972427.94945  23725873.869    23725889.226
       213.000         154.000
  24238488.129    -7928539.05749  -5866002.78145  24238487.224    24238510.303
       207.000         147.000
  20672038.020    -6135008.47949  -4556712.67647  20672038.146    20672048.854
       240.000         206.000
  21129763.551   -23164140.84949 -18024492.17647  21129762.979    21129774.464
       242.000         208.000
 00  4 20 23 41 30.0000000  0  6G17G26G22G21G 6G23
  20813084.806   -13456523.50349 -10466622.73747  20813084.411    20813094.930
       243.000         210.000
  21674635.155   -20237394.69949 -15495656.95346  21674635.682    21674646.703
       231.000         186.000
  23725497.583   -11533030.75449  -8973970.69445  23725497.540    23725511.761
       215.000         155.000
  24222363.871    -8013270.26349  -5932026.51745  24222360.849    24222384.774
       204.000         146.000
  20681339.549    -6086128.75149  -4518624.62547  20681339.926    20681350.801
       240.000         206.000
  21122057.827   -23204634.30349 -18056045.41047  21122057.234    21122068.581
       241.000         208.000
 00  4 20 23 42  0.0000000  0  6G17G26G22G21G 6G23
  20810941.262   -13467787.77049 -10475400.06447  20810940.985    20810951.463
       242.000         210.000
  21674508.793   -20238058.51649 -15496174.17346  21674508.690    21674520.137
       231.000         186.000
  23725221.722   -11534480.34149  -8975100.26145  23725220.352    23725237.202
       214.000         155.000
  24206280.072    -8097788.46049  -5997884.25945  24206278.512    24206299.085
       214.000         147.000
  20690735.290    -6036754.11449  -4480150.92347  20690735.482    20690746.395
       240.000         206.000
  21114436.270   -23244685.25649 -18087253.84247  21114436.150    21114447.192
       242.000         208.000
 00  4 20 23 42 30.0000000  0  6G17G26G22G21G 6G23
  20808841.389   -13478822.66249 -10483998.66147  20808840.819    20808851.420
       243.000         210.000
  21674508.141   -20238061.46749 -15496176.41746  21674508.630    21674519.227
       230.000         186.000
  23725045.984   -11535403.88449  -8975819.93445  23725045.453    23725061.103
       214.000         155.000
  24190236.823    -8182094.13849  -6063576.43045  24190236.798    24190257.713
       208.000         149.000
  20700224.842    -5986886.20749  -4441292.85947  20700224.873    20700235.615
       241.000         206.000
  21106894.367   -23284318.09449 -18118136.46847  21106893.881    21106905.150
       242.000         208.000
 00  4 20 23 43  0.0000000  0  6G17G26G22G21G 6G23
  20806776.065   -13489676.00549 -10492455.79147  20806775.909    20806786.220
       242.000         210.000
  21674631.082   -20237415.30749 -15495672.87846  21674631.365    21674642.734
       231.000         186.000
  23724968.795   -11535809.90549  -8976136.34245  23724968.316    23724984.234
       215.000         156.000
  24174231.356    -8266201.21149  -6129113.83745  24174229.019    24174251.865
       211.000         148.000
  20709805.966    -5936537.30849  -4402060.00047  20709806.299    20709817.028
       241.000         205.000
  21099425.424   -23323567.11649 -18148720.02047  21099425.122    21099436.262
       242.000         208.000
 00  4 20 23 43 30.0000000  0  6G17G26G22G21G 6G23
  20804738.675   -13500382.58649 -10500798.55747  20804738.369    20804748.628
       243.000         210.000
  21674872.030   -20236149.09849 -15494686.18546  21674872.608    21674883.264
       231.000         186.000
  23724987.313   -11535712.74949  -8976060.66845  23724987.053    23725002.147
       214.000         157.000
  24158259.842    -8350129.72749  -6194512.11745  24158258.506    24158279.153
       208.000         148.000
  20719473.897    -5885732.25649  -4362471.70347  20719474.067    20719484.928
       240.000         205.000
  21092024.817   -23362457.28849 -18179023.94947  21092024.295    21092035.565
       241.000         209.000
 00  4 20 23 44  0.0000000  0  6G17G26G22G21G 6G23
  20802722.548   -13510977.31349 -10509054.16747  20802722.235    20802732.516
       242.000         210.000
  21675228.063   -20234277.88349 -15493228.06046  21675228.581    21675239.369
       231.000         186.000
  23725097.601   -11535133.37449  -8975609.23345  23725096.957    23725112.712
       215.000         157.000
  24142320.218    -8433890.58049  -6259779.75145  24142318.870    24142340.150
       211.000         149.000
  20729228.294    -5834472.61449  -4322529.17447  20729228.624    20729239.541
       240.000         205.000
  21084692.455   -23400988.80749 -18209048.40847  21084692.181    21084703.213
       241.000         209.000
 00  4 20 23 44 30.0000000  0  6G17G26G22G21G 6G23
  20800727.042   -13521463.69349 -10517225.34647  20800726.517    20800737.076
       243.000         210.000
  21675697.464   -20231811.00049 -15491305.77946  21675697.727    21675708.978
       231.000         186.000
  23725295.547   -11534093.41649  -8974798.90145  23725294.790    23725310.311
       214.000         156.000
  24126410.372    -8517494.87449  -6324925.40745  24126410.174    24126430.131
       209.000         149.000
  20739073.096    -5782738.15049  -4282216.65847  20739073.328    20739084.168
       240.000         205.000
  21077427.230   -23439167.45249 -18238797.90647  21077426.981    21077437.932
       241.000         209.000
 00  4 20 23 45  0.0000000  0  6G17G26G22G21G 6G23
  20798759.179   -13531804.93449 -10525283.43247  20798758.919    20798769.263
       242.000         210.000
  21676279.876   -20228750.44349 -15488920.89846  21676280.014    21676291.654
       231.000         186.000
  23725581.909   -11532588.37449  -8973626.16745  23725581.452    23725596.976
       214.000         156.000
  24110529.714    -8600946.09449  -6389951.79445  24110528.878    24110548.716
       213.000         149.000
  20749009.569    -5730521.78349  -4241528.63047  20749009.799    20749020.766
       240.000         205.000
  21070233.594   -23476969.87949 -18268254.24847  21070233.251    21070244.268
       242.000         209.000
 00  4 20 23 45 30.0000000  0  6G17G26G22G21G 6G23
  20796827.874   -13541953.89049 -10533191.68947  20796827.506    20796837.696
       242.000         210.000
  21676978.465   -20225079.30449 -15486060.24146  21676978.830    21676989.483
       230.000         186.000
  23725961.170   -11530595.35849  -8972073.19245  23725961.349    23725976.270
       213.000         157.000
  24094680.910    -8684230.01949  -6454847.80845  24094678.401    24094699.361
       212.000         149.000
  20759040.103    -5677811.32049  -4200455.59947  20759040.495    20759051.126
       240.000         204.000
  21063120.655   -23514348.38049 -18297380.25947  21063120.075    21063130.994
       242.000         209.000
 00  4 20 23 46  0.0000000  0  6G17G26G22G21G 6G23
  20794938.120   -13551884.52149 -10540929.81747  20794937.704    20794948.051
       242.000         210.000
  21677798.177   -20220771.71549 -15482703.64046  21677798.402    21677809.550
       231.000         186.000
  23726439.282   -11528082.93449  -8970115.47845  23726438.588    23726454.161
       212.000         156.000
  24078868.734    -8767321.37849  -6519593.79045  24078867.647    24078887.605
       210.000         150.000
  20769168.637    -5624585.78549  -4158981.20547  20769168.894    20769179.927
       241.000         204.000
  21056094.143   -23551272.26449 -18326152.02447  21056093.570    21056104.586
       243.000         209.000
 00  4 20 23 46 30.0000000  0  6G17G26G22G21G 6G23
  20793094.019   -13561575.31549 -10548481.05947  20793093.441    20793104.166
       242.000         210.000
  21678741.881   -20215812.39849 -15478839.19646  21678742.479    21678753.542
       231.000         186.000
  23727020.558   -11525028.52949  -8967735.44345  23727019.796    23727035.528
       212.000         156.000
  24063096.456    -8850203.21849  -6584176.51645  24063095.296    24063114.675
       212.000         151.000
  20779392.537    -5570858.92349  -4117116.16847  20779392.656    20779403.829
       240.000         204.000
  21049153.907   -23587743.18249 -18354570.83547  21049153.374    21049164.633
       242.000         209.000
 00  4 20 23 47  0.0000000  0  6G17G26G22G21G 6G23
  20791294.588   -13571031.15249 -10555849.21747  20791294.177    20791304.482
       242.000         210.000
  21679810.227   -20210197.85949 -15474464.19246  21679810.220    21679821.568
       231.000         186.000
  23727705.502   -11521428.87849  -8964930.54445  23727704.822    23727720.367
       213.000         155.000
  24047364.130    -8932874.81549  -6648595.40745  24047362.757    24047383.862
       212.000         151.000
  20789707.938    -5516651.26149  -4074876.47847  20789708.155    20789719.077
       240.000         204.000
  21042300.816   -23623756.05149 -18382632.72147  21042300.568    21042311.493
       243.000         209.000
 00  4 20 23 47 30.0000000  0  6G17G26G22G21G 6G23
  20789535.636   -13580274.44449 -10563051.75647  20789535.324    20789545.806
       242.000         210.000
  21681003.603   -20203926.50549 -15469577.38646  21681003.873    21681015.061
       231.000         186.000
  23728492.339   -11517293.88749  -8961708.49945  23728491.807    23728507.902
       212.000         155.000
  24031674.828    -9015320.67949  -6712838.42645  24031673.509    24031694.127
       213.000         152.000
  20800113.580    -5461969.50049  -4032267.37147  20800113.921    20800124.611
       240.000         204.000
  21035532.707   -23659322.36449 -18410346.64447  21035532.244    21035543.285
       243.000         209.000
 00  4 20 23 48  0.0000000  0  6G17G26G22G21G 6G23
  20787811.113   -13589336.65449 -10570113.20047  20787810.558    20787821.151
       242.000         210.000
  21682319.198   -20197013.00349 -15464190.19846  21682319.003    21682330.213
       231.000         186.000
  23729377.446   -11512642.78849  -8958084.30145  23729377.784    23729392.820
       212.000         155.000
  24016028.037    -9097543.26649  -6776907.45845  24016026.231    24016047.908
       209.000         152.000
  20810607.826    -5406822.06449  -3989295.40347  20810607.976    20810618.972
       239.000         203.000
  21028843.688   -23694473.10849 -18437736.74847  21028843.305    21028854.336
       243.000         209.000
 00  4 20 23 48 30.0000000  0  6G17G26G22G21G 6G23
  20786117.808   -13598235.10649 -10577047.03547  20786117.360    20786127.785
       242.000         210.000
  21683752.480   -20189481.04149 -15458321.09446  21683752.940    21683763.616
       231.000         186.000
  23730355.847   -11507501.59449  -8954078.19845  23730355.047    23730371.084
       213.000         155.000
  24000421.433    -9179554.27549  -6840811.62645  24000421.014    24000440.452
       217.000         153.000
  20821190.788    -5351208.14749  -3945959.93647  20821191.159    20821202.317
       240.000         203.000
  21022230.699   -23729224.13249 -18464815.37847  21022230.243    21022241.198
       243.000         209.000
 00  4 20 23 49  0.0000000  0  6G17G26G22G21G 6G23
  20784455.598   -13606969.94849 -10583853.38547  20784455.071    20784465.618
       242.000         210.000
  21685301.238   -20181342.05749 -15451978.99646  21685301.338    21685312.600
       231.000         186.000
  23731428.001   -11501867.61949  -8949688.12045  23731428.004    23731443.253
       213.000         155.000
  23984854.816    -9261355.55749  -6904552.39045  23984854.501    23984873.879
       216.000         153.000
  20831865.981    -5295109.78349  -3902246.98547  20831866.349    20831877.325
       240.000         203.000
  21015696.475   -23763561.24549 -18491571.48147  21015696.026    21015707.154
       243.000         210.000
 00  4 20 23 49 30.0000000  0  6G17G26G22G21G 6G23
  20782826.819   -13615529.05049 -10590522.79847  20782826.748    20782836.870
       242.000         210.000
  21686965.912   -20172594.03449 -15445162.31246  21686965.786    21686977.293
       231.000         187.000
  23732597.195   -11495723.60049  -8944900.62045  23732596.505    23732612.556
       212.000         155.000
  23969328.966    -9342942.41149  -6968126.06645  23969327.590    23969348.475
       218.000         154.000
  20842635.217    -5238517.52449  -3858149.18447  20842635.584    20842646.614
       239.000         203.000
  21009237.328   -23797503.96949 -18518020.27047  21009236.998    21009247.960
       243.000         210.000
 00  4 20 23 50  0.0000000  0  6G17G26G22G21G 6G23
  20781232.348   -13623907.89149 -10597051.74747  20781231.913    20781242.546
       242.000         210.000
  21688744.832   -20163245.52849 -15437877.72446  21688745.024    21688755.919
       232.000         186.000
  23733863.811   -11489067.57949  -8939714.14545  23733863.398    23733879.057
       212.000         154.000
  23953841.113    -9424329.47549  -7031544.08045  23953839.532    23953860.391
       216.000         154.000
  20853497.884    -5181434.09749  -3813668.65747  20853498.383    20853509.430
       240.000         203.000
  21002849.227   -23831073.21449 -18544178.03947  21002848.780    21002859.787
       243.000         210.000
 00  4 20 23 50 30.0000000  0  6G17G26G22G21G 6G23
  20779675.456   -13632089.35249 -10603426.89747  20779675.180    20779685.465
       242.000         210.000
  21690639.507   -20153288.83949 -15430119.23146  21690640.252    21690651.408
       231.000         187.000
  23735227.476   -11481901.85049  -8934130.50645  23735226.794    23735242.545
       212.000         154.000
  23938387.661    -9505536.12849  -7094821.50045  23938386.340    23938405.668
       217.000         154.000
  20864451.125    -5123874.70549  -3768817.24747  20864451.541    20864462.379
       240.000         203.000
  20996531.007   -23864275.22349 -18570049.65147  20996530.504    20996541.400
       243.000         210.000
 00  4 20 23 51  0.0000000  0  6G17G26G22G21G 6G23
  20778159.541   -13640055.41649 -10609634.20347  20778159.100    20778169.589
       241.000         210.000
  21692652.610   -20142709.73749 -15421875.75146  21692652.879    21692664.066
       231.000         186.000
  23736687.303   -11474230.62549  -8928152.97245  23736687.203    23736701.495
       211.000         154.000
  23922966.804    -9586571.60049  -7157965.53945  23922965.256    23922984.922
       216.000         155.000
  20875489.338    -5065868.83349  -3723617.92647  20875489.809    20875500.948
       240.000         203.000
  20990279.739   -23897125.45349 -18595647.14147  20990279.412    20990290.305
       243.000         210.000
 00  4 20 23 51 30.0000000  0  6G17G26G22G21G 6G23
  20776683.817   -13647810.44649 -10615677.07747  20776683.491    20776693.843
       242.000         210.000
  21694786.179   -20131497.54249 -15413138.94946  21694786.412    21694797.122
       231.000         186.000
  23738238.272   -11466080.14449  -8921802.00045  23738238.599    23738254.143
       210.000         152.000
  23907574.950    -9667454.29149  -7220990.56245  23907573.641    23907593.804
       217.000         155.000
  20886610.672    -5007426.10149  -3678078.20247  20886610.970    20886622.172
       240.000         203.000
  20984093.563   -23929633.80249 -18620978.23747  20984093.075    20984103.970
       244.000         210.000
 00  4 20 23 52  0.0000000  0  6G17G26G22G21G 6G23
  20775246.190   -13655365.09049 -10621563.80247  20775245.687    20775255.880
       242.000         211.000
  21697040.049   -20119653.42749 -15403909.73346  21697040.431    21697051.315
       231.000         187.000
  23739877.592   -11457465.60549  -8915089.43345  23739877.445    23739892.287
       213.000         153.000
  23892212.680    -9748181.82449  -7283894.61545  23892211.976    23892231.489
       211.000         152.000
  20897815.711    -4948543.38149  -3632195.61447  20897816.073    20897827.147
       241.000         203.000
  20977978.656   -23961767.57749 -18646017.44847  20977978.268    20977989.189
       242.000         209.000
